ECMWFNIL_sfc_thetae_000.txt.gz
Theta_e
338 340 339 337 337 336 334 334 335 333 333 334 333 335 337 339 341 339 338 340 341 338 338 341 341 341 340 341 342 342 340 342 342 340 338 336 334 334 334 334 335 335
334 340 339 337 336 338 335 335 335 336 335 334 335 337 339 341 341 339 338 340 341 336 337 340 342 341 339 340 341 340 342 340 339 343 335 334 335 335 334 334 334 335
334 336 334 332 333 336 337 337 336 336 337 338 339 339 340 342 340 339 339 339 339 339 339 339 340 343 340 336 336 341 341 340 339 341 341 336 337 335 335 335 334 334
334 334 335 335 334 334 336 335 335 337 337 337 337 338 339 340 341 340 339 342 340 339 339 339 339 341 341 340 339 339 340 340 342 341 336 335 337 336 335 335 335 334
335 335 335 335 335 336 334 334 334 334 335 336 338 339 340 338 338 339 341 337 333 334 338 339 339 339 340 340 339 337 337 340 341 342 341 340 338 337 335 335 334 333
333 333 335 334 334 333 332 332 333 333 334 335 335 338 337 337 337 337 337 337 338 336 337 338 338 339 340 341 340 339 340 340 343 343 342 340 339 337 337 335 334 333
331 331 330 331 331 331 332 331 332 334 333 334 335 334 335 335 335 335 336 337 337 339 339 339 338 337 338 339 338 338 339 339 341 338 337 338 339 335 335 336 335 333
328 328 329 330 330 329 331 331 331 332 333 334 333 334 334 334 334 335 336 336 335 336 338 337 336 337 337 338 337 337 337 339 337 336 335 336 339 336 335 337 336 335
328 327 328 328 328 328 328 329 331 332 335 333 332 332 334 334 335 336 336 335 334 334 334 334 336 336 338 337 337 336 335 337 337 334 334 335 334 334 336 339 339 337
326 327 326 327 326 327 327 328 330 331 334 332 332 333 333 335 336 336 336 334 333 335 335 334 334 335 335 336 336 334 334 334 335 333 332 334 336 336 337 338 339 338
325 326 326 326 326 327 327 329 330 332 334 334 333 333 334 335 335 335 334 334 334 334 333 334 334 334 333 335 335 337 338 337 336 335 335 335 336 336 335 338 338 338
325 326 326 326 327 327 328 329 331 332 334 335 335 334 335 335 335 334 335 334 335 336 334 332 334 333 333 333 334 336 336 336 336 336 337 337 337 336 336 337 337 337
325 326 326 326 326 327 328 329 330 332 335 336 337 338 336 335 335 335 335 334 335 336 335 333 333 333 333 334 335 336 335 335 335 336 336 336 337 338 337 337 338 338
325 326 327 327 328 328 328 328 330 331 333 336 338 337 337 336 334 334 333 333 334 335 336 336 334 333 333 334 335 336 337 336 336 336 336 336 337 338 338 338 338 339
326 328 328 328 328 327 327 327 328 329 331 333 335 336 337 336 335 334 332 331 332 333 334 335 336 335 336 335 333 333 334 335 336 336 335 335 336 337 338 338 339 339
327 329 329 327 326 326 325 326 327 328 330 332 334 335 335 335 334 334 332 331 331 332 333 334 335 335 331 321 323 327 329 331 333 334 335 335 336 337 338 338 339 339
328 328 326 325 325 325 325 326 327 328 329 331 332 333 333 333 334 332 331 331 331 331 331 332 333 333 324 321 325 326 326 327 331 334 336 336 337 336 337 337 338 339
328 326 325 325 324 324 324 325 327 328 328 328 329 330 331 333 331 331 331 330 331 330 330 332 333 326 319 320 323 324 326 328 330 334 336 335 337 337 337 337 338 338
327 327 326 325 324 324 324 325 326 327 327 327 327 329 331 330 329 329 330 329 330 330 331 331 332 323 318 319 321 321 323 327 331 335 336 335 334 337 337 337 336 334
325 326 326 325 325 325 324 324 325 326 327 327 329 330 328 327 329 328 328 328 329 330 330 331 332 320 317 317 317 318 321 326 335 336 337 335 333 334 336 337 335 333
321 321 323 325 325 325 325 325 326 326 326 326 327 326 326 327 328 328 329 330 329 331 331 330 332 318 316 316 315 316 319 329 336 337 336 333 334 335 334 334 334 334
320 321 323 325 326 326 326 326 326 326 325 325 327 327 329 329 330 328 328 328 328 331 331 328 330 319 315 315 314 316 321 333 335 335 335 333 333 334 335 334 334 334
321 321 323 325 326 326 326 326 325 325 325 326 325 326 327 329 329 327 329 328 328 330 329 329 328 322 314 313 313 315 324 333 333 333 334 333 333 334 335 335 336 335
321 322 322 324 325 326 326 326 326 325 324 326 325 325 326 329 329 328 329 328 329 329 330 330 330 322 312 312 313 315 321 331 330 328 328 328 327 328 331 333 335 335
322 322 322 323 325 327 327 326 326 325 326 325 323 324 325 328 330 328 328 327 329 330 331 330 330 325 315 311 312 313 323 330 329 327 326 326 325 324 325 324 322 321
322 323 323 324 325 327 328 327 328 326 323 322 322 322 323 326 326 327 327 327 329 329 330 330 331 329 325 310 310 313 316 328 329 327 324 324 325 324 322 321 321 319

ECMWFNIL_sfc_thetae_003.txt.gz
Theta_e
336 336 336 335 334 335 334 333 332 332 332 332 332 333 334 335 337 337 336 337 338 338 339 338 339 340 341 340 340 340 341 341 342 338 337 337 335 333 334 337 338 338
334 335 338 336 334 334 334 333 332 332 332 333 333 333 334 336 338 339 339 338 338 338 338 338 338 338 338 337 337 336 336 337 338 341 337 335 335 335 335 336 337 338
332 333 333 332 332 332 333 334 334 333 333 334 335 336 337 339 338 339 339 339 338 338 338 338 338 337 338 337 337 336 337 337 337 339 339 337 337 336 336 336 336 336
329 331 332 332 332 332 333 333 333 332 332 333 333 335 337 338 338 337 338 341 339 339 339 339 338 338 338 338 338 337 337 338 338 339 338 340 339 338 337 336 336 335
329 330 330 331 332 333 331 330 330 331 331 332 333 334 336 335 335 335 335 336 337 337 337 336 336 336 336 337 338 337 337 337 338 339 338 337 338 338 337 336 334 334
326 327 330 330 330 330 329 329 330 330 331 331 332 334 333 333 333 334 335 334 335 335 335 336 335 335 335 335 336 336 336 336 337 337 337 337 336 336 336 334 334 333
325 326 327 328 328 329 329 329 329 331 330 331 332 332 333 333 333 332 333 335 335 336 336 336 336 336 338 337 337 336 336 336 336 336 336 336 337 336 336 335 335 334
325 325 326 326 326 326 327 327 327 328 329 331 330 332 333 332 332 332 334 336 336 335 334 334 334 335 336 336 336 336 336 337 337 336 336 336 337 337 338 338 337 335
324 324 325 325 325 325 325 326 327 328 330 330 331 331 332 332 332 333 334 334 333 333 333 333 333 334 334 335 335 335 334 335 336 336 335 335 336 337 338 338 336 336
323 323 324 325 324 324 324 325 327 328 330 330 331 332 332 333 333 333 334 333 333 333 332 332 332 333 333 334 334 334 334 335 335 335 335 335 335 335 336 336 335 334
323 323 323 324 325 325 325 326 327 328 329 331 332 332 333 333 335 335 334 334 333 332 332 331 332 333 333 333 334 335 335 335 335 335 335 334 334 334 334 335 334 334
323 323 323 324 326 326 326 326 327 328 328 330 332 332 333 335 335 334 334 334 334 333 332 332 332 333 333 333 333 333 334 334 334 334 334 333 333 333 333 334 334 334
323 323 324 324 325 326 326 327 327 327 328 329 332 333 333 334 336 335 335 335 334 333 332 332 332 333 332 333 332 332 333 334 334 334 334 334 334 334 334 334 335 335
323 323 324 325 326 327 327 326 326 326 327 328 330 330 332 332 333 335 335 335 334 333 332 333 332 331 331 332 333 332 333 334 334 333 333 333 333 333 334 334 334 335
323 324 325 326 327 326 325 324 325 325 326 327 328 329 331 331 332 333 333 333 333 332 332 332 331 331 332 328 326 327 329 330 330 331 331 332 333 334 335 335 335 335
323 325 326 326 325 325 324 324 324 325 326 327 327 327 328 330 330 332 333 332 332 331 331 331 332 333 327 318 321 326 326 328 328 329 330 331 333 333 334 335 335 335
322 324 324 325 325 324 324 324 324 325 325 326 327 328 328 329 330 330 330 331 331 330 329 331 332 332 322 320 323 325 326 326 326 327 329 329 331 332 332 333 334 335
322 323 324 324 324 324 324 324 324 324 324 325 326 327 328 329 329 329 329 330 330 329 329 331 331 326 321 320 322 322 323 325 324 325 327 329 330 332 333 333 334 335
321 321 323 323 323 323 324 324 323 324 324 324 325 327 328 328 327 327 327 329 330 329 328 331 331 325 321 318 320 320 322 325 324 324 326 329 331 331 332 333 334 335
320 320 321 321 322 322 323 324 324 324 324 325 326 326 326 326 326 326 327 328 330 329 328 330 330 323 319 316 315 316 319 324 328 327 329 333 334 335 335 334 334 334
319 318 319 320 321 322 323 324 324 324 324 324 324 324 324 325 325 326 327 329 329 329 329 330 331 321 317 315 313 313 316 324 331 332 332 334 334 333 333 333 333 335
317 317 318 319 321 322 323 324 324 324 323 324 325 324 324 326 326 327 327 327 328 328 328 328 330 321 316 313 312 313 316 327 329 329 331 332 332 333 334 334 334 335
317 316 318 320 321 321 322 323 324 324 324 322 322 322 323 323 324 326 326 327 327 328 327 327 328 324 315 311 311 312 317 327 326 327 327 325 324 324 324 330 333 334
317 317 318 320 319 320 321 323 324 324 322 323 321 321 321 323 324 325 326 326 327 327 328 328 328 324 314 310 310 312 314 326 325 323 323 323 323 322 321 320 320 321
318 318 319 319 319 321 323 324 324 324 325 322 320 320 321 322 326 325 325 324 324 326 330 328 329 326 317 310 310 310 318 325 325 320 318 319 320 319 319 319 318 318
319 320 320 319 320 322 324 324 326 325 321 320 320 318 321 321 323 324 323 324 325 326 328 328 329 330 327 310 308 310 312 323 324 319 316 317 318 318 316 317 318 317

ECMWFNIL_sfc_thetae_006.txt.gz
Theta_e
335 335 336 336 335 336 335 334 334 333 333 334 333 334 335 336 338 338 339 340 340 341 340 340 341 342 343 343 342 342 342 342 343 343 344 344 344 344 343 343 344 343
334 336 338 336 335 335 334 334 334 334 334 334 334 335 336 337 338 339 339 340 341 340 341 341 340 340 340 340 341 340 340 341 340 344 342 341 342 342 341 342 342 342
333 334 334 333 332 332 333 334 335 335 334 335 335 336 336 338 338 339 339 339 340 340 340 340 340 340 340 339 339 339 339 339 338 339 341 340 341 340 341 341 340 340
332 332 332 332 332 331 333 333 332 332 332 332 333 334 335 337 338 338 338 339 337 337 338 338 338 339 339 339 338 338 338 338 339 339 338 340 340 340 340 340 339 338
331 331 331 331 331 331 331 330 330 331 331 332 332 334 335 335 334 335 335 336 336 336 337 336 337 337 338 337 337 336 337 337 338 339 338 337 339 340 340 339 337 336
329 329 330 330 330 330 329 329 330 330 330 331 332 333 334 334 334 334 335 334 335 335 335 336 336 337 337 337 337 336 336 336 337 338 337 337 338 339 340 339 338 336
327 328 328 328 329 329 329 328 329 331 330 330 332 332 333 334 334 334 334 334 334 335 335 335 335 335 336 336 335 335 336 336 337 337 336 336 338 338 339 340 338 337
327 327 327 327 327 327 328 328 328 328 329 330 330 332 333 333 334 334 334 334 335 335 335 335 335 335 334 335 333 333 333 334 334 335 336 336 336 336 338 338 338 335
326 326 326 327 326 327 327 327 328 328 329 329 330 331 334 334 334 334 334 334 334 335 335 335 335 334 334 333 333 332 330 332 333 334 334 334 334 336 336 338 337 335
325 325 325 326 326 327 327 328 328 328 330 330 331 332 332 334 335 335 335 335 335 335 335 334 333 334 333 333 332 331 331 331 332 333 334 334 334 335 335 336 334 334
324 325 325 325 326 327 328 329 329 328 329 330 331 331 332 333 335 336 335 335 335 335 335 334 334 334 333 332 332 333 332 331 332 333 334 334 335 335 333 335 334 334
324 324 325 325 327 328 329 329 329 329 329 329 331 330 332 333 334 335 336 335 335 335 334 334 334 334 333 332 331 331 330 331 330 331 333 333 333 334 334 334 335 335
324 324 325 325 326 327 328 329 329 329 328 328 330 331 331 332 333 333 334 335 335 335 335 334 333 333 333 332 331 329 328 327 329 331 332 332 333 333 334 335 335 335
323 324 324 325 327 328 329 330 329 328 328 329 330 329 330 331 332 332 332 333 333 335 335 335 333 333 333 332 330 328 327 326 327 327 329 330 332 333 334 335 336 334
323 324 325 327 328 328 328 328 328 327 328 328 329 329 331 331 332 331 330 330 332 333 334 333 332 332 332 331 328 327 326 325 325 325 326 328 329 331 333 334 335 336
323 324 326 326 327 327 328 328 327 327 328 328 328 329 329 330 331 331 331 331 331 331 332 332 331 332 329 321 322 327 326 325 324 324 324 325 327 328 330 331 333 335
323 324 325 325 326 327 327 327 326 327 327 328 328 329 329 329 330 330 330 331 331 330 331 331 331 331 323 321 324 326 326 324 323 323 323 324 326 327 328 330 331 334
323 324 324 325 325 325 326 326 326 326 327 327 328 328 328 330 329 329 329 330 330 331 332 331 331 325 322 321 324 324 324 324 323 324 325 326 326 326 327 329 331 333
323 323 323 324 324 324 324 325 325 326 327 327 328 329 329 328 327 327 328 329 330 330 331 331 330 324 322 319 321 321 321 323 324 327 327 328 329 328 327 329 330 332
323 323 323 322 323 322 323 324 325 325 327 327 328 328 326 326 326 326 327 328 330 330 331 330 330 323 320 317 316 316 319 322 326 326 326 326 324 325 329 331 332 332
322 321 321 321 322 322 323 323 324 325 326 327 327 327 326 325 325 325 327 329 330 331 330 330 330 320 317 315 313 313 315 322 326 324 323 324 322 322 322 321 322 324
321 321 320 320 321 322 322 323 324 325 326 327 328 327 326 326 326 326 327 328 329 329 328 328 329 320 316 314 312 312 315 325 324 322 321 321 320 321 321 321 322 322
322 320 320 321 322 321 322 322 323 325 327 328 327 326 324 324 324 325 327 328 329 330 329 328 328 324 316 312 310 310 315 324 323 321 320 319 319 320 320 320 320 321
322 321 321 322 321 321 322 323 325 326 326 328 326 324 323 323 324 325 327 328 329 329 329 328 329 324 315 312 310 310 311 323 322 319 319 319 319 319 320 319 319 322
321 321 322 322 321 321 323 324 325 326 328 326 324 323 323 324 326 325 325 326 327 328 329 329 329 325 318 315 311 308 315 323 322 319 318 318 318 319 319 319 319 319
322 325 325 323 322 322 323 325 327 328 324 322 322 323 323 324 323 324 323 323 324 326 328 329 329 329 328 315 310 308 309 319 323 319 318 318 319 319 317 318 319 319

ECMWFNIL_sfc_thetae_009.txt.gz
Theta_e
348 346 345 345 344 342 340 338 338 338 338 339 338 339 339 340 342 342 343 344 345 346 346 346 347 347 346 347 348 348 345 346 348 349 346 345 342 342 342 341 342 343
347 346 346 345 345 344 341 338 338 338 337 338 339 339 339 340 341 342 342 342 343 344 344 345 345 345 346 345 345 345 345 346 345 345 345 345 341 345 344 343 342 343
345 345 344 342 341 341 341 340 338 338 338 338 339 340 338 340 340 342 343 342 342 342 343 343 342 342 342 343 343 342 342 343 343 344 344 345 346 343 344 343 344 343
344 344 343 342 341 340 342 341 341 340 340 339 339 339 339 339 341 340 341 341 341 342 343 343 343 342 341 341 340 339 340 340 340 342 341 342 345 345 344 342 343 341
343 343 342 342 341 342 342 340 339 339 339 339 340 341 340 340 340 339 340 340 343 342 342 343 343 341 341 340 340 339 338 338 340 341 340 339 342 342 342 343 342 340
343 342 341 341 341 341 340 339 339 338 338 339 341 340 340 340 340 339 340 341 341 341 341 341 340 340 340 339 338 338 337 337 338 339 338 338 339 341 341 341 341 340
341 341 341 340 340 340 341 340 340 340 339 340 341 340 340 339 339 341 342 341 341 341 340 340 340 339 339 339 338 337 337 337 337 337 337 337 339 338 339 340 340 340
340 340 340 340 340 342 341 341 340 339 340 340 339 341 342 340 340 341 341 340 339 340 340 340 340 340 339 338 336 335 335 335 336 335 335 335 337 337 338 337 338 339
340 339 339 341 341 342 340 339 338 339 340 339 339 339 341 341 340 341 341 340 339 339 340 340 341 340 340 338 335 334 334 334 334 334 333 332 333 334 335 337 337 336
339 339 339 339 337 340 340 339 338 339 341 340 340 340 340 341 342 341 340 340 339 340 340 339 338 337 338 339 337 335 333 333 333 333 332 332 331 332 332 334 336 336
338 338 337 337 338 336 337 337 337 337 339 340 340 340 340 340 340 341 339 340 339 339 338 336 334 335 335 335 334 335 334 332 332 331 331 331 331 331 330 333 333 335
337 338 337 337 337 337 338 339 341 342 341 339 340 338 339 340 340 340 340 340 340 340 338 337 336 336 337 335 335 335 333 332 331 330 329 329 330 331 333 334 334 333
336 337 338 336 338 339 340 339 340 339 337 337 338 338 338 338 340 340 340 340 340 340 339 339 339 339 338 336 335 334 333 332 331 329 329 329 329 329 330 331 334 335
336 338 339 339 339 340 341 342 342 342 341 341 340 338 338 339 339 340 340 340 340 340 339 339 339 339 338 336 334 334 332 332 330 328 328 328 328 328 328 329 330 333
338 339 339 339 339 340 340 341 341 341 341 340 340 340 340 340 340 339 339 340 340 340 340 339 338 338 338 335 333 332 333 331 330 328 327 327 327 327 328 328 329 331
338 339 339 340 340 340 340 340 339 339 339 338 339 339 340 340 341 340 339 338 338 339 340 340 339 339 333 323 323 331 332 330 328 328 328 327 327 327 327 327 328 330
338 339 339 339 340 340 340 339 338 338 338 339 340 340 340 341 340 339 338 338 337 338 338 339 338 338 327 321 324 325 330 330 328 327 327 326 326 326 324 324 325 329
338 339 339 339 340 340 339 338 336 336 338 339 339 340 341 341 340 339 338 338 337 338 338 339 339 332 323 321 324 323 324 328 328 327 326 325 324 323 323 323 323 325
338 337 337 338 339 339 337 336 336 336 337 338 338 339 340 340 339 338 338 338 338 338 338 339 339 331 323 320 321 321 322 324 328 328 326 325 323 322 322 322 323 323
337 337 336 338 338 337 336 335 336 337 337 338 338 340 339 339 339 339 339 339 339 339 339 339 340 331 322 319 316 316 318 322 329 327 325 324 323 323 324 324 322 322
336 336 336 337 337 336 335 336 336 337 337 338 338 338 337 337 337 336 337 337 338 339 338 338 339 326 320 316 314 312 313 320 330 327 326 325 325 324 323 322 321 322
336 335 337 337 335 335 336 336 337 338 337 338 337 336 338 338 338 338 337 336 337 338 337 336 336 325 319 317 313 312 313 328 329 326 324 324 323 323 324 324 323 323
336 335 336 336 335 335 335 334 334 335 336 338 336 335 335 336 336 335 337 336 336 336 336 335 334 330 319 313 312 311 315 330 329 326 323 323 322 324 325 325 324 323
337 336 335 335 336 334 332 332 333 336 336 337 334 332 331 332 333 334 337 338 336 334 332 331 331 329 317 311 311 313 312 327 328 325 322 322 323 324 324 324 324 323
336 336 335 335 335 334 333 332 333 334 334 335 333 332 332 335 335 335 335 335 332 333 332 330 331 328 319 313 312 313 319 328 328 325 321 322 323 323 325 324 323 323
336 336 337 336 336 336 336 334 334 333 332 330 332 331 330 330 333 333 333 332 332 334 332 332 332 333 334 317 313 312 311 322 327 325 323 323 323 323 324 324 324 323

ECMWFNIL_sfc_thetae_012.txt.gz
Theta_e
344 344 342 341 341 343 344 343 343 343 343 342 341 342 342 344 345 344 344 347 348 347 347 347 348 348 347 346 347 347 347 346 345 346 347 347 347 346 345 347 347 347
342 343 343 343 343 344 344 344 344 343 343 343 343 342 343 343 343 344 344 344 346 347 348 347 347 347 347 345 345 345 343 344 344 344 343 344 346 344 344 346 344 348
342 342 341 340 338 340 340 342 344 343 341 342 343 343 342 343 343 344 344 343 343 344 346 347 345 345 345 345 346 344 343 343 343 343 343 342 343 343 345 345 346 343
343 343 341 340 340 340 341 341 342 343 342 341 341 341 342 343 343 343 343 343 343 344 344 347 347 346 345 345 345 343 343 343 343 344 342 341 343 342 340 341 344 346
343 342 342 342 341 343 343 342 341 341 341 341 341 342 342 343 343 342 342 342 344 345 343 343 344 344 344 344 344 342 341 340 341 342 340 340 340 341 339 338 337 337
343 343 343 342 342 342 341 340 340 340 340 340 341 341 340 342 342 342 342 342 340 339 340 340 342 342 343 343 343 343 342 340 340 341 339 338 338 339 340 341 341 337
342 342 342 341 342 342 341 340 341 341 340 341 343 342 342 341 341 342 343 343 342 342 342 343 342 343 344 343 342 341 341 341 341 340 339 339 338 337 338 338 338 339
341 341 340 340 340 340 340 340 340 339 340 342 340 341 342 341 342 343 343 343 343 342 343 344 344 343 342 343 342 341 341 340 339 339 339 338 337 337 337 337 338 336
342 340 339 340 339 338 336 336 336 338 339 339 338 338 340 341 340 342 343 345 344 344 344 344 342 341 342 342 342 342 341 340 339 338 337 336 335 336 337 337 336 335
341 340 339 337 333 335 335 335 334 336 337 337 337 337 337 340 341 343 343 344 343 344 345 344 341 340 339 340 340 341 340 338 337 337 336 335 334 334 335 335 335 334
340 339 337 336 335 332 333 332 331 332 334 335 336 336 337 338 339 341 342 343 342 343 343 344 342 340 340 340 341 342 340 337 336 335 334 332 333 335 331 335 334 333
339 338 336 335 334 333 333 334 334 335 334 333 333 332 334 334 336 338 341 342 343 342 344 345 344 343 342 341 341 341 339 337 335 334 330 331 332 333 333 334 332 332
337 337 336 334 335 335 336 333 332 332 331 331 332 332 331 333 335 338 341 344 344 344 343 343 343 342 341 342 342 341 338 337 335 334 331 331 332 331 332 333 332 331
337 336 336 337 336 337 337 336 335 335 335 335 335 333 330 332 333 336 337 338 339 340 341 342 345 344 343 342 343 340 337 336 336 334 332 332 331 331 331 331 331 329
337 337 337 337 337 336 335 335 335 335 334 335 334 334 334 334 336 334 335 336 338 340 342 342 344 345 343 341 338 337 338 336 335 333 332 331 331 331 331 330 328 326
337 338 338 337 336 335 335 335 333 333 332 332 332 332 334 335 336 337 335 334 335 339 341 342 343 345 338 332 332 335 335 335 335 334 332 331 332 331 328 326 325 324
337 337 337 336 336 335 335 334 333 332 332 332 333 335 335 336 335 334 334 335 336 337 338 338 340 343 332 327 327 327 333 335 335 334 334 333 332 329 327 325 324 324
337 337 336 335 335 335 335 334 333 332 332 333 333 333 333 334 333 334 335 337 338 337 336 336 337 334 326 326 327 326 328 335 335 334 334 333 331 328 327 325 325 325
338 337 336 335 335 335 335 334 333 331 331 331 331 332 333 333 333 333 335 337 336 335 334 334 334 332 324 324 325 324 324 328 335 336 334 333 332 329 328 326 325 324
337 337 336 335 335 335 335 334 331 330 331 331 332 333 333 332 333 333 333 335 334 333 334 335 334 331 324 323 322 321 321 324 335 336 335 333 332 329 328 327 326 325
337 337 336 336 336 335 334 333 331 331 331 331 331 331 331 331 331 332 333 333 332 331 331 331 332 326 323 321 320 317 317 320 335 336 334 332 332 331 330 328 326 326
338 337 337 337 336 336 333 331 331 331 331 332 333 331 331 330 330 330 330 330 331 331 330 331 331 325 322 320 317 315 316 332 336 335 335 333 332 331 331 330 330 328
338 337 338 337 337 334 332 330 330 330 330 333 332 331 328 327 329 328 331 330 330 331 332 333 333 327 317 315 315 314 317 334 336 335 335 335 332 331 331 331 331 330
338 339 338 337 337 334 332 330 329 331 330 333 331 330 328 328 329 329 331 331 330 331 330 330 329 325 312 311 312 314 319 334 335 334 334 334 333 332 332 332 331 328
338 339 338 337 336 333 332 331 330 331 331 332 332 331 330 331 330 329 329 330 328 329 333 331 331 326 315 312 310 313 323 336 336 335 332 333 334 331 333 333 332 331
339 339 339 338 336 335 334 333 333 332 331 330 330 329 328 328 328 329 328 328 328 329 330 331 331 331 327 311 312 312 313 331 333 332 331 331 333 331 329 331 332 333

ECMWFNIL_sfc_thetae_015.txt.gz
Theta_e
344 345 342 343 342 343 343 343 343 342 343 342 341 343 342 344 345 345 344 345 344 344 344 348 352 352 348 346 347 346 345 347 347 346 346 346 345 345 343 341 341 340
343 343 343 343 343 344 343 342 342 342 342 344 344 344 344 345 344 344 344 344 344 343 344 345 346 347 348 344 343 343 343 344 345 344 342 342 343 344 343 342 342 344
344 342 342 342 341 341 340 341 341 341 341 342 344 344 343 344 344 345 345 344 343 342 343 345 345 345 344 345 345 344 342 343 344 344 342 341 343 343 343 341 343 341
345 345 343 342 341 341 343 341 340 342 343 343 342 342 342 343 344 344 343 344 343 343 344 345 344 345 346 346 346 345 344 343 343 343 342 342 343 342 342 342 342 342
345 345 345 344 343 343 342 341 340 340 341 341 342 343 342 343 343 342 342 342 342 341 342 340 341 342 343 342 344 343 342 340 340 342 341 340 342 340 339 338 338 338
345 345 344 343 343 343 341 340 340 340 341 340 341 341 340 340 341 341 341 341 340 339 339 339 339 340 339 341 342 343 343 342 340 341 341 341 340 340 338 336 335 335
345 344 344 344 343 343 342 341 341 341 341 341 342 341 341 339 339 340 341 341 341 342 341 342 342 342 343 344 343 342 342 342 341 341 340 339 339 339 338 336 336 337
346 344 343 344 343 342 341 340 340 339 341 342 340 341 340 338 339 339 340 341 341 343 343 343 343 344 341 341 340 341 342 340 338 340 339 338 338 337 335 334 334 334
343 342 342 342 341 340 337 337 336 337 338 338 338 338 340 339 338 339 340 341 342 343 343 343 343 344 341 340 339 341 341 340 339 339 338 337 336 334 333 334 333 333
342 342 341 339 336 338 336 335 334 334 337 336 337 335 335 339 339 340 339 340 340 342 343 345 344 345 345 341 339 340 341 341 341 339 337 336 335 334 333 333 332 332
341 340 340 340 338 334 334 333 332 332 333 333 334 334 335 336 337 338 338 338 339 342 342 342 343 342 340 339 341 342 342 340 341 339 337 336 335 334 333 332 332 334
341 340 338 338 336 335 334 335 335 335 334 333 333 331 333 331 333 334 335 336 338 342 345 345 345 344 346 345 344 341 340 340 339 337 336 336 335 332 332 333 333 333
338 339 340 337 338 337 338 336 335 334 334 333 333 333 332 331 332 334 335 335 337 340 340 340 343 342 343 345 344 344 342 341 339 338 337 335 333 332 332 333 334 333
338 338 339 338 338 339 339 338 337 337 338 337 336 334 331 331 331 331 332 334 335 336 337 339 339 340 342 342 342 342 341 339 338 336 335 333 333 333 333 332 332 331
339 340 339 339 338 339 338 338 338 338 337 337 336 334 333 331 332 332 334 334 335 336 338 339 340 340 341 342 341 342 338 334 334 334 333 333 333 333 333 333 331 331
340 340 339 339 339 338 338 338 337 337 336 335 334 333 334 334 335 335 333 333 333 335 338 338 340 340 337 333 334 340 337 335 334 334 333 334 333 333 334 332 331 330
341 340 340 339 339 339 338 338 338 337 337 335 334 334 335 336 335 333 332 333 333 334 336 337 337 338 330 329 329 331 336 336 334 333 333 332 332 334 334 333 331 330
339 339 339 338 339 339 339 339 338 337 336 335 334 333 334 334 333 333 334 334 335 336 336 336 336 335 323 326 329 328 331 336 334 332 331 331 331 332 334 334 332 331
340 339 338 338 339 339 339 338 338 336 335 334 332 333 334 334 334 333 333 335 335 335 335 335 335 329 322 325 327 326 327 331 334 334 331 330 331 333 333 333 334 332
339 339 338 339 339 339 339 338 337 336 334 333 332 333 334 333 333 332 332 333 333 333 333 333 334 330 322 323 323 324 325 328 335 334 333 333 333 332 332 335 334 333
338 338 338 339 339 339 339 338 337 336 334 333 332 331 332 334 332 331 332 332 331 330 331 331 333 323 320 321 320 320 321 325 335 335 333 335 333 333 333 333 334 334
338 339 339 339 339 339 338 337 337 336 334 334 333 332 334 333 332 332 330 330 331 331 331 331 331 320 319 319 318 318 321 333 335 335 334 334 334 333 332 336 336 336
339 338 339 339 339 338 339 338 336 335 334 335 333 332 332 331 331 330 332 330 332 332 331 332 333 326 316 316 316 317 320 336 335 335 334 330 332 333 333 336 337 337
340 339 339 338 339 337 337 337 335 335 334 334 331 330 329 331 331 331 333 333 331 331 330 330 328 325 313 311 311 314 323 335 334 334 332 333 330 331 332 335 337 334
339 339 339 337 337 337 337 335 335 335 334 334 332 333 333 333 332 331 331 332 329 330 331 327 329 327 310 310 310 314 322 337 335 334 331 330 328 329 331 330 331 333
340 340 340 338 337 337 337 336 336 334 333 333 332 331 330 331 330 330 329 330 332 330 329 329 331 331 330 309 311 312 315 330 335 332 329 328 328 328 328 329 329 331

ECMWFNIL_sfc_thetae_018.txt.gz
Theta_e
352 351 355 354 356 352 348 346 344 344 345 345 345 347 350 348 349 348 347 348 347 347 348 348 349 349 349 351 349 346 347 345 346 347 345 346 344 343 341 341 338 337
349 348 350 354 351 349 348 349 348 346 347 347 350 349 348 349 346 347 348 346 347 346 348 346 348 349 348 346 347 345 345 344 343 344 343 342 342 340 340 342 341 343
349 346 345 344 345 344 341 345 346 347 347 347 347 348 347 349 348 348 348 346 346 345 346 347 347 348 348 348 348 345 343 344 343 343 345 344 344 343 343 342 342 342
349 348 346 344 343 344 346 346 345 346 347 347 347 346 344 345 347 346 347 346 346 346 346 345 346 345 346 347 346 347 345 346 345 345 344 345 345 343 342 342 340 338
349 350 349 348 345 347 350 343 342 343 344 348 345 348 349 350 348 345 345 346 346 344 344 344 345 344 347 346 346 345 344 344 344 344 344 343 343 341 342 341 338 335
350 349 349 347 347 347 346 344 344 341 342 340 347 345 344 344 344 344 343 342 339 340 341 341 343 343 343 344 345 344 344 344 344 344 343 342 341 342 341 341 338 335
348 348 347 346 346 346 346 346 346 346 343 342 344 345 345 343 343 345 345 342 341 343 342 344 344 344 345 345 344 344 344 343 342 342 340 340 341 340 340 339 338 336
349 347 347 348 345 347 346 345 344 344 346 347 342 344 346 342 345 342 343 344 341 342 344 343 344 345 342 344 343 342 341 340 340 340 339 338 339 338 338 337 337 335
350 348 347 345 344 343 339 339 338 342 343 342 341 339 348 346 344 343 344 344 343 343 344 343 344 344 343 344 342 341 339 339 340 340 338 338 336 337 336 337 335 334
347 347 344 340 338 341 337 337 336 337 341 344 338 342 341 345 343 342 342 343 342 344 343 343 344 344 345 344 343 341 339 339 340 339 338 338 337 336 335 334 333 332
344 342 340 341 338 334 334 332 332 332 339 335 337 335 335 338 346 348 346 344 341 342 342 342 343 344 343 343 342 340 340 338 336 337 338 337 336 337 335 334 333 332
344 342 340 340 339 338 336 337 336 341 336 332 338 334 336 334 338 340 342 343 343 344 344 342 343 343 344 343 341 339 332 329 329 333 333 334 335 336 334 334 332 332
342 343 343 337 343 343 343 338 335 333 333 334 335 335 333 331 332 337 341 340 342 342 341 340 340 341 343 344 342 336 332 331 331 334 335 335 335 334 333 332 332 332
341 344 343 345 344 343 343 343 341 342 342 342 339 336 333 333 331 332 334 338 337 337 338 339 339 339 340 344 341 338 337 336 335 335 335 333 334 334 333 331 332 332
345 344 345 345 344 344 343 343 342 343 343 342 342 339 336 333 334 333 337 337 337 337 338 339 338 339 342 338 339 341 339 338 338 335 333 332 332 332 332 333 332 333
345 345 345 345 343 342 343 343 340 342 339 341 341 338 338 338 340 340 335 334 336 337 338 337 338 341 338 332 333 339 340 339 336 335 334 334 333 332 330 330 332 333
344 344 344 343 343 343 343 342 342 342 342 342 342 341 341 340 338 338 336 336 335 334 335 336 338 339 332 326 327 330 337 339 337 335 334 333 332 331 330 330 333 335
343 344 343 342 343 343 343 343 342 342 342 341 340 339 341 341 337 338 339 337 335 334 334 336 336 335 327 325 327 328 331 338 336 334 333 332 332 331 330 332 333 332
344 343 343 342 342 342 343 343 343 342 341 339 337 338 339 340 339 337 337 339 337 336 335 334 335 331 324 324 325 325 327 331 336 336 333 333 332 332 332 333 333 332
343 342 342 342 343 343 343 343 342 341 340 338 337 339 338 337 338 339 339 339 338 337 337 336 337 330 323 322 322 323 325 328 335 335 334 333 333 332 331 332 332 332
343 342 342 342 343 343 343 342 341 341 340 339 336 335 336 339 339 339 339 336 335 333 333 336 338 321 321 320 319 319 321 326 335 335 334 334 334 334 334 333 331 331
342 342 342 342 342 342 341 341 341 342 340 340 339 336 337 337 337 338 336 335 335 335 336 335 332 323 321 319 317 317 321 332 335 335 335 334 334 336 334 331 332 331
341 340 341 341 341 340 340 339 340 341 341 341 338 336 335 335 335 334 336 335 334 336 336 336 334 332 320 316 314 316 321 334 335 335 335 334 335 336 334 333 334 334
342 341 341 340 341 340 340 340 340 342 341 341 337 334 332 331 332 334 337 337 334 334 330 331 330 325 312 311 311 314 323 334 335 335 333 334 334 334 334 333 333 333
342 342 341 340 340 339 338 338 339 340 340 339 337 335 334 338 337 336 333 333 329 328 335 330 329 325 311 311 312 314 320 332 335 334 332 331 331 330 332 332 331 332
342 342 342 340 340 341 340 340 341 337 336 335 336 334 333 334 333 331 331 328 328 327 330 334 334 337 330 310 311 312 315 327 332 331 329 328 329 329 328 327 328 330

ECMWFNIL_sfc_thetae_021.txt.gz
Theta_e
341 341 343 337 342 344 337 335 338 337 336 337 336 336 338 339 342 340 341 342 342 341 341 340 341 343 346 342 342 340 340 339 339 338 338 338 335 335 336 335 333 331
342 343 347 342 344 343 339 337 338 338 335 333 334 338 339 340 340 340 340 340 341 340 340 341 340 341 340 339 340 337 336 336 335 342 337 336 335 334 334 335 335 335
340 342 339 337 335 335 335 340 340 335 335 337 338 337 339 341 340 340 339 339 338 340 340 340 340 339 340 339 339 337 336 335 336 339 338 336 337 336 336 336 335 335
339 339 337 337 337 337 338 338 338 336 334 335 336 341 338 339 337 338 338 345 338 338 339 339 338 338 338 338 338 338 338 338 339 338 336 337 338 337 335 335 336 333
340 339 338 338 338 339 341 335 335 334 334 336 338 337 340 339 337 337 336 337 337 337 337 338 339 338 339 338 337 336 337 337 337 337 336 335 336 337 337 335 333 331
342 339 340 338 338 337 335 334 334 334 335 334 332 337 337 337 334 334 335 335 334 334 335 336 337 338 338 337 337 336 337 338 338 337 336 335 335 337 338 336 333 331
341 340 339 339 339 338 336 336 335 338 334 333 336 335 336 335 334 335 336 337 335 336 335 335 336 336 337 337 336 336 337 337 336 335 334 333 335 335 335 333 332 330
340 339 339 338 337 337 337 338 337 336 336 335 333 334 337 336 336 336 336 334 334 334 335 336 336 336 338 337 336 335 335 338 336 334 333 332 332 333 332 333 331 329
342 340 340 339 337 338 338 338 337 335 336 335 335 336 337 337 336 335 335 334 334 334 334 335 336 335 336 336 335 334 333 333 335 334 333 330 330 329 330 332 331 330
342 341 340 339 338 337 336 335 335 335 336 335 335 335 334 336 337 336 335 334 334 335 335 335 335 336 337 336 337 334 333 333 332 331 331 331 329 329 331 331 329 328
341 340 337 336 335 335 334 334 334 332 335 330 330 330 331 329 331 334 334 334 335 334 334 334 335 336 336 336 336 335 334 331 328 327 328 328 329 329 333 331 330 328
339 337 336 335 334 333 332 331 331 329 329 331 332 331 332 333 330 330 333 332 333 334 333 333 334 336 335 336 336 335 331 327 327 327 329 329 329 329 329 330 329 328
338 336 335 335 335 334 334 333 330 331 333 333 334 333 331 329 328 328 332 332 332 331 332 332 332 333 334 336 337 332 330 329 329 328 329 329 329 330 330 330 328 327
337 337 335 334 334 335 334 333 332 333 332 333 335 332 332 330 329 328 329 331 330 331 330 331 329 329 331 334 335 332 330 329 329 329 329 329 330 329 328 328 327 328
338 336 336 336 337 335 333 333 333 332 334 334 333 334 335 331 330 330 330 329 329 329 329 331 332 333 337 336 334 330 330 331 331 330 330 329 327 327 328 328 328 328
337 337 336 335 335 333 332 332 332 333 334 333 333 333 333 333 330 331 332 329 328 330 330 332 332 335 338 334 334 334 334 334 333 332 329 327 327 327 327 328 327 328
334 334 334 334 333 332 332 333 333 334 333 333 334 333 332 331 333 328 327 328 330 328 327 330 332 335 333 328 329 332 333 332 331 330 328 327 326 325 325 326 326 327
333 333 333 333 333 332 332 332 333 333 333 332 333 333 333 333 331 330 330 330 330 329 328 329 330 335 327 325 327 327 330 331 331 330 329 326 326 326 326 326 326 328
333 333 333 333 333 332 333 334 333 333 333 333 332 333 332 331 330 331 330 330 330 329 330 330 329 330 325 323 324 324 326 329 329 329 328 328 327 327 326 325 325 327
334 334 334 333 334 333 334 334 334 333 333 333 333 333 331 330 330 329 329 330 330 329 329 329 328 325 322 322 321 321 323 326 328 328 329 329 328 328 327 326 326 326
335 334 334 334 334 334 334 334 334 334 334 334 333 331 330 329 329 329 330 331 330 329 327 328 332 321 320 320 319 318 319 325 326 330 329 328 328 328 328 328 327 327
335 334 334 334 334 334 334 333 333 334 333 334 333 331 330 330 330 330 329 328 329 329 328 328 330 320 319 319 317 316 320 325 325 326 327 328 329 328 328 328 328 327
335 334 334 333 334 333 333 333 333 333 334 335 333 331 330 329 328 328 329 328 328 328 328 326 329 324 316 315 314 315 319 324 325 326 327 327 327 328 328 329 330 329
336 335 334 334 333 333 333 333 334 334 334 336 333 331 330 329 329 328 329 330 329 328 330 327 327 320 312 310 312 314 322 325 326 326 324 326 327 327 328 328 328 334
337 335 335 334 333 333 333 333 334 334 335 336 334 332 330 329 329 327 327 329 329 327 335 328 325 319 306 308 311 312 318 323 324 325 324 324 324 324 324 325 322 326
337 336 335 334 334 334 334 334 335 335 336 335 334 332 331 329 329 328 327 326 326 326 332 328 327 327 318 310 309 311 316 323 322 321 321 321 321 323 322 320 318 319

ECMWFNIL_sfc_thetae_024.txt.gz
Theta_e
337 335 334 335 334 335 335 333 332 332 332 333 331 332 333 336 337 336 336 335 337 336 336 335 338 340 343 338 338 338 337 334 335 334 333 334 332 331 332 330 329 329
336 338 341 336 339 339 333 332 334 332 332 333 333 332 334 336 337 337 335 337 339 337 335 336 336 337 337 338 336 334 332 333 332 339 334 332 332 330 331 331 331 331
336 338 338 335 334 334 333 333 335 333 332 331 331 332 336 339 335 335 335 335 334 334 335 335 334 336 336 335 336 336 335 331 332 334 335 333 332 332 332 332 331 331
336 337 335 333 332 332 332 334 334 332 331 331 331 334 337 339 336 335 334 343 334 334 335 334 335 334 334 335 335 334 334 333 334 333 333 332 335 334 333 331 333 332
336 335 334 333 332 334 334 333 333 331 330 330 330 333 337 334 334 333 334 333 334 334 333 334 333 334 335 334 334 333 334 334 334 333 331 331 332 334 334 333 330 330
336 336 335 334 334 334 333 331 331 330 330 329 331 336 334 335 334 334 333 331 333 334 333 332 331 333 334 333 333 333 333 334 333 333 332 331 332 331 334 332 329 329
336 335 334 335 334 333 332 331 331 334 330 330 331 330 333 333 332 331 330 331 332 333 331 331 331 332 333 332 331 332 332 333 332 332 332 331 331 330 331 331 330 328
337 335 335 335 334 333 333 332 332 333 333 331 330 331 332 333 331 331 331 332 332 331 332 331 332 332 333 332 332 331 332 335 334 331 329 330 327 327 328 330 329 326
337 335 335 334 333 333 333 333 333 333 334 333 332 332 332 332 332 331 332 332 331 331 331 331 332 332 333 333 332 331 331 331 333 330 329 329 327 327 327 327 326 327
336 336 335 334 333 334 333 334 335 335 335 333 332 332 332 333 334 333 332 332 331 331 330 330 331 332 333 333 333 332 331 331 330 329 329 329 329 328 327 326 327 326
336 335 335 334 334 335 334 335 335 335 334 333 332 331 332 331 332 333 332 331 332 330 330 331 331 332 333 333 333 333 332 331 330 329 327 327 328 328 331 328 327 327
336 336 335 335 335 335 335 335 334 333 330 332 331 329 328 328 328 329 332 329 329 330 330 330 331 331 332 333 333 333 332 330 330 328 326 326 326 326 326 327 327 326
337 337 336 336 336 334 333 333 332 331 329 327 330 328 328 326 326 325 329 328 329 329 330 330 330 330 331 332 332 332 331 329 327 326 326 326 326 327 327 327 327 327
337 337 336 335 335 334 332 331 331 329 327 328 331 328 327 326 326 326 325 329 327 326 327 328 327 326 326 328 331 332 331 329 328 327 327 326 326 327 327 328 327 327
338 337 336 335 335 332 331 331 330 329 328 329 331 329 332 328 327 327 325 327 326 326 326 327 328 328 328 328 331 332 331 330 328 328 327 326 326 326 326 326 326 326
337 337 335 334 333 332 331 331 330 329 328 328 329 329 329 330 328 327 326 325 325 325 325 328 329 330 334 333 334 334 330 330 329 328 328 327 328 326 325 325 325 325
335 335 335 333 333 332 330 330 329 329 329 328 328 328 329 329 330 327 328 327 326 325 325 328 328 329 330 328 330 332 332 329 329 329 329 328 327 325 324 325 324 324
336 335 334 333 332 331 330 329 328 328 328 328 328 328 329 330 329 328 327 326 327 327 326 326 327 331 325 325 328 328 331 332 330 330 330 328 327 325 324 324 324 324
336 334 333 332 331 331 330 329 329 328 328 328 328 329 329 329 329 329 328 328 328 327 327 327 327 329 324 324 324 325 327 330 328 328 328 327 326 325 324 324 324 324
335 334 332 331 331 330 330 329 329 329 329 329 330 330 330 329 329 329 329 328 328 327 327 327 327 328 324 322 321 322 323 327 327 326 326 326 326 325 325 325 324 324
332 331 331 330 330 329 329 329 329 329 329 329 330 329 329 329 329 328 329 329 329 329 328 327 328 325 320 320 318 317 319 325 324 326 326 325 325 326 325 325 325 325
331 330 330 329 329 329 329 328 328 329 329 329 330 329 330 330 330 329 329 329 329 329 328 326 326 323 319 318 317 316 321 325 323 323 323 324 324 325 325 325 325 325
331 330 330 329 329 329 329 329 329 329 329 330 330 330 329 329 329 329 330 329 329 328 327 326 326 323 316 315 315 316 319 322 321 323 323 323 323 324 325 325 325 325
332 332 331 331 330 330 330 330 330 328 329 332 331 330 330 330 329 328 328 329 328 327 327 326 326 323 314 312 313 315 321 321 322 322 322 322 323 323 324 323 324 331
334 333 332 331 331 331 332 330 329 330 332 333 333 333 332 332 332 330 328 328 328 328 332 330 326 322 311 311 312 313 320 323 324 323 320 321 321 321 320 320 319 322
335 334 333 332 332 332 331 331 332 331 331 331 332 333 331 329 329 327 326 326 327 326 327 330 327 325 317 309 308 310 316 324 323 321 321 319 316 318 319 316 314 315

ECMWFNIL_sfc_thetae_027.txt.gz
Theta_e
333 334 332 332 330 331 331 331 332 332 331 330 330 329 330 334 333 332 333 332 333 332 332 332 334 336 338 335 335 335 334 332 333 330 329 330 329 327 330 328 326 328
334 336 338 333 333 336 333 333 332 331 331 330 331 330 330 331 333 334 333 332 333 335 333 332 332 334 334 335 334 333 332 331 331 335 330 329 331 327 329 328 328 328
334 335 335 332 332 333 333 332 333 331 331 331 331 331 331 334 333 333 332 332 333 334 333 332 331 333 334 333 333 334 334 329 330 330 332 331 330 329 330 330 328 329
334 334 334 333 333 333 331 332 331 331 331 331 331 332 333 336 335 333 332 340 333 332 332 331 333 332 332 332 332 332 333 332 332 330 330 331 332 331 331 330 332 330
334 334 334 332 333 333 331 331 331 331 331 331 330 330 336 334 334 332 332 332 334 332 331 332 331 332 332 331 331 331 332 332 332 331 330 330 330 331 332 330 328 328
335 335 334 332 332 331 330 330 331 331 330 328 328 332 332 332 333 332 332 331 331 332 331 331 330 331 331 331 330 331 331 332 332 330 330 330 330 329 332 332 330 328
334 334 333 332 331 331 331 330 331 333 330 330 329 330 332 331 331 331 331 331 330 331 330 330 329 329 330 329 328 329 329 330 329 328 329 329 330 329 328 329 329 328
335 334 333 332 331 331 331 330 330 331 330 329 328 329 330 331 331 331 331 330 329 328 329 330 329 329 329 329 330 329 329 331 331 329 328 329 327 327 326 327 327 325
335 334 333 332 331 331 331 330 330 330 331 330 329 329 330 330 330 329 329 329 328 329 329 329 329 329 329 329 329 329 329 329 331 329 329 328 327 327 327 325 323 325
335 334 333 332 331 331 330 330 331 331 333 331 331 330 329 331 330 329 329 328 328 329 329 329 329 329 329 330 330 330 329 329 328 328 329 328 328 328 327 325 325 323
335 334 333 332 331 331 331 331 331 332 332 332 331 330 330 329 330 330 329 329 329 329 329 328 329 329 329 329 330 330 330 330 329 328 328 328 328 328 331 326 325 324
336 334 333 332 332 331 331 332 332 332 332 334 333 331 330 329 329 329 331 329 329 329 329 328 329 329 329 329 330 331 330 330 329 329 328 327 327 326 325 325 325 324
336 335 334 333 333 332 332 332 332 333 334 332 333 331 329 328 327 326 329 329 328 327 328 328 328 328 329 329 329 329 329 329 329 328 327 327 326 325 325 324 324 324
336 336 335 334 333 333 333 333 334 334 334 332 330 328 326 326 325 324 324 327 326 326 328 328 327 327 327 327 327 328 329 329 329 329 328 326 326 325 325 325 325 325
337 336 335 334 335 333 333 333 333 333 332 329 329 328 328 326 325 325 324 325 324 325 325 326 326 326 326 326 325 326 328 329 329 329 328 327 326 325 325 325 325 325
336 336 335 334 334 333 333 333 333 332 330 328 327 327 327 327 326 326 324 325 325 324 324 325 326 327 331 329 330 328 327 329 329 328 327 326 326 326 325 325 324 323
337 336 334 333 334 334 334 333 332 330 329 327 326 326 327 328 328 326 325 324 324 324 324 325 326 328 329 326 327 330 331 328 328 328 327 326 326 325 325 326 324 322
336 336 334 334 333 333 334 333 331 329 328 327 326 326 327 328 328 327 326 326 326 325 324 325 325 330 324 324 326 327 330 331 328 327 327 326 326 326 326 325 324 323
335 335 335 334 334 333 333 332 330 329 328 327 327 327 327 327 327 326 326 326 326 325 325 326 326 327 323 323 323 324 326 329 329 328 327 327 326 326 325 324 323 323
335 336 334 334 334 333 332 330 329 329 329 328 328 327 327 326 326 326 326 326 327 326 326 326 325 327 323 322 321 322 323 326 327 327 327 327 326 325 325 324 323 322
336 334 333 333 333 333 331 330 329 329 328 328 328 327 326 326 326 326 327 328 328 328 327 326 327 324 321 321 319 319 320 324 324 326 325 324 324 324 324 324 323 323
335 333 333 333 333 331 330 330 330 329 328 328 328 327 327 328 327 327 327 328 329 328 327 326 327 323 320 320 318 318 320 323 322 322 322 323 323 323 323 323 322 322
334 333 332 332 332 330 329 330 330 329 328 328 328 327 327 327 328 328 328 328 328 328 326 326 326 324 319 316 315 317 318 321 320 321 321 321 321 322 322 322 322 322
333 333 332 331 330 329 330 330 330 329 328 330 328 328 328 328 328 328 328 328 328 327 327 326 325 323 318 315 313 316 319 320 320 319 319 320 321 321 321 320 321 330
333 332 331 330 330 330 330 330 329 329 329 330 330 329 328 327 330 328 327 326 327 327 330 329 325 323 319 316 314 314 318 320 320 319 319 319 320 321 318 318 316 322
332 332 331 330 329 330 330 330 330 329 329 329 329 329 329 329 328 328 326 326 326 327 327 326 325 325 326 316 311 311 314 321 320 319 320 320 319 320 318 314 313 312

ECMWFNIL_sfc_thetae_030.txt.gz
Theta_e
337 337 336 334 333 333 333 333 333 333 333 333 333 334 334 337 337 337 338 337 338 337 337 337 339 342 344 341 342 341 341 339 339 337 336 337 336 335 335 334 333 334
334 337 339 335 334 336 333 335 334 334 333 333 334 334 333 337 336 337 336 336 339 340 337 337 338 339 339 341 340 339 339 339 339 340 337 336 337 335 335 335 335 335
334 335 336 333 333 333 332 334 335 334 334 334 334 334 333 337 336 337 336 336 336 337 338 337 336 337 339 339 339 339 339 337 337 337 339 337 336 336 337 336 335 335
334 335 335 334 333 333 333 334 334 334 334 334 333 334 335 336 336 336 336 341 336 336 337 336 336 336 337 337 337 337 337 337 337 337 336 337 337 337 336 336 336 336
334 334 335 334 334 335 334 333 333 333 333 334 334 335 337 336 336 335 335 336 337 336 335 336 335 335 336 336 336 336 336 337 337 336 335 335 336 337 337 336 336 336
335 335 335 334 334 334 333 333 333 333 333 332 333 336 335 335 336 336 335 335 335 336 335 335 334 335 335 336 335 335 336 336 336 336 335 335 336 336 336 337 336 335
334 335 335 335 334 334 333 333 333 335 333 334 334 333 334 334 334 335 335 336 335 336 336 335 334 334 334 335 334 335 335 335 335 335 334 335 335 335 335 335 336 335
335 335 335 334 334 333 333 332 332 334 334 334 332 333 333 333 333 334 335 334 334 334 334 334 334 334 333 334 334 334 334 334 334 334 333 334 334 334 335 334 335 334
336 335 335 333 333 332 332 332 332 333 334 333 332 332 333 333 333 333 334 334 333 334 333 333 333 333 333 333 333 333 333 334 335 335 334 334 333 333 333 333 331 332
336 335 334 333 332 332 332 332 332 332 334 333 332 332 332 333 334 333 333 333 332 333 332 332 332 332 333 333 333 333 333 333 334 334 334 334 334 334 333 332 332 331
335 335 334 333 333 332 332 332 332 332 333 333 332 332 332 333 334 334 332 331 331 332 332 332 332 333 332 333 333 334 334 333 334 334 333 333 334 334 334 334 332 331
336 335 334 334 333 332 332 332 332 332 332 334 333 332 333 332 332 332 333 332 332 332 332 332 332 332 332 333 333 334 334 334 334 334 334 333 333 333 333 333 332 332
336 335 335 334 334 333 333 333 332 332 332 332 334 333 332 332 332 332 334 334 333 333 333 332 333 333 332 333 333 333 333 333 333 333 333 333 333 333 332 331 330 330
336 337 336 336 335 334 333 332 333 333 333 334 335 333 332 332 332 332 332 333 333 332 332 333 332 331 331 332 333 333 333 333 333 333 333 333 333 333 332 331 331 330
336 337 336 336 335 333 332 332 332 333 334 334 334 333 334 333 333 332 330 329 330 330 330 331 331 331 331 331 331 331 332 333 333 333 333 333 332 332 331 330 330 330
337 337 336 335 334 332 332 333 333 333 334 333 331 330 331 332 331 330 328 328 328 328 328 329 330 330 331 329 330 332 331 332 332 332 332 332 332 332 331 331 330 330
336 336 336 334 334 333 333 333 333 334 334 333 331 329 329 330 331 329 328 328 328 328 328 328 328 329 328 325 326 328 331 331 331 332 332 332 331 331 331 332 331 331
335 335 335 334 334 334 333 333 334 333 333 332 331 329 330 330 329 329 328 328 328 328 328 329 328 329 323 323 325 326 329 333 332 332 332 331 331 331 331 331 331 330
334 333 334 334 334 334 334 333 334 333 333 331 329 330 330 329 329 329 328 328 328 328 327 328 329 327 323 323 323 324 325 329 333 333 331 331 331 331 331 331 331 330
334 333 333 334 335 335 334 334 334 333 333 331 331 330 329 329 329 329 329 329 329 329 329 329 329 327 322 321 321 321 323 326 330 331 331 331 331 331 331 331 330 330
334 333 332 334 335 335 334 333 333 333 332 331 331 330 329 328 328 328 329 330 329 330 329 329 330 324 320 320 318 318 320 324 329 329 330 330 331 331 331 331 331 329
332 332 331 332 335 334 333 332 331 332 331 331 331 330 330 330 330 329 329 329 330 330 329 330 331 323 320 319 317 317 320 326 328 327 328 328 329 330 330 330 330 329
333 331 329 331 334 334 333 333 332 332 332 331 330 329 329 328 329 329 330 330 330 330 329 330 331 325 318 316 316 317 319 326 327 327 327 327 327 328 329 328 328 328
334 333 332 333 333 333 333 332 332 332 332 332 330 329 328 329 329 329 330 330 330 330 330 330 330 326 317 314 313 315 321 326 326 326 326 325 326 327 327 326 327 327
336 335 334 333 333 333 332 331 331 332 333 332 331 331 331 331 331 330 330 330 330 330 332 332 330 326 318 314 313 313 319 326 326 326 325 324 324 324 324 322 320 326
337 336 335 334 333 334 333 332 332 332 331 331 331 331 331 331 332 331 329 330 331 331 331 332 331 330 329 318 314 313 314 325 325 324 324 324 324 322 322 322 322 321

ECMWFNIL_sfc_thetae_033.txt.gz
Theta_e
361 361 358 356 354 353 352 350 350 349 350 348 347 347 347 349 350 350 349 349 349 348 349 349 349 348 348 349 350 349 347 346 346 345 346 345 344 343 342 342 344 342
360 359 358 357 355 353 352 351 350 350 350 350 349 350 351 351 350 349 349 347 348 347 348 347 348 348 348 347 349 347 347 346 345 346 345 345 344 344 342 342 341 342
359 358 357 355 352 351 349 350 351 350 349 349 350 351 349 351 350 351 350 347 347 346 348 348 348 348 347 347 348 347 346 345 344 344 345 343 343 343 343 342 341 341
358 357 356 355 353 351 350 349 350 350 350 349 348 348 349 349 350 350 350 349 348 348 347 347 346 346 347 347 348 346 346 346 345 345 344 345 344 343 342 343 342 342
356 355 355 354 353 352 350 348 347 347 347 348 348 350 350 350 349 348 348 348 349 347 348 347 347 346 348 347 348 345 345 344 345 347 345 343 344 344 342 342 342 340
355 355 354 353 352 350 347 347 348 347 347 347 348 348 347 349 348 346 346 345 344 344 344 344 346 345 346 346 347 345 344 343 343 346 344 342 341 343 342 343 342 340
353 353 352 351 349 349 348 348 348 349 348 348 350 348 349 347 348 347 346 345 344 345 345 345 346 345 347 347 346 345 346 345 344 346 344 342 343 343 344 344 342 341
353 352 350 349 347 347 348 348 348 348 349 349 348 349 350 347 347 346 347 347 344 347 348 347 348 348 346 347 345 344 343 344 344 345 344 343 344 343 342 343 343 341
353 350 348 345 344 344 343 344 345 347 348 347 346 346 348 347 346 346 347 348 346 347 348 348 349 348 348 347 345 345 343 342 342 343 342 341 340 341 341 342 342 341
349 345 343 342 340 341 340 341 341 344 346 346 345 344 344 346 346 346 346 346 345 345 346 347 347 347 346 347 346 345 344 343 344 344 343 342 341 341 340 341 340 339
344 343 340 339 338 338 339 339 339 340 342 342 343 342 343 343 343 344 345 344 342 343 345 345 345 346 346 345 345 344 344 343 343 343 343 343 343 342 341 341 340 339
340 338 336 336 337 337 338 339 339 341 340 340 341 340 340 340 342 342 342 343 343 343 345 345 346 346 346 344 343 344 344 343 342 343 342 343 343 343 342 342 341 340
337 336 336 336 337 338 338 338 338 338 338 337 339 338 338 337 339 341 342 342 343 342 342 344 344 344 345 345 344 344 344 343 342 343 343 343 343 342 342 342 341 341
339 339 338 339 340 341 340 338 337 338 338 339 340 338 336 337 338 339 340 341 342 342 343 344 345 345 345 345 345 345 344 344 344 344 343 343 343 343 342 341 341 340
342 343 342 343 342 343 342 340 337 337 339 339 339 338 338 338 339 339 340 340 341 342 343 344 344 344 345 345 345 345 345 344 345 344 343 342 342 340 341 342 341 340
343 344 344 342 341 339 338 337 336 337 339 339 339 339 340 340 340 340 339 339 340 341 343 344 343 344 338 331 333 344 346 344 343 343 342 341 340 339 338 340 340 340
343 343 340 337 336 336 336 336 336 339 340 340 340 340 339 340 340 338 337 338 339 339 341 341 342 342 331 326 327 329 340 343 342 342 342 341 340 339 338 337 338 342
343 343 341 339 338 337 338 339 339 340 341 340 340 340 340 339 338 338 338 338 337 338 338 340 341 334 325 324 325 326 329 340 340 339 339 339 339 338 339 339 338 339
344 343 342 343 342 342 342 341 341 340 341 340 340 342 341 337 336 336 336 337 337 338 338 339 340 331 323 322 323 323 324 330 339 340 339 338 339 339 339 340 340 340
344 343 343 343 342 342 342 341 340 340 341 341 342 343 341 339 337 336 337 338 338 338 339 340 341 332 322 320 320 320 322 326 337 339 340 339 339 340 340 340 340 340
344 343 342 340 338 339 340 340 340 341 342 343 343 342 341 340 339 339 339 339 339 339 340 340 342 327 321 319 317 317 319 323 335 338 338 340 340 341 341 341 341 341
344 343 341 339 337 337 338 338 339 340 341 344 344 343 342 341 340 339 339 339 340 340 339 339 340 325 320 319 317 317 319 330 336 337 337 338 339 340 341 342 342 341
343 341 340 339 338 338 339 339 340 341 343 344 342 342 340 339 339 339 340 339 339 340 340 340 341 331 318 316 316 317 320 333 336 337 338 338 339 340 340 341 340 339
343 341 340 338 337 336 337 339 341 343 343 344 342 341 340 340 340 340 341 341 339 340 339 340 340 333 319 314 314 316 322 334 337 338 338 338 335 334 335 334 334 331
343 342 339 337 336 336 337 339 340 342 343 343 341 342 342 343 341 341 340 342 341 341 335 337 339 334 320 316 314 314 323 334 335 336 335 335 334 333 334 334 334 330
343 343 341 340 339 338 339 341 343 343 342 341 341 341 341 342 342 341 340 341 341 340 339 338 338 340 338 315 312 312 316 334 336 334 332 333 333 332 333 334 333 333

ECMWFNIL_sfc_thetae_036.txt.gz
Theta_e
370 369 367 365 364 363 363 363 362 361 360 357 354 355 351 353 352 351 350 351 352 350 350 351 351 350 351 351 351 350 349 350 348 347 347 346 344 344 342 342 343 342
370 370 369 368 366 365 364 364 363 362 361 360 357 355 354 354 352 351 350 350 352 350 351 350 351 351 352 350 351 349 349 348 347 347 346 346 345 345 343 343 342 343
371 370 370 368 365 365 364 365 365 363 360 359 358 357 355 355 354 352 352 351 351 349 350 351 351 352 350 350 351 349 347 348 346 345 346 346 344 345 344 342 342 341
371 371 370 368 366 366 366 365 364 364 362 358 357 356 355 354 353 352 351 351 350 349 349 350 349 350 349 349 350 347 348 348 347 347 345 346 345 344 343 343 342 341
371 370 370 368 367 368 367 364 362 362 361 359 359 357 355 354 352 351 350 350 350 349 348 349 349 348 349 349 350 347 346 345 346 346 345 343 345 344 342 342 342 340
372 371 370 368 368 367 364 363 362 361 360 358 358 355 353 353 350 348 349 349 348 346 345 347 347 346 347 348 348 346 345 343 344 346 344 344 342 342 341 342 341 340
370 369 368 367 367 366 365 364 363 362 359 358 357 353 352 350 349 348 350 349 347 347 345 346 347 346 346 346 346 346 345 346 345 345 344 343 343 342 341 341 341 340
368 368 367 366 365 365 363 362 362 360 359 357 354 354 352 347 348 348 349 348 346 345 346 346 346 347 345 345 345 344 345 344 343 343 343 343 342 342 341 340 341 341
366 364 363 360 361 361 359 360 359 360 358 356 353 350 351 348 347 348 349 350 348 345 346 347 347 348 346 345 344 344 344 343 342 343 343 342 341 341 341 341 340 340
364 363 360 358 357 358 357 358 358 359 358 355 352 347 349 349 348 349 349 350 348 346 346 347 347 347 346 345 346 346 344 343 344 344 343 342 341 341 340 340 340 340
363 361 359 358 357 356 357 356 355 355 355 352 350 346 349 350 350 350 349 349 346 345 345 345 345 346 345 344 345 345 345 344 344 345 344 343 342 342 341 341 340 340
362 360 359 358 357 356 355 355 354 351 349 347 348 346 346 346 348 348 348 348 347 345 345 345 345 346 345 345 344 344 345 345 344 344 343 344 343 342 342 342 341 341
362 360 358 356 355 355 355 353 350 347 346 345 345 344 344 344 345 346 347 347 347 346 344 344 345 345 346 347 346 345 345 345 344 343 344 344 344 342 341 340 340 341
362 360 358 356 355 356 355 354 352 350 348 347 346 344 344 343 343 345 346 346 346 347 346 345 345 345 347 347 345 345 345 345 346 345 343 342 343 343 341 339 340 340
360 359 359 359 357 358 357 356 354 353 350 349 348 346 344 342 342 343 345 347 347 347 346 345 344 345 345 344 345 346 346 345 345 345 344 342 341 340 340 341 340 339
356 358 358 358 356 355 356 356 354 351 349 348 348 345 346 346 345 343 343 346 346 346 346 345 345 345 341 335 338 345 346 346 345 344 344 342 341 340 339 339 339 339
355 355 356 356 356 356 356 356 354 352 350 350 349 347 347 348 347 345 343 345 345 344 344 344 344 344 335 330 330 332 342 343 343 343 344 343 341 340 340 339 338 338
355 353 353 356 357 357 356 356 355 353 351 351 350 349 349 349 347 347 347 346 345 343 343 344 344 338 329 328 329 328 331 343 341 340 341 341 341 340 339 339 339 338
355 353 352 353 357 357 355 354 354 352 350 349 349 350 349 349 347 347 349 348 346 345 343 343 344 335 326 326 326 325 325 332 340 339 339 340 340 340 340 339 339 338
355 353 352 352 355 357 355 354 353 352 350 348 348 350 348 348 346 346 348 348 346 346 344 344 344 333 324 323 322 322 323 328 340 339 340 340 341 340 340 340 339 338
352 352 351 352 353 356 355 353 352 352 350 347 346 346 347 347 345 348 348 347 346 345 345 345 346 327 320 320 319 318 320 325 339 340 340 341 341 342 342 341 341 340
352 352 351 352 352 353 354 352 351 350 348 347 347 347 346 346 348 347 347 346 346 346 343 343 343 324 321 320 318 317 320 334 338 339 339 341 341 342 342 342 342 342
351 351 351 352 352 352 351 351 349 349 347 346 342 340 342 344 345 343 346 345 344 345 345 344 345 333 320 318 317 316 321 337 338 339 340 341 342 341 341 343 344 346
352 351 351 351 351 352 352 351 351 350 347 346 341 341 341 341 344 346 348 346 343 344 342 343 345 333 316 315 314 315 326 338 340 341 342 343 342 343 343 342 342 341
352 352 352 351 351 352 352 351 350 348 347 347 345 343 341 345 344 342 344 346 344 343 346 344 344 334 314 314 313 314 326 339 340 342 341 341 340 340 341 341 342 340
353 353 352 352 352 353 351 349 348 345 344 344 343 340 338 342 342 341 343 343 344 343 342 344 344 346 345 312 312 312 318 340 342 340 339 339 340 338 337 340 341 343

ECMWFNIL_sfc_thetae_042.txt.gz
Theta_e
368 369 367 366 366 365 365 365 364 364 363 361 360 358 356 357 360 356 354 354 353 352 354 354 355 354 353 353 353 354 353 349 350 352 351 351 351 348 346 346 348 348
368 368 367 367 366 366 367 366 365 364 364 363 360 360 360 357 358 358 355 353 353 351 353 353 354 354 353 351 352 349 351 351 349 349 349 348 350 348 345 348 346 348
367 367 367 366 365 365 362 365 366 365 364 363 362 362 358 359 356 358 356 354 351 348 352 353 353 353 352 352 351 349 349 350 347 346 350 348 349 348 349 346 347 345
367 367 366 365 365 365 364 364 365 365 364 363 361 361 357 356 356 355 356 356 352 350 350 350 351 350 351 351 351 348 348 349 349 349 351 349 349 349 347 348 349 347
367 367 366 366 366 366 365 365 362 364 362 362 362 361 360 358 356 354 354 352 353 351 350 351 351 349 350 349 349 347 346 347 348 349 349 349 348 347 347 348 347 344
369 368 368 366 366 366 364 363 364 363 362 362 361 360 359 358 356 353 352 350 350 348 348 349 350 349 348 349 349 348 347 345 345 347 346 347 345 347 345 346 345 344
369 369 368 367 366 365 364 364 364 364 363 362 363 359 357 356 355 353 351 350 348 349 348 348 349 349 349 350 349 347 349 347 347 346 344 345 346 346 345 346 347 346
369 369 369 368 366 365 364 364 364 364 365 365 361 360 357 355 355 354 353 351 348 349 349 349 350 350 349 349 348 347 346 346 345 346 344 343 344 343 345 346 348 345
370 369 368 367 366 365 362 361 364 365 366 364 361 359 358 356 354 354 353 352 349 349 349 349 350 350 348 349 347 347 345 344 343 345 344 343 342 343 343 346 344 344
369 370 368 365 363 364 361 360 361 364 365 364 362 359 357 357 356 354 354 352 350 349 349 349 349 348 348 348 347 347 346 344 343 343 345 343 342 342 342 343 343 343
368 368 368 367 364 364 363 360 361 362 363 362 361 358 358 357 356 355 354 352 350 350 348 348 349 348 347 345 347 347 346 344 344 344 343 343 343 343 345 344 343 342
367 367 367 366 365 363 363 361 360 362 362 361 360 359 358 356 356 354 352 350 349 349 348 347 348 348 347 345 346 346 345 344 344 345 343 344 344 344 344 345 344 345
367 367 367 367 366 365 365 363 360 360 361 360 360 359 358 355 354 353 351 350 349 349 349 346 346 348 347 346 345 345 345 344 343 344 344 343 344 343 343 344 344 344
368 368 368 368 367 367 366 364 361 361 362 363 361 360 358 356 353 352 350 350 348 348 348 346 346 347 348 347 346 345 345 345 344 343 342 342 343 344 343 342 343 343
369 369 369 369 369 368 366 365 364 363 364 364 362 360 358 356 355 351 349 348 348 348 346 346 346 346 347 346 345 345 344 343 344 344 342 342 341 341 342 342 342 342
371 371 370 371 369 367 367 366 365 364 363 363 361 359 358 356 354 351 349 347 347 347 346 345 345 346 342 335 338 345 345 344 344 343 343 343 343 342 341 343 342 341
372 372 372 370 369 368 368 367 365 364 363 363 362 360 357 356 353 348 347 346 346 346 345 345 346 346 334 330 333 337 343 344 343 344 344 344 344 344 343 342 341 342
373 373 372 371 369 368 368 367 365 364 364 364 363 360 359 356 351 348 347 346 346 346 345 345 346 337 328 328 331 332 338 344 343 343 342 343 343 343 343 343 343 342
374 372 370 369 368 368 368 367 366 364 364 363 361 361 360 355 351 348 346 346 346 346 344 345 345 332 326 326 328 329 332 340 343 342 341 341 342 343 343 343 343 343
372 370 369 368 368 367 367 366 365 364 364 363 361 361 358 354 350 348 348 348 347 347 345 346 346 328 325 324 326 326 327 333 344 343 342 342 342 341 341 343 343 343
370 369 368 367 367 366 365 365 364 365 364 362 360 358 354 351 348 346 347 348 347 346 345 346 347 324 322 322 322 322 323 328 341 342 341 342 340 341 346 348 347 345
369 368 367 366 365 365 364 363 363 364 362 361 359 357 355 352 350 347 347 347 347 345 344 347 345 320 321 320 319 319 322 336 339 339 340 338 340 347 344 342 343 342
368 366 365 364 363 361 360 360 362 363 363 363 360 357 354 350 349 348 348 346 346 349 347 346 339 322 318 316 317 320 324 337 340 340 341 340 346 343 345 344 343 343
367 364 363 362 360 359 358 358 359 362 363 363 360 356 353 351 351 349 349 348 345 347 345 346 339 323 317 315 318 318 327 338 341 341 340 341 345 345 345 345 343 342
365 364 361 359 359 357 356 356 357 359 361 362 360 359 356 354 350 349 349 349 347 347 345 344 340 326 316 316 315 316 327 341 342 340 341 343 344 340 336 337 338 339
363 362 360 358 359 358 357 358 358 357 358 358 358 357 356 354 351 349 346 346 345 344 345 345 340 330 324 315 315 314 321 343 344 343 342 343 341 337 335 334 337 337

ECMWFNIL_sfc_thetae_045.txt.gz
Theta_e
360 359 358 357 356 356 356 355 354 355 355 355 354 353 353 349 349 347 347 345 347 345 343 345 346 344 345 344 344 345 343 341 342 342 340 342 339 339 340 338 338 336
360 360 360 358 357 356 357 357 355 356 356 355 355 354 351 350 349 348 346 344 347 346 344 343 347 344 344 342 342 341 341 341 340 346 341 341 340 340 340 339 337 338
360 359 359 358 357 357 358 358 358 357 357 356 355 354 350 351 350 347 347 345 343 345 346 343 345 346 345 343 341 340 341 339 338 343 342 340 341 339 338 339 339 339
360 360 359 359 359 358 358 358 358 358 358 356 355 354 352 351 351 347 346 350 343 342 345 345 344 346 345 343 342 339 340 340 340 340 342 341 341 340 340 340 341 339
359 360 360 360 359 359 358 358 358 357 357 356 356 354 352 349 349 347 346 346 344 342 344 345 345 344 344 343 342 339 339 340 341 340 341 340 341 341 341 340 338 337
360 360 360 360 359 359 358 357 358 358 358 356 355 354 351 349 349 348 346 345 344 343 343 344 345 344 344 342 342 340 339 340 340 340 339 341 339 341 342 340 338 336
359 359 359 360 359 359 358 358 358 358 358 357 355 354 351 349 348 348 347 346 344 343 343 343 344 343 343 342 342 340 338 339 339 340 339 339 340 339 339 337 338 338
359 359 360 360 359 358 358 357 357 358 358 358 355 354 351 350 348 347 347 346 345 343 342 343 344 344 343 342 341 341 339 341 340 340 339 338 338 338 338 339 338 336
360 359 359 359 358 358 358 358 358 358 359 357 356 354 352 350 348 347 346 345 345 344 343 342 344 343 343 342 341 341 340 340 340 339 338 337 336 336 337 338 338 337
359 359 359 358 358 358 358 358 358 358 359 357 357 355 352 351 349 347 346 345 344 344 343 342 343 343 343 342 342 341 340 339 338 339 339 338 337 336 336 337 336 336
359 359 359 358 358 358 358 358 358 358 358 358 357 355 353 351 350 348 346 345 343 343 342 342 343 343 343 342 342 342 341 340 339 337 338 338 337 337 342 337 337 336
358 359 359 359 358 358 358 358 357 357 357 358 357 355 353 351 349 349 348 345 344 343 343 342 343 343 343 342 342 342 342 341 340 338 337 338 338 337 338 338 337 336
358 359 359 360 359 358 358 358 356 357 357 357 358 356 353 351 350 349 349 347 345 344 343 342 343 343 342 342 343 342 341 340 340 338 337 338 338 338 338 338 338 337
358 359 360 360 360 359 358 358 357 356 357 357 358 356 354 352 350 349 349 348 346 344 343 343 343 343 342 341 342 342 341 341 340 339 338 337 338 338 338 338 339 339
359 359 360 361 360 359 358 358 357 355 356 357 357 356 355 353 352 350 348 347 346 345 344 343 343 343 343 341 340 341 342 341 339 338 338 337 337 337 338 338 338 339
359 359 359 360 360 359 358 358 357 356 356 357 356 356 355 354 352 351 349 347 346 344 344 344 342 343 339 331 334 341 340 340 340 338 338 337 336 336 336 337 338 339
359 358 359 359 360 360 359 359 358 357 356 356 356 355 354 354 353 351 349 347 346 344 343 343 342 342 330 329 331 333 339 339 339 338 338 338 337 336 335 336 338 338
359 359 358 358 359 359 359 359 359 357 355 356 356 355 354 354 352 351 349 347 346 344 343 343 342 334 325 328 329 329 334 340 339 339 339 338 337 336 337 337 337 339
360 359 358 358 358 359 360 359 358 357 355 356 356 356 355 353 352 350 348 347 345 343 342 342 341 330 325 326 328 328 330 337 340 340 339 338 338 337 338 338 338 338
360 360 359 359 359 360 360 359 358 357 356 356 356 356 354 353 351 347 346 345 344 343 342 341 341 326 323 323 325 326 327 333 340 339 338 338 338 339 340 338 337 337
361 360 360 360 361 360 360 359 358 357 356 356 356 355 354 351 348 346 344 344 343 343 342 340 341 321 321 321 322 323 323 329 338 340 338 337 338 339 338 338 338 339
362 361 361 362 361 360 359 358 358 357 356 355 355 354 354 351 347 346 344 343 343 342 342 340 338 318 320 320 321 321 326 333 336 337 337 336 335 336 337 338 337 337
364 363 362 361 360 359 358 358 357 357 356 355 353 352 350 348 345 344 343 343 342 342 341 341 330 320 318 318 318 322 327 334 334 335 335 335 333 334 335 335 336 336
364 363 361 360 359 358 357 358 358 358 357 356 353 351 349 348 345 342 342 343 343 342 342 339 328 320 316 316 318 322 325 329 332 334 334 334 336 336 335 336 340 343
364 362 361 359 358 358 358 357 357 357 358 357 355 353 350 349 346 343 342 342 342 343 340 335 329 322 315 316 317 317 323 329 333 334 334 334 336 334 334 334 335 341
362 360 359 358 357 357 356 356 356 357 357 357 356 353 350 348 345 344 343 343 343 344 341 336 332 327 321 315 314 314 318 332 335 334 333 333 334 332 330 330 331 333

ECMWFNIL_sfc_thetae_048.txt.gz
Theta_e
353 353 352 353 353 353 352 351 351 351 351 352 352 352 351 351 351 350 348 347 345 342 341 341 341 338 341 341 340 339 341 339 339 339 339 338 336 335 336 334 333 332
353 354 354 354 353 354 353 353 352 352 352 352 353 353 352 351 350 350 347 345 345 342 341 341 341 339 340 341 340 337 339 339 338 341 339 337 336 336 335 335 335 333
354 354 354 353 353 353 354 354 353 353 353 353 353 353 352 351 349 349 347 344 344 342 341 341 340 340 340 341 340 339 338 338 337 340 339 337 337 336 336 337 334 334
354 354 355 355 354 354 355 354 353 353 353 352 352 353 353 351 349 347 346 348 343 342 341 340 341 340 340 339 340 338 338 338 338 340 338 338 338 337 336 336 338 336
354 355 355 356 356 355 355 354 353 353 353 353 353 353 352 350 348 346 345 344 343 343 341 340 341 341 340 339 339 336 337 338 337 339 338 337 337 338 337 337 336 335
355 356 356 356 356 355 354 354 354 353 353 353 353 353 351 351 348 346 345 343 342 342 342 340 340 342 341 340 339 337 336 337 337 337 337 337 336 338 338 337 335 335
354 355 356 357 356 356 355 355 355 354 354 354 354 353 351 350 348 346 345 344 342 341 342 341 339 340 342 340 339 337 336 336 336 337 337 337 337 337 338 337 336 334
355 356 356 357 356 356 355 355 355 355 355 355 353 353 352 349 348 347 345 344 342 340 341 341 341 339 341 340 339 337 336 337 336 337 336 336 337 336 337 337 336 334
356 356 356 356 356 356 355 355 356 356 356 355 354 353 353 350 348 347 345 344 343 341 340 340 341 340 341 340 340 338 337 336 337 336 336 335 335 336 336 336 335 334
356 357 356 356 356 356 355 356 356 356 356 355 355 354 352 351 349 347 346 344 343 341 340 340 340 341 340 340 340 339 338 337 336 336 336 336 335 335 336 335 334 333
356 357 356 356 356 356 356 356 356 356 356 356 355 353 353 351 349 347 345 344 343 341 340 340 340 341 340 340 340 340 339 338 337 336 336 336 336 335 339 335 335 334
356 356 356 355 356 356 356 356 356 356 356 356 355 354 353 351 349 347 346 344 343 342 341 340 340 341 341 340 340 340 339 339 338 337 337 336 336 335 336 335 335 335
355 356 356 356 356 356 356 356 356 356 356 356 356 355 353 351 349 347 346 345 344 343 342 341 341 341 341 340 340 340 339 338 338 338 337 337 337 336 336 336 335 335
356 356 356 356 356 356 356 356 356 356 355 356 356 355 354 352 350 348 346 345 344 343 343 342 341 341 341 340 340 340 340 339 338 337 337 336 336 336 336 336 336 336
356 356 357 357 356 356 355 355 355 355 355 355 355 355 355 354 352 350 347 345 344 343 342 342 342 341 341 341 340 340 340 339 338 338 337 336 335 336 336 336 336 337
356 356 356 356 356 355 355 355 355 355 355 354 354 355 355 354 353 350 348 346 344 343 342 342 342 342 338 329 332 340 340 339 339 338 338 337 335 335 336 336 336 337
356 356 356 355 355 355 355 355 354 354 354 353 354 354 354 354 353 350 348 347 346 344 342 342 342 342 331 327 328 332 338 338 338 338 338 336 335 335 334 335 335 336
356 356 355 355 355 355 355 355 355 354 353 352 353 353 353 354 352 350 349 348 347 345 343 342 342 334 328 326 327 328 333 339 339 338 338 336 336 335 335 334 334 335
357 356 355 355 355 355 356 355 354 354 353 352 352 353 353 352 352 351 349 348 347 345 344 344 343 333 327 324 324 328 333 336 339 338 337 337 336 335 334 333 333 334
357 356 355 355 355 355 356 355 354 354 354 353 353 353 352 352 352 351 350 348 347 346 345 344 343 332 324 321 322 327 331 334 338 337 337 336 336 335 335 334 334 334
357 356 355 355 355 355 355 355 354 354 354 353 353 352 352 351 351 350 350 349 348 347 345 344 344 328 320 319 320 324 327 331 338 338 337 336 336 336 335 335 335 336
357 356 356 355 355 355 354 354 355 354 354 354 353 353 353 353 352 351 350 349 348 347 345 343 344 321 318 317 319 321 324 335 337 336 336 336 336 336 336 336 336 336
358 357 356 355 355 354 354 354 354 354 355 355 353 353 353 352 352 351 350 349 347 346 344 343 339 320 316 315 317 319 323 336 336 335 335 334 334 335 336 337 337 335
358 357 356 355 355 354 354 355 355 356 355 355 353 353 352 353 352 351 349 348 346 345 345 343 335 319 313 314 316 318 326 335 335 334 333 334 333 332 334 335 336 344
358 358 357 356 355 355 355 355 355 355 356 355 355 354 353 353 351 349 346 345 345 345 338 341 335 321 312 314 316 317 326 336 334 333 332 332 332 331 330 333 334 343
358 358 357 357 356 356 356 356 356 356 355 355 354 354 352 350 347 346 344 343 343 344 342 341 336 328 320 314 315 315 321 336 333 330 328 329 331 331 330 330 333 336

ECMWFNIL_sfc_thetae_051.txt.gz
Theta_e
351 350 350 349 349 350 349 349 350 349 349 351 352 353 353 354 354 352 351 350 348 346 344 341 341 337 338 338 338 338 338 337 337 336 334 336 332 331 331 329 329 329
351 351 351 351 350 350 350 350 350 350 349 350 352 353 354 354 353 352 351 349 349 346 343 341 340 337 336 337 336 336 337 337 336 339 335 335 334 332 332 332 332 329
351 350 350 350 350 350 350 350 350 350 350 350 352 353 353 353 352 352 351 349 348 346 342 341 339 338 336 337 336 336 337 336 336 337 337 335 334 334 333 333 331 330
351 351 350 350 351 350 351 350 350 350 350 350 350 352 353 353 352 351 350 352 347 346 342 340 340 339 337 336 337 335 335 337 337 337 337 336 336 335 334 333 334 332
351 351 351 351 351 351 352 351 350 350 350 350 351 351 352 351 350 350 349 348 347 345 342 340 339 339 338 337 337 335 335 335 336 336 336 335 335 336 335 335 334 333
351 352 352 351 351 351 351 351 351 351 350 350 350 352 351 351 350 349 348 347 346 345 343 340 339 339 338 337 337 336 336 335 335 336 336 335 335 336 337 335 333 333
350 351 351 352 351 351 351 351 352 352 351 351 351 351 351 351 350 349 348 347 345 344 343 340 339 339 338 337 336 336 335 336 335 335 336 335 335 335 336 334 334 333
350 351 352 352 351 351 351 351 352 352 352 352 351 351 351 350 350 349 348 347 345 343 343 341 339 339 339 338 336 336 334 336 335 334 335 335 335 334 335 335 334 332
350 351 351 351 351 351 351 352 352 352 353 352 351 351 351 351 350 348 347 346 345 343 342 341 340 339 339 339 337 336 335 334 335 334 334 334 334 335 335 335 334 333
350 351 351 351 351 352 352 352 352 353 354 352 352 352 351 351 350 349 347 345 344 343 341 341 340 339 338 339 338 337 336 335 334 334 334 334 335 335 335 335 335 333
350 350 350 351 351 352 352 353 353 353 353 353 352 352 351 351 350 349 347 345 344 343 341 340 340 339 338 338 339 339 337 336 335 334 334 334 335 335 339 335 335 334
351 350 350 351 352 352 353 353 354 353 353 353 353 352 352 351 350 348 347 345 345 344 342 340 340 340 339 339 339 339 338 337 336 335 334 334 335 335 336 336 336 335
351 351 351 351 352 352 353 353 353 354 353 353 354 353 352 351 350 348 348 347 345 344 343 342 340 340 339 339 339 338 338 337 336 335 335 335 335 335 335 336 336 335
352 352 353 353 353 353 353 353 354 354 354 354 354 353 353 352 351 349 348 347 346 345 344 343 341 340 339 339 339 339 338 337 337 336 336 335 335 335 335 335 336 336
352 353 354 354 354 353 353 353 353 353 354 354 354 353 354 353 352 351 348 346 346 345 344 343 342 341 340 339 339 338 338 337 337 337 336 335 335 335 335 335 335 336
352 353 353 354 354 353 353 353 353 353 353 353 353 354 353 353 352 351 350 347 345 344 344 343 343 342 336 328 331 339 338 338 338 337 336 336 336 335 335 335 335 335
352 353 353 353 353 353 353 353 353 353 353 353 353 353 353 353 353 351 349 348 346 345 343 343 343 342 330 326 328 331 338 338 338 337 337 337 336 335 335 335 335 335
353 353 353 353 353 353 353 353 353 353 352 352 352 352 352 353 352 351 350 349 348 346 344 343 343 333 326 325 327 327 332 340 338 337 338 337 336 336 335 335 335 334
353 353 353 353 353 353 353 353 353 352 352 351 351 352 352 352 351 351 350 349 348 346 345 344 343 331 325 324 325 325 328 335 339 339 338 337 337 336 335 334 333 333
353 353 352 353 353 353 353 353 352 352 352 352 352 352 351 351 351 351 351 350 349 347 346 345 344 329 323 322 322 323 326 334 339 338 338 337 337 336 335 333 332 332
353 353 353 353 353 353 353 352 352 352 351 352 351 351 350 350 350 350 351 350 350 349 347 346 346 326 320 320 320 320 324 329 340 338 337 336 337 336 335 334 333 333
354 353 353 353 353 353 352 352 352 351 351 351 351 351 351 351 351 351 350 350 350 349 348 346 346 322 319 319 318 318 324 336 338 337 336 336 335 335 335 334 334 334
354 354 353 353 353 352 352 352 351 351 352 352 350 350 349 349 349 350 351 350 350 349 347 347 346 325 318 316 316 317 324 338 337 336 335 335 335 334 334 334 334 334
354 354 353 353 353 352 352 352 353 353 352 352 351 350 349 349 350 350 350 350 349 349 348 347 346 326 314 314 314 316 325 337 337 336 336 335 334 334 334 334 336 342
354 354 354 353 353 353 353 352 352 352 353 353 352 352 351 351 350 350 349 350 350 349 339 344 347 328 313 313 313 315 329 336 336 336 334 334 333 332 332 333 333 341
353 354 354 354 353 353 354 353 354 353 353 353 352 352 351 351 350 350 349 349 349 349 348 346 345 331 320 312 312 314 324 336 337 335 333 332 332 331 330 330 331 335

ECMWFNIL_sfc_thetae_054.txt.gz
Theta_e
351 351 350 350 350 350 350 350 351 350 351 352 353 354 355 356 358 357 357 356 355 353 350 348 347 344 342 342 343 342 341 340 340 339 339 340 339 337 335 333 333 335
351 351 351 351 350 351 351 352 351 351 351 352 353 355 356 357 357 357 356 355 355 353 351 348 347 344 342 341 341 341 341 340 340 341 339 339 339 337 336 335 335 334
351 350 350 350 349 350 350 351 352 352 352 352 353 355 355 357 356 357 356 355 354 353 351 349 346 345 342 341 341 341 341 340 340 341 340 339 339 337 337 336 336 336
351 351 350 350 350 350 351 350 351 351 352 351 351 354 355 356 356 356 355 356 354 353 351 348 346 345 343 342 341 340 341 340 340 341 341 340 340 339 338 338 339 337
350 350 351 351 351 351 351 350 350 350 351 351 352 353 354 355 355 355 354 354 353 352 350 347 346 345 343 341 341 339 339 340 340 341 341 340 340 340 339 339 339 338
351 351 351 351 351 351 350 350 350 350 350 351 351 352 353 354 354 354 354 353 353 352 349 347 345 344 343 341 340 339 339 339 340 340 340 340 339 340 339 339 339 338
350 351 351 351 351 351 350 350 351 351 351 351 352 351 353 353 353 353 353 353 352 352 350 347 345 344 343 341 340 339 338 338 339 339 339 339 340 339 340 339 339 339
350 351 351 351 351 351 351 351 351 351 351 352 351 351 352 352 353 353 353 352 352 351 350 348 346 344 343 342 340 339 338 338 338 339 338 339 339 339 339 339 339 338
350 350 351 351 350 350 350 351 351 352 352 351 351 351 352 352 352 352 352 352 351 350 350 348 346 345 343 342 340 340 339 338 338 338 338 338 338 338 338 339 338 338
350 350 350 350 350 350 350 351 351 352 353 352 351 352 351 352 353 352 352 351 350 350 349 348 346 345 343 342 341 340 340 339 339 338 338 338 338 338 338 338 338 337
349 350 350 350 350 350 350 351 351 352 352 352 352 351 351 352 352 352 351 350 349 349 348 347 347 345 343 342 342 342 341 340 339 339 339 338 339 339 340 339 338 338
349 349 349 349 350 350 351 351 351 352 352 352 353 352 352 352 351 351 351 350 350 349 349 347 347 346 344 343 342 342 341 340 339 339 339 339 339 339 340 340 339 338
348 349 349 349 350 351 351 352 351 352 352 352 353 352 352 351 351 351 351 351 350 349 348 348 347 346 345 344 343 342 342 340 339 339 339 338 339 339 339 340 339 338
348 349 349 350 351 352 352 352 352 352 352 353 353 352 352 352 351 351 351 351 350 349 349 348 347 345 345 345 344 342 342 341 340 339 338 338 338 339 338 339 339 338
349 350 350 350 351 351 351 351 352 352 353 353 353 353 353 353 353 352 351 350 350 349 349 348 346 345 345 344 343 342 342 341 340 340 339 339 338 338 338 338 338 338
350 350 350 350 350 350 351 352 352 352 352 352 352 353 353 353 353 353 352 350 349 349 348 347 347 346 338 329 333 342 342 341 341 340 340 339 339 338 337 337 337 337
350 350 351 350 350 351 351 351 352 352 352 352 353 353 353 353 353 352 351 351 350 349 348 347 347 346 331 325 328 331 340 341 340 340 341 340 339 338 337 337 337 337
350 350 351 351 351 351 351 352 352 352 352 352 352 352 353 353 352 352 352 352 351 350 349 348 348 336 327 325 326 327 332 342 341 340 340 340 340 338 338 337 337 336
350 350 350 351 351 352 352 352 352 352 352 352 351 353 353 352 352 352 352 352 351 350 349 349 348 334 326 323 325 325 327 336 342 341 341 340 340 339 338 337 337 337
350 350 350 351 352 352 353 352 352 351 352 352 353 353 352 352 352 352 352 352 352 351 350 350 349 333 324 321 322 323 325 332 342 341 341 341 340 339 338 338 337 336
350 350 350 351 352 352 352 352 352 352 352 353 352 352 352 351 352 352 352 352 352 352 351 350 350 328 321 319 320 320 322 327 343 342 341 341 341 340 339 338 337 336
350 350 350 351 351 352 352 352 352 352 352 353 353 353 353 353 353 353 352 352 352 352 351 350 350 323 320 319 318 318 320 335 342 341 341 341 340 340 339 338 337 336
351 350 350 351 351 351 351 351 352 352 353 354 352 352 352 352 352 352 353 352 352 352 351 350 351 326 318 316 317 317 321 338 341 341 340 339 339 338 337 337 336 336
351 351 350 350 351 351 351 352 352 353 353 354 352 352 351 352 352 352 353 353 352 352 351 350 351 327 314 314 315 315 325 339 340 341 339 338 337 335 336 336 337 341
352 352 352 351 351 351 352 352 352 353 354 354 353 353 352 353 352 352 352 353 352 352 341 347 351 327 312 313 314 315 327 341 341 341 340 338 337 336 336 336 336 341
353 353 353 352 352 352 353 353 354 353 354 353 353 353 353 353 352 351 351 351 352 351 351 349 351 333 320 313 313 314 321 342 341 340 339 338 337 335 334 334 335 337

ECMWFNIL_sfc_thetae_057.txt.gz
Theta_e
360 360 359 358 359 360 360 360 360 360 361 361 361 363 364 367 368 368 368 368 367 366 365 364 365 362 360 358 357 355 354 354 353 354 353 352 351 350 349 350 350 348
360 360 360 360 360 361 362 362 362 361 362 363 363 364 367 368 368 368 368 367 367 366 367 364 364 362 360 357 356 354 353 354 353 352 351 352 352 351 348 350 348 349
360 360 359 359 357 358 357 360 362 362 361 362 364 365 366 368 367 368 368 368 366 365 365 365 364 362 360 358 357 354 353 353 351 350 351 352 351 351 350 349 348 349
361 361 359 358 358 358 359 360 361 362 361 361 362 363 364 365 366 367 367 367 367 367 367 365 363 362 360 358 357 354 354 354 352 353 352 352 352 350 349 350 348 348
360 360 360 360 360 361 361 360 359 359 360 360 362 364 364 365 366 365 366 366 366 366 366 365 364 362 361 358 357 355 354 353 354 354 352 351 352 351 349 350 349 346
361 362 362 361 361 361 360 359 359 359 359 359 361 362 362 364 364 364 364 364 364 364 364 364 363 362 360 359 357 355 354 352 353 353 351 351 350 350 349 350 349 347
359 360 361 360 360 361 360 359 360 360 360 360 363 361 362 362 363 363 364 364 363 364 363 364 363 361 360 359 357 355 355 354 354 352 351 351 351 350 349 350 349 348
358 359 360 360 359 359 359 359 360 360 361 362 361 362 362 361 363 363 364 364 363 364 364 364 363 363 360 359 357 355 354 353 353 352 352 351 351 350 350 349 350 349
358 359 359 359 358 358 357 357 358 360 361 360 360 359 362 361 362 362 364 364 364 364 365 364 364 362 361 358 357 355 354 352 352 352 351 350 350 349 349 350 348 348
358 359 358 357 356 357 356 357 357 358 360 360 359 359 359 362 362 363 364 364 363 363 364 364 363 362 360 359 358 356 355 353 352 352 351 351 350 349 349 349 348 348
357 357 357 356 356 356 356 356 356 357 358 358 358 358 359 361 361 363 363 363 361 362 363 363 363 362 360 358 357 357 356 354 353 352 351 351 351 350 349 350 349 348
357 357 356 356 356 356 356 356 357 358 357 358 358 357 358 358 360 360 361 362 362 362 363 363 363 363 361 359 357 356 355 354 354 352 351 351 350 350 350 350 349 349
356 357 357 356 357 357 357 357 357 357 357 357 358 357 357 357 358 360 361 361 362 361 361 362 363 362 361 360 358 357 356 354 353 352 351 350 350 349 349 349 348 349
356 358 358 358 357 359 359 358 357 358 358 359 359 358 357 357 357 358 360 360 361 361 361 362 362 362 361 360 359 357 355 354 353 352 351 351 350 350 348 348 348 348
359 359 359 359 358 359 359 359 358 359 360 359 360 358 358 358 358 358 359 359 360 361 361 361 360 360 360 359 358 357 356 354 353 352 351 350 350 349 349 348 348 348
358 359 359 360 359 359 360 359 358 359 358 359 359 359 359 359 360 359 359 359 359 360 361 360 359 360 347 335 339 355 356 355 353 353 352 351 350 349 348 348 347 348
358 358 359 358 358 359 359 359 359 359 359 359 359 359 359 360 360 359 358 359 359 359 359 359 359 357 334 329 331 335 351 355 353 352 352 351 350 350 348 348 347 348
357 358 358 357 358 358 359 359 359 359 359 359 359 359 360 360 359 359 360 359 358 358 358 358 359 340 329 327 329 329 335 354 354 353 351 351 350 350 350 349 348 347
358 358 357 357 358 358 359 360 359 359 359 359 358 360 360 360 360 359 359 360 359 359 357 358 359 337 328 325 326 327 328 340 354 354 352 351 351 351 351 350 350 348
358 357 357 357 358 358 359 359 358 358 358 358 358 359 359 359 359 359 360 360 359 358 357 359 359 335 326 323 323 323 326 333 354 353 353 352 351 352 351 351 351 350
358 358 358 358 359 359 359 358 357 358 358 357 357 358 359 359 358 358 359 358 358 358 357 356 358 329 323 321 320 320 322 326 351 353 352 352 352 353 354 353 353 352
357 358 358 359 359 358 358 357 358 358 358 359 358 358 360 360 360 359 359 359 358 358 356 356 356 326 322 320 319 319 321 338 349 352 351 351 352 353 354 355 354 352
357 357 357 358 358 358 357 357 357 358 359 360 358 358 358 358 359 358 360 359 357 357 357 356 357 333 319 317 317 317 322 344 348 351 351 351 352 353 353 354 353 352
358 358 357 357 358 357 357 357 358 360 360 360 358 357 355 357 358 359 360 360 357 357 357 357 357 336 315 315 316 315 326 345 348 350 350 350 351 353 354 353 351 344
358 358 358 357 357 357 357 358 358 359 360 361 358 358 358 359 359 358 359 360 360 358 344 353 358 339 314 316 315 314 328 348 350 351 349 348 349 349 350 349 348 342
358 359 359 357 357 358 358 358 360 359 360 359 358 358 358 358 358 358 358 359 359 358 358 357 357 354 329 315 314 313 320 347 353 350 348 348 349 349 348 345 346 345

ECMWFNIL_sfc_thetae_060.txt.gz
Theta_e
366 366 365 365 364 364 364 364 364 364 365 361 360 365 364 368 369 367 368 370 371 370 369 371 370 369 368 368 368 366 365 364 361 359 358 356 353 350 348 350 351 350
366 366 366 366 365 366 365 366 367 365 365 365 363 362 367 368 370 369 369 370 372 371 372 371 371 370 370 367 367 365 364 363 361 359 357 357 355 352 348 351 350 351
367 367 366 365 363 365 363 366 367 367 364 365 366 365 366 370 371 372 371 371 371 370 371 371 371 371 369 369 368 366 364 365 363 359 360 358 355 352 350 349 350 350
367 367 366 365 365 365 366 365 366 367 365 365 365 365 365 368 371 372 373 371 371 371 370 371 370 368 369 368 368 365 365 366 364 363 359 358 357 354 351 349 350 350
368 368 367 367 366 367 367 366 365 365 365 364 365 367 368 369 371 371 372 372 372 371 370 370 372 369 369 368 367 365 364 363 365 363 358 358 359 356 353 349 349 349
369 370 369 368 368 367 365 366 365 365 366 364 365 366 366 369 369 369 370 370 370 368 366 369 370 369 368 368 367 367 365 363 362 361 360 359 358 357 354 352 350 349
368 369 368 368 368 368 367 367 367 367 366 366 367 366 367 367 368 368 369 369 368 369 366 367 370 369 370 370 368 367 366 366 365 362 360 360 359 358 357 354 352 350
367 368 368 368 367 367 367 366 367 367 368 368 366 368 369 366 369 369 369 368 368 369 370 368 370 372 369 369 369 367 366 365 365 362 361 361 359 359 358 355 355 352
367 367 368 368 366 366 365 365 366 368 369 367 366 365 369 368 368 368 370 371 369 369 371 370 371 372 370 369 368 368 367 365 365 363 360 359 359 359 359 357 355 353
367 366 366 365 364 365 365 365 364 366 368 367 367 365 366 369 369 369 370 371 369 370 370 371 371 371 371 369 369 368 367 367 366 365 363 361 361 361 360 358 356 354
365 366 364 365 364 364 364 364 364 364 366 366 366 365 364 368 369 370 370 371 369 369 370 370 370 371 370 368 368 368 368 366 366 366 365 364 363 362 360 360 358 355
365 366 365 364 363 363 363 363 363 364 364 365 366 365 365 364 368 368 368 370 371 370 371 371 372 371 371 369 368 368 367 366 366 366 364 365 364 362 362 361 359 358
364 364 364 362 364 363 363 363 362 362 362 363 365 365 364 362 363 367 368 369 370 370 369 370 371 371 371 371 369 368 368 366 364 365 364 364 364 362 362 361 360 359
365 366 365 365 364 366 365 364 363 363 364 365 365 364 363 363 361 363 367 368 369 370 370 370 371 370 371 371 370 368 367 367 364 364 363 364 364 363 362 360 360 359
366 367 367 366 365 366 366 365 365 365 365 364 365 365 364 363 363 362 365 367 368 369 370 369 368 369 370 370 368 367 367 366 365 363 363 363 363 361 361 360 360 359
366 367 367 367 365 365 366 366 364 365 364 364 364 364 365 366 365 364 363 365 366 368 368 368 367 368 356 341 346 365 366 365 365 364 363 362 362 361 359 360 359 358
367 367 368 367 366 366 367 366 365 365 365 366 365 366 366 367 365 364 362 363 365 366 367 367 367 365 339 334 336 340 359 366 365 364 364 362 361 362 360 359 359 359
367 368 367 367 367 366 366 367 366 365 365 366 365 365 366 366 365 364 365 364 364 365 365 366 367 347 332 331 333 334 341 364 365 364 363 362 361 360 361 360 359 358
368 367 367 366 367 367 366 367 367 366 365 365 364 366 367 366 366 365 365 365 364 365 365 366 367 341 330 328 331 331 333 347 363 364 362 361 361 360 360 361 361 360
367 367 366 366 367 367 367 367 366 365 365 364 365 366 365 366 365 365 366 366 365 365 366 366 367 338 327 325 327 327 330 338 361 362 362 362 361 361 360 360 361 361
367 366 365 366 367 367 366 366 365 366 365 364 363 364 365 365 365 365 365 366 365 364 365 365 366 332 324 322 323 323 326 331 359 360 361 362 362 362 362 361 362 361
364 365 364 365 365 365 365 364 364 365 365 365 364 363 365 365 366 366 365 365 366 366 363 364 365 327 321 321 321 321 323 346 358 359 359 360 362 362 361 362 362 362
363 363 363 364 364 364 364 363 364 365 365 367 364 362 363 364 365 365 366 365 365 366 365 365 366 338 319 318 319 319 325 352 356 358 359 359 361 360 359 359 359 361
364 364 364 363 364 363 363 363 364 365 365 366 364 363 360 362 365 365 366 366 364 365 364 365 365 341 315 316 317 316 329 353 356 356 357 358 359 359 359 358 358 347
365 365 364 363 363 363 363 363 363 364 365 366 364 364 363 364 363 364 365 366 365 365 348 358 364 341 314 317 315 315 331 355 356 356 355 357 357 357 357 356 358 351
364 365 366 364 365 365 365 364 366 364 364 363 364 364 363 362 361 362 364 364 364 363 362 362 362 363 336 314 315 314 320 353 357 354 354 354 356 355 354 355 356 358

ECMWFNIL_sfc_thetae_063.txt.gz
Theta_e
367 367 365 363 362 362 363 364 365 364 365 360 360 364 363 366 367 365 366 367 369 370 370 371 371 370 369 370 370 367 364 363 363 360 358 354 355 352 348 349 353 351
368 368 367 365 363 365 364 365 367 366 366 364 362 361 367 367 367 366 366 365 368 369 372 370 371 371 371 369 370 368 365 364 363 360 358 356 355 355 350 351 351 353
368 367 365 363 361 363 361 364 366 366 363 364 363 362 362 367 368 370 368 366 366 367 370 370 371 371 370 369 370 369 365 365 362 359 359 357 354 355 354 349 350 351
368 367 365 363 362 362 364 363 364 366 365 363 364 360 359 361 366 367 370 370 368 368 368 368 368 367 369 369 370 367 366 366 364 363 359 358 357 355 355 352 350 350
368 367 366 366 363 364 366 365 362 363 364 363 363 365 363 364 365 366 369 369 369 369 368 368 368 367 369 370 370 367 364 364 365 365 361 358 358 356 355 353 350 349
370 370 368 367 366 365 363 364 363 362 364 362 362 363 362 363 362 365 367 366 366 366 363 363 365 366 366 370 369 368 364 362 362 365 362 358 357 356 355 355 351 350
368 369 368 367 367 366 365 365 366 366 363 365 366 364 364 363 364 365 367 367 365 366 362 363 367 366 366 367 369 368 366 365 364 365 363 360 359 357 356 357 354 350
368 369 370 368 367 365 365 365 366 367 366 367 365 366 366 363 366 366 366 367 366 367 367 364 367 368 364 366 367 367 365 364 364 364 364 361 360 359 358 356 356 353
368 369 370 369 367 365 365 363 365 368 369 367 365 365 368 366 365 367 369 368 368 368 369 367 368 367 367 366 367 368 365 363 364 364 363 360 359 358 357 358 355 355
369 368 368 367 365 365 364 363 363 365 368 368 367 365 365 369 367 368 370 371 367 368 369 369 368 366 367 366 367 368 367 365 364 365 365 362 360 359 358 358 356 355
367 367 367 365 364 363 362 362 362 362 365 367 367 365 363 367 369 369 370 371 368 367 368 369 369 368 369 367 367 369 369 367 365 365 365 365 362 361 361 360 359 356
368 367 365 365 363 361 361 360 360 361 362 366 367 366 363 362 368 368 368 370 371 369 369 370 372 371 371 369 366 367 368 368 366 365 365 366 364 362 362 361 361 359
368 367 365 363 364 362 361 360 359 359 359 361 366 366 364 360 362 368 369 370 372 371 369 370 371 371 371 371 369 368 369 369 366 365 364 366 365 363 362 362 362 361
369 369 367 367 365 368 365 362 361 360 362 361 364 366 364 362 359 364 368 369 371 371 371 372 372 371 372 373 372 369 368 369 368 364 363 365 365 365 363 362 363 362
371 371 370 369 366 369 367 365 363 364 364 364 365 365 366 364 363 359 366 369 370 372 372 371 370 371 371 372 372 371 369 367 368 365 363 363 364 364 364 362 361 362
372 373 372 371 368 369 371 367 363 364 362 362 363 364 367 368 368 364 362 366 369 371 372 371 370 372 360 344 350 371 370 368 368 368 365 363 364 363 362 361 359 359
373 373 373 373 371 369 371 371 367 365 366 368 368 366 368 372 368 365 362 362 366 369 370 370 371 369 343 336 339 344 365 369 368 368 368 364 363 364 362 360 359 359
372 373 373 373 372 371 372 372 369 368 369 370 367 366 371 368 367 367 368 364 362 367 369 370 371 351 335 334 336 337 344 370 368 367 367 365 363 361 363 361 358 358
374 374 373 373 373 372 372 372 372 369 367 367 366 369 369 370 371 368 368 367 365 367 367 369 370 344 332 332 334 334 335 350 367 367 366 365 365 363 362 363 361 358
374 373 373 373 374 373 372 372 371 370 367 366 367 369 369 369 368 369 369 370 368 367 369 369 371 343 329 328 330 330 333 342 366 366 366 366 366 365 363 363 362 360
373 373 373 373 374 373 372 371 370 371 369 367 366 367 368 369 368 368 369 370 368 366 365 365 369 337 325 325 326 326 329 333 364 363 364 366 366 367 366 364 364 363
372 372 372 373 372 372 371 370 370 371 370 369 367 366 368 369 370 369 368 368 368 367 364 365 366 330 323 323 324 324 326 349 364 363 362 364 366 367 367 367 366 364
371 371 371 371 371 370 370 369 370 371 371 371 367 365 365 366 368 368 370 368 368 368 367 366 366 339 320 320 322 322 328 356 362 363 363 362 364 366 367 367 367 366
371 371 371 370 371 369 369 369 369 370 370 370 367 365 362 364 367 368 369 369 367 367 366 367 367 345 316 318 319 319 332 358 362 362 362 362 362 364 365 367 366 349
370 371 370 369 370 369 369 369 368 369 370 370 368 367 365 365 365 366 367 369 368 367 354 362 367 346 315 318 317 317 332 360 362 362 361 361 361 361 363 365 367 355
370 372 372 370 369 369 369 369 369 369 369 368 368 367 365 365 363 364 365 367 368 368 367 366 366 369 337 315 315 316 320 357 363 361 359 360 361 360 361 364 364 366

ECMWFNIL_sfc_thetae_066.txt.gz
Theta_e
364 364 363 364 364 363 363 364 364 362 362 361 362 363 364 367 367 366 364 368 371 369 370 371 371 372 371 371 371 368 365 364 360 363 359 358 357 354 349 349 355 357
364 365 365 365 365 364 365 366 366 365 365 366 364 366 367 369 367 367 366 367 369 369 370 370 370 371 370 369 370 368 366 365 363 361 359 358 358 355 350 351 350 354
364 365 365 364 362 363 359 365 368 368 367 367 367 368 368 369 368 367 369 368 368 366 370 370 371 371 370 370 370 368 365 365 361 359 360 358 357 356 354 350 350 351
364 365 364 363 363 363 362 362 364 367 365 366 365 364 366 365 367 367 367 371 368 368 369 370 369 369 370 370 371 368 367 366 363 363 362 360 358 356 355 354 352 351
364 365 366 365 364 364 363 361 359 364 363 364 365 364 363 366 366 367 367 368 369 368 369 369 370 370 370 369 370 368 366 366 365 365 364 360 358 356 354 354 352 349
365 366 366 366 366 365 362 360 360 360 363 361 364 364 362 363 367 366 367 366 366 365 365 367 368 368 369 370 369 368 365 364 364 365 363 361 357 356 354 355 353 350
364 365 366 367 366 364 363 362 361 361 362 362 365 363 363 361 362 364 366 366 363 363 362 364 366 366 368 368 368 367 367 365 364 365 363 362 359 356 354 356 354 351
363 364 366 366 363 362 361 361 362 362 363 365 363 364 364 361 361 360 364 367 366 366 365 365 367 367 367 367 367 367 367 365 363 364 363 362 360 357 356 355 357 353
365 365 365 364 361 360 357 357 361 364 364 364 362 361 364 364 363 360 362 366 367 367 367 366 367 366 366 366 367 367 366 364 362 363 363 361 360 358 357 356 355 355
366 366 363 361 361 361 357 355 356 360 364 363 362 361 363 364 365 364 364 365 366 367 367 365 365 366 365 365 366 367 367 366 364 363 363 363 361 359 357 357 355 355
364 365 364 363 361 360 360 357 356 358 361 361 360 358 360 364 364 366 367 366 365 366 367 367 365 366 365 363 365 367 367 366 365 363 363 363 363 361 360 358 356 355
363 362 363 363 360 358 359 357 356 358 359 362 362 360 360 361 365 364 365 367 366 366 367 368 367 366 365 365 364 365 366 367 365 363 363 364 363 362 361 359 357 356
363 363 364 362 362 360 359 359 357 355 356 359 362 362 360 357 362 364 364 367 368 367 366 367 368 367 366 366 365 365 366 366 365 364 362 363 364 362 361 360 359 358
364 364 364 363 363 363 362 360 358 358 358 359 364 364 362 359 358 363 365 365 367 368 368 367 367 367 367 367 367 366 365 366 366 365 363 362 363 363 362 360 359 359
366 365 365 365 365 364 363 362 361 360 360 360 363 364 363 362 360 359 364 364 365 368 369 368 367 366 367 367 367 367 366 365 367 366 365 363 362 362 362 361 360 359
366 367 365 365 364 364 364 363 362 361 360 360 360 362 364 366 364 360 360 365 365 367 369 369 367 367 357 344 349 366 366 364 365 366 365 363 362 361 362 362 360 359
367 367 367 365 364 364 365 363 362 362 361 361 361 361 362 366 366 362 357 361 366 366 368 368 368 365 343 336 338 344 362 365 363 365 366 364 362 362 361 361 361 360
368 369 369 367 365 364 365 365 363 362 362 362 361 360 362 365 366 365 362 358 362 366 366 367 368 350 336 335 336 337 344 364 364 363 365 364 362 360 361 361 361 361
370 369 369 369 367 365 365 366 365 362 361 361 361 362 362 363 366 366 365 363 360 364 366 368 368 347 333 332 334 334 336 350 365 363 362 363 363 361 359 360 360 360
371 371 370 369 369 367 365 366 366 364 361 361 361 363 363 363 364 366 366 366 364 363 365 368 369 348 331 329 330 331 333 340 364 364 363 363 364 363 360 359 360 360
372 373 373 372 371 368 366 366 367 367 364 361 360 361 362 363 363 364 366 366 365 364 363 365 369 343 328 326 326 327 330 332 362 364 363 364 365 365 364 361 360 361
373 373 374 373 372 370 367 366 368 369 367 365 362 360 363 366 366 365 364 365 367 366 362 362 364 336 327 325 325 325 327 343 358 362 362 363 364 364 365 365 363 361
374 374 373 373 373 371 368 367 368 370 370 368 365 363 363 364 365 364 365 365 365 366 365 363 363 340 323 323 322 323 326 349 358 361 362 361 362 364 365 365 365 364
375 375 373 372 373 372 370 369 370 371 370 370 366 363 361 364 365 366 367 367 365 365 366 365 366 347 318 319 319 321 330 352 357 359 361 361 360 361 364 365 366 353
375 376 374 373 373 372 371 371 370 370 371 372 368 366 363 365 366 366 367 368 366 366 354 363 366 353 318 317 317 318 328 353 359 359 360 360 360 360 361 362 365 358
374 375 375 372 372 374 373 372 372 370 370 369 369 366 365 364 364 366 367 368 367 365 364 364 365 367 343 315 315 315 319 350 360 360 358 359 361 360 360 361 361 363

ECMWFNIL_sfc_thetae_069.txt.gz
Theta_e
354 354 354 354 354 356 357 355 355 354 354 355 357 357 357 358 360 359 360 362 362 362 363 364 364 363 363 362 361 358 357 356 352 351 351 350 346 343 344 342 345 344
354 355 356 356 355 357 358 357 356 354 354 354 357 358 359 360 360 359 359 361 363 361 363 364 363 363 363 362 361 358 357 355 353 356 350 351 348 344 342 342 342 344
355 355 355 355 356 356 358 358 357 355 354 356 357 358 360 361 360 359 359 361 362 362 362 364 363 363 363 362 361 359 356 355 354 355 351 349 350 347 344 343 341 342
355 356 356 356 357 357 357 358 357 356 355 355 356 359 360 362 361 359 359 364 361 361 362 363 363 363 363 362 362 360 357 356 356 354 352 350 351 349 346 345 344 342
355 356 357 357 358 358 358 357 358 357 356 356 357 359 359 359 360 359 360 360 361 361 361 362 362 362 363 362 362 360 359 357 356 355 353 350 350 350 349 346 344 342
356 357 358 358 358 358 357 356 358 359 358 358 358 359 360 360 360 360 359 360 361 361 361 362 362 362 363 362 363 361 359 358 357 355 354 351 350 350 351 348 346 343
355 356 357 358 358 358 357 356 356 359 359 359 360 359 359 360 359 360 359 360 361 361 361 361 362 362 363 362 362 361 360 359 358 356 354 355 351 349 349 349 347 345
356 357 358 359 358 358 358 357 355 356 359 359 359 360 358 357 359 360 360 359 359 361 361 362 362 362 363 362 361 361 361 361 359 357 355 355 352 349 348 349 348 346
356 356 358 358 358 358 358 357 356 355 357 358 358 359 359 357 356 359 360 359 358 359 360 361 362 362 363 363 362 361 360 360 360 358 356 355 354 351 349 348 348 347
356 357 357 358 358 358 358 358 357 355 356 357 357 358 358 358 356 355 359 360 358 357 357 358 361 362 362 362 362 361 361 360 359 358 358 357 356 354 351 348 348 348
356 357 356 357 358 358 358 358 357 356 355 356 357 357 357 357 357 355 354 358 359 358 357 357 358 361 361 361 362 362 361 361 360 358 357 358 357 356 357 351 349 348
356 356 356 356 357 358 358 358 357 356 355 355 356 356 356 357 357 356 354 354 358 360 359 358 358 359 360 360 361 361 361 361 361 359 358 357 358 357 357 354 351 349
355 355 356 356 356 357 357 357 355 355 356 355 356 356 355 356 356 357 357 354 354 358 360 360 359 359 359 360 360 360 361 360 360 360 359 358 358 358 358 357 354 352
356 356 356 356 356 356 356 355 355 352 353 355 356 355 354 355 356 356 357 357 355 355 358 361 360 359 359 359 359 359 360 360 360 360 359 358 357 358 358 358 356 355
356 356 357 357 357 356 355 355 354 352 351 353 355 355 355 354 355 357 356 356 358 357 356 358 360 360 359 359 358 358 358 359 359 359 359 358 357 357 358 358 358 356
356 357 357 357 357 356 355 355 355 353 351 351 354 355 354 354 353 355 357 356 356 358 358 358 359 361 354 342 345 358 358 359 359 359 359 358 357 356 356 358 358 357
357 356 356 356 357 357 356 355 354 353 352 351 352 355 355 355 354 352 354 357 356 357 358 359 359 359 342 335 336 340 354 358 358 358 359 358 358 356 355 356 357 357
357 357 356 355 356 356 356 355 354 353 352 351 351 353 356 357 356 354 353 356 358 357 357 359 360 347 335 333 334 333 339 358 358 358 359 359 359 358 357 356 356 357
358 357 356 355 355 356 356 356 354 353 352 352 351 352 355 357 357 357 355 355 358 357 357 358 359 344 334 331 331 331 331 343 358 358 357 358 359 358 358 357 356 356
359 358 357 356 356 356 356 356 354 353 353 354 353 353 353 355 357 357 357 355 355 357 358 358 359 345 331 329 328 328 330 335 356 357 357 357 358 359 358 357 357 356
359 358 357 357 357 356 355 355 355 354 353 354 354 353 352 353 355 357 358 358 356 355 358 359 360 340 329 327 326 325 327 329 354 357 357 356 356 357 358 358 357 357
360 358 358 358 358 357 355 355 355 355 353 354 354 354 354 354 354 355 357 358 358 356 355 357 361 336 328 326 325 324 325 340 351 355 355 355 355 355 356 358 358 357
360 360 359 359 359 358 356 355 355 355 355 355 353 352 353 353 353 354 355 357 358 358 356 354 356 341 326 323 323 323 325 345 350 353 355 355 355 356 357 357 358 358
361 360 360 360 360 359 358 357 356 357 357 357 354 352 351 353 354 355 355 356 356 358 358 357 356 342 322 322 321 320 329 348 351 353 354 355 356 357 357 357 358 350
362 362 361 361 361 361 361 359 357 357 358 359 358 355 353 353 354 354 355 356 356 357 352 356 358 349 320 318 319 318 328 349 353 353 353 354 355 356 357 357 357 355
364 363 363 363 363 363 363 361 360 359 359 360 360 359 356 355 355 355 355 356 357 357 358 357 358 359 339 314 315 316 319 346 353 353 353 354 355 355 356 356 357 357

ECMWFNIL_sfc_thetae_072.txt.gz
Theta_e
350 350 350 349 350 351 349 347 349 351 348 351 352 353 354 354 356 357 358 359 360 359 360 360 361 360 360 359 357 354 352 348 348 348 346 345 340 340 339 339 340 338
350 350 352 351 349 351 352 350 349 351 351 351 353 354 355 355 355 357 357 359 359 359 360 360 360 360 359 359 356 354 353 350 347 351 347 345 343 341 340 338 342 341
350 350 350 350 349 349 352 353 351 351 352 352 354 355 355 356 355 357 357 358 359 359 360 360 360 360 359 359 357 355 354 352 348 349 349 347 345 342 340 339 338 341
350 350 350 351 351 350 352 354 352 351 352 352 353 356 356 357 356 356 356 361 358 358 359 360 361 361 360 359 358 356 354 353 352 350 348 348 347 345 342 340 339 338
350 350 351 351 352 352 352 353 354 352 352 353 353 355 357 356 356 356 356 357 358 358 358 360 361 360 360 359 358 357 355 354 353 351 348 346 347 347 345 342 340 338
350 351 352 352 352 353 352 353 355 354 353 352 353 355 356 357 357 356 356 356 358 358 358 359 360 360 360 360 359 358 356 354 353 352 350 347 346 348 347 344 342 340
350 351 351 352 352 353 353 353 355 356 354 353 353 354 356 357 357 357 356 356 357 358 358 358 358 359 360 359 358 357 357 355 354 352 351 349 348 346 347 345 343 342
351 351 352 352 352 353 353 354 354 356 356 354 352 353 356 356 357 357 357 356 356 357 357 358 358 359 359 359 358 358 357 357 355 353 351 350 349 347 346 347 345 343
351 351 352 352 352 352 353 354 355 355 357 355 353 353 355 356 357 358 357 357 356 357 357 357 358 358 359 359 358 358 357 357 357 354 352 351 350 348 347 347 345 344
351 352 352 352 352 353 353 354 355 355 357 357 355 354 354 355 356 356 357 356 356 356 356 357 357 358 358 359 358 358 358 357 357 356 355 353 352 351 349 347 346 345
352 352 352 352 352 353 353 354 355 355 355 356 357 356 355 355 356 356 356 356 355 355 356 356 357 358 358 358 359 359 358 358 358 357 356 355 353 353 355 349 347 346
352 352 352 352 353 353 354 355 355 355 355 355 357 356 356 356 355 355 356 356 356 355 356 357 357 358 358 359 359 359 359 358 358 358 357 357 356 354 354 352 349 347
351 352 353 353 353 353 355 355 355 356 355 354 355 356 356 356 356 355 355 356 357 357 356 356 357 358 358 359 359 359 359 358 358 358 358 357 357 356 355 354 352 350
352 353 353 353 354 354 355 355 356 356 355 355 354 354 355 355 356 355 354 355 356 357 357 356 356 357 358 358 359 359 359 359 359 358 357 357 356 357 356 356 355 353
353 353 354 354 354 354 354 355 355 356 356 355 354 353 355 355 355 356 355 353 353 355 357 357 356 356 357 358 358 358 359 358 358 358 358 357 356 356 356 356 356 355
353 354 354 354 354 353 354 354 355 355 355 354 354 353 353 354 354 354 354 354 353 352 353 356 357 357 350 339 344 357 357 358 358 358 358 357 356 356 355 355 356 356
353 353 353 353 353 354 354 354 354 355 354 354 353 353 352 352 353 352 353 354 354 353 351 352 355 357 341 333 334 337 353 357 357 356 357 357 356 356 355 355 355 356
353 353 353 353 353 353 353 353 354 353 353 352 351 351 352 352 351 351 352 353 353 353 353 352 352 342 335 332 332 331 336 356 356 356 356 356 356 356 356 355 355 355
353 353 353 353 353 353 353 353 353 352 352 351 350 350 351 351 351 351 350 351 353 352 352 353 353 340 332 330 330 330 329 340 356 355 355 355 356 356 355 355 355 354
354 353 353 353 353 353 353 352 352 351 351 352 351 350 349 349 350 350 350 350 351 352 352 353 353 341 330 327 327 327 328 332 353 355 355 355 355 355 356 355 355 354
355 354 353 353 353 353 353 352 352 352 351 351 351 349 348 348 349 349 350 350 350 351 351 352 354 337 328 325 324 324 325 327 349 354 355 355 355 356 356 356 356 356
357 355 354 354 353 353 352 352 352 352 351 351 351 350 350 349 349 351 351 351 351 350 350 350 353 333 327 324 323 322 324 337 347 351 353 354 354 354 355 356 357 357
358 356 355 354 354 353 352 352 352 352 353 353 351 350 349 349 348 350 352 352 352 352 350 350 352 338 325 322 321 321 323 341 346 349 352 353 354 354 355 355 355 356
359 358 356 355 354 353 352 352 353 353 353 354 351 350 349 349 350 349 351 353 353 353 353 352 352 343 322 319 319 319 327 344 347 349 350 351 352 354 355 354 355 347
360 359 358 356 355 354 354 353 353 353 353 354 353 352 351 351 351 350 350 351 353 354 350 352 354 345 319 319 317 317 327 345 349 349 349 350 351 352 354 354 355 352
360 359 358 357 356 356 356 355 354 354 353 353 353 353 351 351 350 350 350 350 351 352 354 355 355 355 332 317 317 316 320 344 350 350 349 350 351 351 352 353 354 355

ECMWFNIL_sfc_thetae_075.txt.gz
Theta_e
349 349 348 348 348 348 347 346 346 346 345 348 350 352 352 353 355 355 355 356 357 356 356 356 357 358 358 357 356 353 350 346 346 344 343 340 336 335 336 336 335 335
349 349 350 349 349 349 348 347 347 347 346 347 350 352 353 353 354 355 355 355 357 357 356 357 357 357 357 356 355 353 350 347 345 348 343 342 340 337 336 335 338 336
349 348 349 347 348 348 348 348 347 348 348 347 349 351 352 354 353 354 355 355 356 357 356 357 357 357 357 357 355 354 352 348 345 346 345 343 342 340 338 336 336 338
349 349 349 349 348 348 349 348 347 347 349 348 348 351 353 354 353 353 354 359 355 356 356 357 357 357 357 357 355 354 353 351 349 346 346 345 344 342 340 338 337 337
349 348 349 349 349 349 350 349 348 347 348 350 349 351 353 353 353 353 354 355 355 355 356 356 357 357 357 356 356 354 353 352 350 347 346 345 345 344 343 340 338 336
349 349 349 349 349 348 348 349 350 349 348 348 350 352 352 353 353 353 353 353 355 355 356 356 356 357 357 357 356 355 354 352 351 349 346 345 345 346 346 342 339 337
348 349 348 349 349 349 348 348 350 351 350 349 350 351 353 353 353 353 353 354 354 355 355 355 355 356 357 357 356 355 355 354 352 350 348 347 345 344 346 344 342 340
348 349 349 349 348 349 349 348 349 351 351 351 349 350 353 353 353 354 353 353 354 354 355 355 355 356 356 357 356 355 354 355 353 350 349 349 347 345 344 345 344 341
348 348 349 348 348 348 349 349 349 350 352 352 351 350 352 353 354 354 354 353 353 354 354 355 355 355 356 356 356 355 355 355 355 352 351 350 348 347 346 345 344 343
348 348 348 348 348 348 348 349 350 351 353 352 352 351 350 352 354 354 354 353 353 353 353 354 355 355 355 356 356 356 355 355 355 354 353 352 351 350 349 346 345 344
347 348 347 348 348 349 349 350 351 351 352 353 353 352 351 351 353 354 354 353 353 352 353 354 355 355 355 355 356 356 356 355 355 354 354 353 352 351 353 349 347 346
347 348 347 348 348 349 349 350 351 351 352 353 354 353 353 352 351 353 354 354 354 353 353 354 354 355 355 355 356 356 356 356 356 355 355 354 354 353 352 351 349 348
348 348 348 348 349 349 350 350 350 351 352 352 354 354 354 352 352 351 353 354 354 354 354 354 354 355 355 355 355 356 356 355 355 355 355 355 355 354 354 352 352 350
348 349 349 349 350 350 350 350 351 351 351 352 353 353 354 354 353 352 352 353 353 354 354 354 354 354 354 355 355 355 355 355 355 355 355 355 355 355 355 354 353 353
348 349 350 350 350 350 350 350 351 351 352 352 352 353 354 354 355 354 352 352 352 353 353 354 353 353 354 355 354 355 355 355 355 355 355 354 354 355 355 355 355 354
349 349 350 350 350 350 350 351 351 352 352 352 352 352 352 353 354 354 354 353 352 352 353 353 353 354 348 338 341 354 355 356 356 355 355 354 354 354 354 355 355 355
349 349 350 349 350 350 350 350 351 352 352 352 352 352 352 352 353 352 353 354 353 352 351 353 354 354 339 332 332 335 351 355 355 355 355 355 355 354 353 354 354 355
349 349 349 350 350 350 350 351 351 351 351 351 352 352 352 352 351 351 352 353 353 353 352 352 353 342 334 331 331 330 334 354 355 355 355 355 355 355 355 354 354 354
350 350 350 350 350 350 351 351 351 351 350 351 351 352 352 351 351 351 350 351 352 351 352 352 352 338 332 329 329 328 328 338 354 355 354 354 355 355 355 355 355 354
350 350 350 350 351 351 351 351 350 350 351 352 352 352 351 351 351 350 350 350 350 350 351 352 352 340 329 326 326 326 327 330 350 354 354 354 354 354 355 354 355 354
350 350 350 350 351 351 351 350 350 351 351 351 351 351 351 350 350 350 350 350 350 350 350 350 352 336 327 324 322 322 324 326 346 351 353 353 354 354 354 354 354 355
351 350 350 351 351 351 350 350 350 350 350 351 351 351 351 351 350 350 350 350 350 350 349 348 351 333 326 323 321 320 322 335 343 348 350 352 353 353 353 354 354 354
352 351 351 351 351 350 350 350 350 350 351 352 350 350 350 349 349 349 350 349 349 349 348 348 349 337 324 320 319 318 321 338 342 346 348 350 351 353 354 354 354 354
354 353 352 351 351 350 350 351 351 352 351 352 350 350 349 349 349 349 349 349 348 349 349 348 348 339 322 318 318 317 326 340 342 344 346 348 349 351 353 353 354 348
356 355 353 353 352 351 352 351 351 351 352 352 351 351 350 350 350 349 348 348 348 348 345 347 349 342 323 318 316 315 325 341 344 345 345 346 347 349 350 352 353 351
357 356 355 354 353 353 353 353 353 352 352 352 352 351 350 350 350 349 348 348 348 348 349 349 349 349 341 318 315 314 318 341 345 345 345 346 347 348 349 349 351 352

ECMWFNIL_sfc_thetae_078.txt.gz
Theta_e
350 350 349 349 349 349 349 348 348 347 348 351 352 353 354 355 357 357 357 358 358 358 358 358 360 360 360 360 360 359 356 354 353 350 348 345 343 341 340 340 341 342
350 350 351 350 350 350 350 349 349 348 347 349 352 354 355 356 356 357 357 357 358 358 359 358 359 360 360 360 359 358 356 354 352 351 348 346 344 342 340 342 342 343
350 350 350 349 349 349 349 349 350 349 348 348 351 353 354 356 356 357 357 357 357 358 358 358 359 360 360 360 359 358 357 354 352 351 350 348 347 344 342 341 342 343
350 350 350 350 350 349 350 349 349 349 350 348 349 351 354 355 355 356 356 359 357 357 358 358 358 359 360 360 359 358 358 357 355 352 351 350 349 347 345 344 343 343
350 350 350 350 350 351 351 349 348 348 349 349 349 351 354 355 354 354 355 356 357 357 358 358 359 359 360 359 359 358 357 356 356 353 351 350 350 348 347 346 344 342
351 351 351 350 350 350 349 349 349 349 349 349 349 351 352 353 354 354 354 355 356 356 357 357 358 358 359 359 359 359 358 356 356 353 351 351 350 349 348 347 346 344
350 350 350 351 350 350 350 350 350 350 349 350 351 350 352 352 353 354 354 354 355 356 356 357 357 358 359 359 358 358 358 358 356 354 353 351 352 350 349 349 348 346
350 350 350 350 350 350 349 350 350 351 350 350 350 351 352 352 353 354 354 354 354 355 356 357 357 358 358 359 358 357 357 357 356 355 353 353 352 350 350 350 350 348
350 350 350 350 349 349 349 349 350 351 352 350 349 350 353 353 353 354 354 354 354 355 355 356 356 357 358 358 358 358 357 357 357 356 354 353 352 352 351 351 349 349
350 350 350 349 348 349 349 349 350 350 352 351 350 350 351 354 354 354 354 354 354 354 355 355 356 356 357 358 358 358 357 357 358 357 356 355 354 354 353 351 349 349
349 349 349 349 349 349 349 349 350 350 351 352 352 351 351 352 354 355 354 354 353 353 354 354 355 356 356 356 358 358 358 358 358 358 357 356 356 355 355 353 351 350
349 349 349 349 349 349 349 349 350 350 350 352 352 352 352 352 352 354 354 354 354 354 354 354 355 356 356 356 357 358 358 358 358 358 357 357 357 356 356 356 354 353
348 348 349 349 349 349 350 350 350 350 350 350 352 352 352 351 351 352 354 354 355 355 354 355 355 356 356 356 357 357 357 357 357 357 357 357 358 357 357 356 355 355
349 349 349 349 350 350 350 350 350 350 351 351 353 352 352 352 352 351 353 354 354 355 355 356 355 355 356 356 357 357 357 357 357 357 357 357 357 358 358 357 357 356
349 349 350 350 350 350 350 350 350 350 351 352 352 352 353 353 354 353 352 352 354 355 355 356 355 355 355 355 356 356 357 357 357 357 357 357 357 357 357 358 357 357
349 349 349 349 349 349 349 350 350 350 350 351 351 352 353 354 354 354 353 352 352 353 355 355 355 356 348 337 340 355 357 357 357 357 357 357 356 356 356 357 357 358
349 349 349 349 349 349 350 350 350 350 350 351 351 352 352 354 354 353 353 353 353 352 353 353 355 354 338 332 331 334 352 356 356 356 357 357 356 356 356 356 357 358
348 349 349 349 349 349 350 350 350 350 350 350 350 351 352 353 352 353 354 354 354 353 352 353 354 341 332 330 330 329 334 355 357 356 356 356 356 356 357 357 357 357
348 348 348 349 349 350 350 350 350 350 350 350 350 351 352 351 352 352 352 353 354 354 353 353 354 338 330 328 328 327 327 339 356 356 356 356 357 357 357 357 358 357
348 348 348 348 349 350 350 350 350 349 350 351 351 352 351 351 351 352 352 352 353 353 353 354 354 340 329 326 325 325 325 330 352 355 356 356 356 357 357 358 358 357
348 348 348 349 349 350 350 350 350 350 350 351 351 351 351 351 351 351 352 352 352 353 353 353 354 336 327 324 322 322 323 326 348 352 354 355 357 357 357 358 358 358
349 349 349 349 349 350 349 349 350 350 350 351 351 351 352 353 353 353 352 352 352 352 352 351 353 333 326 323 320 320 322 337 346 350 352 354 355 356 357 358 358 358
349 349 349 349 349 349 349 349 349 350 351 352 351 351 351 351 352 352 353 353 352 352 351 351 352 338 324 320 319 318 322 341 345 348 350 352 353 355 356 357 357 358
350 350 349 350 350 349 349 350 351 351 351 353 351 351 350 351 352 353 353 353 352 352 352 351 352 342 322 318 317 316 326 344 346 347 349 350 351 353 355 356 357 350
351 351 350 350 350 350 351 350 351 351 352 353 352 352 352 353 353 352 352 353 353 353 346 349 352 344 322 318 316 315 326 345 347 347 347 348 349 350 353 354 355 352
352 352 351 351 351 351 352 352 353 353 353 353 353 353 352 353 353 352 351 352 352 352 352 351 351 353 341 317 315 314 318 344 348 347 347 347 349 349 350 352 353 354

ECMWFNIL_sfc_thetae_081.txt.gz
Theta_e
359 359 357 357 358 358 359 359 359 359 361 360 360 363 364 368 369 368 368 369 369 368 369 369 369 369 368 368 369 368 368 368 367 367 367 364 363 361 358 358 357 355
359 359 359 359 359 360 361 360 361 360 362 363 363 364 367 368 368 368 368 368 369 368 370 369 369 369 369 367 369 366 366 367 367 366 366 365 364 363 359 360 358 358
359 358 358 357 356 358 356 359 361 360 360 361 363 366 366 367 367 369 369 369 368 366 369 369 369 369 369 369 370 368 365 367 366 365 366 366 364 364 363 359 358 357
359 359 357 357 357 357 358 359 360 360 360 360 361 361 363 363 366 367 368 368 368 368 368 368 368 368 369 369 370 367 367 368 367 368 367 366 366 364 363 361 359 357
359 359 358 358 358 360 360 359 357 358 358 359 359 362 364 365 365 365 366 367 368 367 368 367 368 367 369 369 370 367 366 366 367 369 366 365 367 365 363 362 360 357
360 360 360 359 359 360 358 358 358 357 358 357 359 360 360 363 363 363 364 364 364 364 364 366 367 366 367 368 369 367 366 364 365 369 366 365 365 365 362 362 362 360
359 360 359 359 359 359 358 358 359 359 358 358 361 359 360 360 361 362 364 363 362 364 363 365 367 366 367 368 367 365 365 365 367 368 367 365 366 366 364 363 363 361
359 359 359 359 358 358 358 358 359 359 360 360 359 360 360 359 361 361 363 363 362 364 365 366 368 368 366 367 366 365 364 363 363 364 364 366 367 366 366 364 364 363
359 359 359 359 357 357 356 356 358 359 360 359 358 358 360 360 360 360 363 364 363 363 365 365 367 367 367 367 366 366 365 364 364 365 364 363 364 365 365 366 363 363
359 359 358 357 356 356 356 356 356 358 359 358 358 357 358 361 361 361 363 364 362 363 364 364 365 365 366 366 366 366 366 366 366 365 365 364 364 365 365 365 364 363
358 358 357 357 356 356 356 356 356 357 358 358 357 356 358 360 361 362 362 363 360 361 362 363 363 364 365 364 365 366 366 366 366 366 365 364 364 365 365 366 365 363
358 357 357 356 356 356 356 356 356 357 357 357 358 357 358 358 360 360 361 362 362 362 363 364 364 365 365 365 363 365 366 365 366 366 364 365 365 364 364 365 365 365
357 357 357 356 357 357 357 357 356 356 357 357 358 358 357 357 358 359 361 361 362 362 361 363 364 364 365 366 365 365 365 365 363 364 365 365 365 364 365 365 365 365
358 358 358 358 358 359 358 357 357 357 358 358 359 358 357 357 356 357 359 360 361 362 362 363 364 364 365 366 365 364 364 365 365 363 363 364 365 366 365 364 365 365
359 359 360 360 359 360 359 358 358 358 358 358 359 358 358 358 358 357 359 359 360 361 362 362 362 362 363 364 364 364 365 363 364 364 363 363 364 364 364 365 364 364
360 360 360 360 359 359 359 359 358 358 357 358 358 358 359 360 360 359 358 358 359 361 362 362 361 362 355 341 346 363 364 363 363 364 364 363 363 363 363 363 364 364
360 360 360 359 359 359 359 359 358 358 358 359 358 359 359 360 359 358 358 358 358 359 360 360 361 360 340 333 333 337 357 364 363 364 365 364 363 364 363 362 363 364
358 359 359 359 359 359 359 359 358 358 358 359 358 358 359 360 359 359 359 358 358 358 358 359 360 346 333 331 331 330 338 361 362 362 362 363 362 362 362 363 362 362
359 359 358 358 359 359 359 360 359 358 358 358 357 358 359 359 359 358 359 359 359 359 357 358 359 341 331 329 329 328 328 342 360 362 361 362 362 362 362 363 364 363
359 358 357 358 359 359 359 359 358 358 357 357 357 358 358 358 358 359 359 360 360 360 360 360 360 343 329 327 326 326 327 333 359 360 361 361 362 363 362 363 363 363
358 358 358 358 359 359 359 358 357 358 357 356 356 356 358 358 357 358 359 360 359 359 360 359 360 337 325 324 323 322 324 328 357 359 360 361 361 362 364 363 364 364
357 358 358 358 358 358 357 357 358 358 358 357 357 356 358 358 358 358 358 359 359 359 358 358 359 333 325 323 321 321 323 344 356 359 359 359 361 362 363 365 365 364
356 357 357 358 358 357 356 356 357 358 359 359 357 357 356 356 358 357 359 358 358 359 358 358 359 340 324 321 319 319 325 351 356 358 359 360 360 362 363 364 364 365
357 357 357 357 357 356 356 356 357 358 358 359 357 356 355 357 358 358 359 359 358 358 358 358 359 342 320 319 318 317 331 354 357 358 359 360 360 362 363 363 364 357
358 358 357 356 356 356 356 356 357 358 358 359 357 357 357 359 359 358 358 360 359 358 350 355 359 346 318 319 316 315 331 357 358 358 358 359 359 360 363 363 365 360
359 359 358 357 357 357 358 358 359 358 358 358 358 358 357 358 358 358 358 359 359 359 358 358 358 360 345 316 316 314 319 355 360 357 356 357 359 359 359 362 363 364

ECMWFNIL_sfc_thetae_084.txt.gz
Theta_e
363 365 363 363 362 362 361 361 359 359 360 358 358 362 361 365 368 366 367 369 369 369 369 371 371 370 368 369 371 369 366 367 366 365 367 366 364 362 359 359 360 358
364 365 364 364 363 363 362 363 363 361 362 362 361 361 365 366 367 367 368 368 370 369 370 370 372 371 370 367 370 368 366 367 367 364 367 368 366 365 361 363 361 362
365 363 363 362 360 362 359 363 364 363 361 362 363 364 364 368 368 370 369 368 368 366 369 370 371 372 369 369 370 369 365 368 366 363 366 368 366 366 366 361 361 362
364 363 363 362 361 362 362 362 364 366 363 362 362 362 363 363 368 366 368 369 367 367 366 369 368 367 368 368 370 366 367 369 366 366 366 368 368 366 365 365 363 362
364 363 364 365 363 365 365 363 362 363 363 361 364 365 367 367 367 365 367 368 369 365 366 367 368 366 368 368 369 367 365 365 367 369 366 367 369 368 365 365 366 364
365 365 366 366 366 365 364 364 363 362 363 360 363 364 365 367 366 365 364 364 364 362 361 363 365 364 365 367 368 367 365 363 363 369 368 367 364 365 364 365 367 366
364 365 365 366 366 365 365 365 365 365 364 362 365 364 365 365 366 366 365 365 362 363 361 362 365 364 365 366 368 367 366 367 367 367 367 367 367 364 365 366 367 367
366 365 365 366 366 365 365 364 365 365 365 365 362 365 365 364 366 365 365 365 364 364 365 364 366 368 364 364 366 366 366 364 366 368 368 366 367 367 367 366 368 368
365 364 365 367 365 363 362 363 364 365 365 364 362 363 366 364 364 364 366 368 366 365 367 367 368 368 367 365 365 367 366 363 363 366 366 365 365 367 366 367 366 368
367 366 365 364 362 362 362 362 362 363 365 365 363 362 363 366 365 365 367 369 367 367 367 369 368 367 367 367 367 368 367 367 365 365 366 366 366 366 365 366 365 366
365 364 364 363 362 361 361 362 361 362 364 364 364 361 362 365 366 366 367 369 366 367 367 368 368 369 368 366 366 368 368 366 366 366 367 367 367 367 366 368 366 365
365 364 364 363 362 360 360 361 361 361 363 364 364 362 362 363 365 365 365 368 370 368 368 369 370 369 369 368 364 366 367 367 366 366 366 367 368 366 367 368 366 367
365 364 363 362 363 362 361 361 361 360 361 362 363 362 361 360 363 366 366 367 369 369 367 369 370 368 369 369 367 366 366 368 363 363 365 366 367 365 364 365 366 366
365 366 364 364 364 365 364 362 361 361 362 363 364 363 360 360 360 363 365 366 367 368 368 369 370 369 369 370 369 366 364 366 367 363 362 365 366 366 365 362 364 365
366 366 367 365 364 365 365 364 363 363 363 364 365 364 361 360 361 362 364 365 366 367 368 367 366 368 368 368 368 368 366 364 366 366 363 362 364 364 364 364 362 361
367 368 367 367 365 365 366 365 364 364 362 363 364 364 364 364 364 363 362 364 365 367 368 367 366 367 362 347 353 367 367 363 364 366 366 364 363 363 362 362 362 362
367 367 367 366 366 366 366 366 364 364 364 365 365 365 365 366 364 363 362 362 364 365 366 365 366 365 346 336 338 344 363 367 364 365 368 367 364 364 364 361 360 362
367 368 367 367 367 367 367 367 365 365 365 366 365 365 366 365 364 364 364 362 362 364 364 365 366 352 333 333 335 335 345 365 365 365 364 365 364 362 362 362 361 359
368 367 367 367 367 367 368 367 367 366 365 365 364 366 366 366 367 365 365 364 363 364 363 363 365 344 330 331 332 332 334 348 361 364 363 363 364 364 363 363 364 363
367 367 367 367 368 367 368 367 366 365 364 364 365 366 366 366 365 366 366 367 365 365 365 365 366 343 329 327 328 329 330 339 361 360 362 363 365 365 364 365 365 365
367 367 367 367 368 367 367 367 366 366 365 364 363 364 365 365 365 365 366 367 365 364 364 363 365 334 326 324 324 324 327 332 361 359 359 362 364 366 367 366 368 367
366 366 367 367 367 366 366 365 366 367 366 365 364 363 365 366 366 366 366 366 366 365 363 363 364 329 324 323 322 323 324 350 361 361 360 361 363 366 367 369 369 369
365 365 365 366 366 365 365 364 365 366 366 367 364 363 362 363 365 364 366 365 365 366 365 364 365 340 321 320 321 320 327 357 361 361 362 363 364 366 367 367 367 369
365 365 365 365 365 364 364 364 365 366 366 367 364 361 360 362 364 365 366 366 364 365 364 365 365 343 318 318 319 317 335 359 361 361 362 363 364 366 366 367 368 363
365 366 365 364 364 364 364 364 365 365 366 366 364 363 361 364 365 365 364 366 364 364 357 361 365 346 317 318 317 316 337 362 362 362 361 362 362 363 366 367 369 366
366 367 366 364 365 365 365 365 366 365 365 364 364 363 362 362 362 364 364 364 364 363 363 363 363 366 340 316 316 315 322 360 363 360 359 360 362 362 364 367 367 370

ECMWFNIL_sfc_thetae_087.txt.gz
Theta_e
364 365 362 360 359 358 359 361 360 359 356 351 353 360 359 363 364 362 364 366 367 367 367 369 369 369 367 368 370 366 364 364 364 364 366 365 363 362 359 358 360 356
365 366 365 364 363 362 362 362 363 360 358 357 355 358 363 363 364 363 364 365 368 367 368 366 369 369 369 366 369 367 365 365 364 363 364 366 365 364 360 361 359 361
366 366 365 364 360 362 359 361 363 361 357 356 355 359 360 363 364 367 366 365 365 365 367 367 368 369 368 368 368 367 364 366 364 361 364 366 364 365 365 359 361 361
366 366 365 364 363 363 362 361 361 362 358 358 356 356 358 359 363 365 367 367 366 366 365 366 366 365 367 367 368 366 365 367 365 366 364 366 366 365 364 364 362 361
365 365 366 365 364 365 364 361 358 359 358 358 359 360 361 363 363 364 366 366 368 366 366 365 366 365 367 367 369 366 364 363 366 368 365 365 367 366 364 364 364 362
366 367 368 367 366 364 362 360 359 358 359 356 360 360 359 361 361 362 363 364 364 362 360 363 365 365 364 367 368 367 363 360 361 368 365 364 364 364 362 363 365 364
365 366 367 367 365 364 364 363 361 361 360 358 362 360 360 361 362 363 362 362 361 362 359 361 365 363 365 365 367 367 367 366 364 366 367 365 366 364 362 363 365 365
365 366 366 367 366 364 364 363 363 361 363 363 359 362 362 361 364 363 362 361 360 360 362 360 364 366 362 364 365 366 367 363 364 365 366 367 366 366 364 363 365 367
366 366 366 366 365 364 362 362 364 364 363 363 359 360 363 362 363 363 364 364 363 362 363 361 365 363 364 364 364 365 366 363 360 363 365 364 364 366 365 366 364 366
366 366 364 363 363 362 361 361 361 363 363 363 361 359 361 364 363 365 364 366 363 363 364 364 363 362 364 364 363 364 365 366 365 363 363 364 364 364 363 364 363 364
365 364 364 363 362 361 362 360 359 361 364 363 362 358 359 363 364 366 367 366 362 363 364 365 364 365 365 363 363 364 365 365 365 365 364 365 365 366 365 364 364 363
365 364 363 362 361 360 360 360 358 359 361 362 363 360 359 361 363 363 364 367 367 366 366 367 368 368 367 366 362 363 364 365 365 364 362 364 365 365 366 365 363 364
365 363 363 361 361 360 360 359 358 357 358 360 362 361 358 357 361 363 364 366 369 368 366 367 369 368 370 369 366 364 364 365 362 362 363 363 364 363 363 363 363 362
366 365 362 363 362 365 362 360 358 357 357 360 363 362 358 357 358 361 363 365 368 368 368 369 370 370 371 372 369 365 363 364 364 361 360 361 362 364 363 360 359 360
368 367 366 365 365 365 362 361 360 359 359 361 364 362 359 357 357 359 362 363 366 369 368 367 368 369 370 370 371 368 365 362 365 364 361 360 361 361 361 361 357 355
370 370 367 368 365 365 365 362 361 361 357 358 361 362 362 361 360 358 360 362 363 366 368 366 366 369 365 352 356 369 367 362 364 367 365 361 360 361 359 358 357 355
371 369 370 369 368 365 365 365 363 362 361 364 364 364 365 366 362 357 357 361 362 364 366 365 365 366 350 339 341 349 366 367 363 365 367 365 360 361 360 356 355 356
370 370 370 369 368 368 368 367 363 364 365 366 362 363 368 363 360 359 362 359 361 363 364 365 366 355 336 336 338 338 350 368 363 362 364 364 363 360 359 359 358 355
372 371 370 368 369 369 369 368 367 365 363 362 361 364 365 366 366 362 362 361 361 364 362 364 365 346 332 333 335 335 336 354 364 362 359 361 363 362 360 361 361 359
372 371 370 370 370 370 370 368 366 365 363 362 363 366 367 366 363 364 364 366 364 364 366 365 368 342 330 329 332 331 334 342 364 361 361 360 361 361 360 360 360 359
371 371 371 371 371 370 371 369 367 367 365 363 362 364 366 367 365 364 365 366 363 362 363 363 366 333 327 326 327 328 330 336 362 358 358 361 362 362 365 362 365 362
370 371 371 371 370 370 370 369 368 369 368 365 364 362 366 367 368 366 365 365 365 363 361 362 365 325 326 325 325 326 328 355 364 361 359 359 361 364 365 367 366 365
370 370 371 370 370 369 369 369 369 369 368 368 364 362 362 365 367 365 367 366 366 365 363 364 364 334 322 321 322 323 331 361 363 363 363 362 361 363 364 365 366 369
371 371 370 370 370 369 369 369 369 369 368 369 365 362 358 362 366 366 366 366 365 365 364 363 363 344 317 319 320 320 338 362 363 362 363 363 363 364 365 365 368 369
370 371 370 369 370 369 368 369 369 369 370 370 365 364 361 362 363 364 364 366 365 365 362 362 363 348 316 319 318 317 339 365 364 363 362 364 363 364 366 367 369 369
370 371 372 370 370 370 370 370 370 369 369 367 366 365 362 359 360 362 363 364 363 363 363 365 365 361 334 317 316 316 325 364 365 362 361 362 364 364 364 366 366 369

ECMWFNIL_sfc_thetae_090.txt.gz
Theta_e
361 361 359 358 358 357 360 362 360 358 360 356 359 361 362 365 367 366 364 368 370 369 371 373 373 373 370 374 374 372 376 367 367 369 370 370 367 365 358 359 367 367
361 362 361 360 360 360 362 364 363 362 362 361 358 363 366 368 364 368 365 368 369 368 371 369 372 373 372 370 374 371 372 370 369 363 367 369 370 368 359 362 359 365
362 363 361 359 357 359 354 360 364 364 362 358 359 365 364 366 365 368 368 368 366 365 371 371 371 372 370 373 373 371 367 372 367 364 369 368 369 370 368 359 360 363
363 363 359 357 357 357 356 357 362 364 361 360 355 355 361 359 365 365 369 370 369 368 367 367 368 367 369 370 372 370 369 371 369 372 372 370 370 367 365 368 364 363
363 363 362 360 359 359 358 357 356 360 359 360 356 357 363 367 364 364 366 367 370 367 368 368 369 367 370 370 371 370 367 367 369 372 372 372 371 369 365 367 370 368
364 363 364 362 361 361 358 357 358 358 359 356 357 354 357 368 362 363 364 363 363 362 362 363 365 365 366 369 370 368 367 363 365 369 368 369 365 367 363 368 368 367
362 364 364 363 361 362 360 359 359 360 359 357 359 355 356 358 362 362 364 364 361 363 362 363 366 365 365 368 368 370 370 370 370 367 367 366 369 368 364 368 370 368
363 362 363 363 360 361 361 362 360 360 361 359 358 360 358 356 360 360 364 364 362 363 363 364 367 368 364 366 367 367 366 363 366 370 367 367 367 366 368 367 370 369
363 363 363 362 360 359 358 360 359 359 361 359 355 356 361 358 360 359 363 365 364 364 364 364 367 365 364 365 365 366 365 363 362 365 367 365 365 366 365 367 366 367
364 363 361 360 359 359 358 359 358 357 359 359 356 356 358 361 362 361 364 365 363 364 364 363 366 364 363 364 365 366 365 366 367 364 364 365 365 365 364 365 363 364
361 361 360 360 359 359 358 357 358 357 356 356 355 355 357 359 363 364 364 365 361 362 363 362 362 363 363 361 363 364 366 365 365 366 365 365 365 366 368 366 365 363
361 361 361 359 359 358 358 357 357 357 355 356 357 355 357 357 361 362 363 364 362 362 364 363 363 363 364 363 362 363 364 364 365 366 363 365 365 365 365 365 364 364
362 361 360 359 360 359 358 358 356 357 357 355 358 356 355 357 358 360 363 364 364 363 362 363 363 362 364 365 364 363 363 363 361 364 363 363 363 363 363 364 364 364
362 362 362 362 361 362 362 359 356 358 360 360 360 358 354 355 357 358 361 363 364 362 363 364 365 364 365 366 366 364 363 363 363 363 362 362 361 362 362 361 363 363
365 364 364 364 363 363 362 361 359 359 361 362 361 359 356 354 358 358 360 361 364 364 364 363 365 365 365 366 365 365 363 362 363 362 362 361 360 359 360 361 360 360
367 366 364 365 364 363 363 362 361 360 358 361 361 360 359 358 356 360 360 360 363 366 366 364 364 366 361 351 354 364 364 359 362 363 361 360 360 360 359 359 359 358
367 366 366 365 364 364 363 362 361 359 358 360 362 361 360 361 359 359 359 360 361 363 365 364 364 365 349 339 342 349 362 363 361 364 364 363 361 361 359 357 358 359
367 368 367 366 365 364 363 363 361 360 359 361 361 361 363 362 359 359 360 360 359 362 363 365 364 355 338 337 339 340 351 365 362 362 363 363 361 358 359 359 358 357
368 368 367 366 365 365 365 363 362 361 360 360 360 361 363 363 361 359 360 360 360 360 362 365 365 346 334 334 336 336 339 357 363 361 360 362 362 361 358 359 359 358
369 368 367 366 366 367 366 363 362 362 360 359 359 361 363 363 362 360 360 362 361 362 362 364 365 345 330 331 332 333 335 344 367 363 361 360 363 363 361 360 360 359
370 369 368 367 367 366 366 364 362 363 361 359 356 358 362 363 362 360 360 361 361 362 363 362 364 336 327 327 328 329 331 338 365 363 360 361 363 364 365 363 363 360
370 370 369 368 367 366 365 364 363 363 362 361 358 356 361 365 365 362 361 360 360 359 358 361 361 328 326 325 326 327 330 352 364 363 360 360 362 363 364 366 366 364
369 370 369 369 367 365 364 364 363 363 363 363 360 358 358 362 363 361 363 361 359 360 359 360 367 332 323 323 324 325 331 356 362 363 361 359 360 366 367 366 365 365
370 370 370 369 368 364 364 364 365 364 363 364 361 359 356 359 362 362 363 362 359 360 360 361 364 337 318 320 322 321 338 359 362 362 362 360 361 362 364 365 366 369
371 372 370 368 368 366 363 364 364 363 362 364 361 360 359 363 364 363 363 363 361 361 359 362 361 346 315 320 319 319 337 361 362 362 361 361 361 361 363 364 366 368
371 372 371 369 369 369 368 368 367 364 362 361 360 359 359 361 363 364 364 364 362 361 362 363 361 363 328 317 317 317 326 361 364 362 360 360 361 361 360 361 363 366

ECMWFNIL_sfc_thetae_093.txt.gz
Theta_e
352 351 349 348 350 352 347 346 345 348 353 355 357 357 357 358 359 358 363 363 362 362 361 361 361 360 361 360 361 362 361 360 360 360 359 359 355 356 355 352 352 353
351 352 352 349 349 354 350 349 346 346 350 354 356 357 357 357 358 358 361 362 362 361 363 361 361 361 360 362 360 360 361 359 359 363 360 360 356 357 357 352 351 351
351 351 351 348 348 350 354 351 349 347 350 352 356 357 357 358 357 358 360 361 361 361 362 362 361 362 363 362 361 360 360 358 357 360 360 359 358 358 358 355 350 354
350 350 350 349 348 349 354 353 352 350 351 352 352 357 357 360 356 360 358 366 361 360 362 362 362 362 362 363 361 360 360 360 358 358 358 360 359 360 359 358 354 352
350 350 350 350 349 350 350 354 354 353 353 352 352 355 357 357 356 358 357 362 360 360 362 362 362 362 362 362 362 359 361 358 360 360 360 358 359 359 360 358 357 354
351 351 351 350 349 349 348 351 355 355 355 353 351 352 356 355 357 356 358 360 360 361 361 361 361 361 362 361 362 360 360 360 359 359 359 360 360 360 361 359 356 355
351 351 351 350 349 350 348 348 352 356 355 355 352 349 354 355 356 355 358 358 361 360 360 360 360 360 362 360 361 360 360 359 358 359 357 357 360 358 358 357 357 354
351 352 352 351 349 350 349 348 349 353 355 355 352 349 349 357 355 357 357 357 359 359 358 359 360 359 361 360 360 359 359 363 360 358 356 355 356 356 358 360 360 355
352 352 353 352 350 350 350 349 349 351 355 353 353 350 349 354 356 357 357 357 356 358 357 357 359 358 359 360 359 360 358 359 360 360 357 356 356 355 356 357 358 358
352 353 353 353 351 351 351 351 350 351 355 354 353 351 349 350 356 356 357 357 356 356 357 357 358 358 358 359 359 359 359 358 357 358 359 358 358 358 357 357 356 356
353 353 353 353 352 352 352 352 351 351 354 354 353 352 350 349 354 355 357 357 357 357 357 357 358 358 358 358 360 360 360 359 358 357 358 359 359 359 365 358 357 356
354 353 353 353 353 352 352 353 353 353 353 355 353 351 351 350 352 354 355 357 357 358 358 357 358 358 358 358 359 359 360 360 359 359 358 358 360 360 361 360 359 358
355 354 354 353 354 353 353 353 354 354 353 353 354 351 351 351 352 353 355 356 357 358 358 357 357 359 357 357 357 358 359 359 359 359 359 358 358 359 361 361 361 360
356 356 355 354 354 354 354 354 354 355 353 353 354 351 351 352 353 353 354 356 357 357 358 358 356 357 357 356 356 357 358 358 359 358 358 358 358 358 359 359 360 360
357 357 357 356 355 355 355 354 354 354 354 352 353 352 351 353 354 355 355 355 357 356 356 358 356 355 357 357 356 356 357 357 357 358 358 357 356 357 358 358 359 359
357 357 357 356 356 355 355 354 354 354 354 352 351 351 350 352 353 355 355 355 356 356 355 357 357 357 353 345 348 357 356 357 357 357 357 357 356 355 355 356 357 358
357 357 356 355 356 355 355 355 353 353 353 352 351 351 351 351 353 353 354 355 356 356 355 355 357 358 345 336 338 344 356 356 356 355 356 356 356 355 354 354 356 356
358 357 356 355 356 355 355 355 354 353 352 353 352 352 352 351 351 353 354 355 356 357 356 356 356 351 337 334 336 337 345 358 356 356 356 355 355 355 355 354 353 354
358 357 356 356 356 356 356 356 355 353 352 353 353 354 354 352 350 352 353 354 355 356 356 357 356 346 334 332 333 334 336 350 356 355 356 355 355 354 354 354 353 353
359 358 357 356 357 357 356 355 355 354 353 354 355 355 354 353 352 351 353 354 355 355 357 358 358 347 332 330 330 331 333 341 356 355 355 356 356 356 355 354 353 353
359 359 357 357 357 357 357 355 355 355 354 353 355 355 354 353 352 351 353 355 355 356 357 359 360 341 328 327 327 327 330 336 356 357 356 355 356 357 357 356 354 354
360 359 358 358 357 357 357 356 355 354 354 353 353 355 355 355 355 353 352 354 355 355 355 356 360 335 327 325 325 325 328 345 355 357 357 355 355 356 358 358 357 356
360 359 359 358 358 357 356 356 355 354 355 355 352 353 354 354 354 354 353 353 354 355 355 355 358 338 325 323 323 324 329 350 354 357 358 356 355 355 357 358 359 358
361 360 359 359 358 357 357 357 357 356 355 356 353 351 353 355 355 355 354 354 353 354 356 355 356 340 322 321 321 321 334 352 355 357 357 357 356 355 356 358 360 368
362 361 361 360 359 358 358 357 357 356 355 356 355 353 352 355 356 355 355 355 354 353 355 354 356 343 319 321 320 319 332 353 356 356 356 356 355 354 354 354 354 363
363 362 362 361 360 359 359 359 359 357 356 355 355 354 352 353 356 356 354 355 355 355 354 354 353 354 331 318 318 318 324 353 356 356 355 355 356 354 353 353 353 354

ECMWFNIL_sfc_thetae_096.txt.gz
Theta_e
347 344 347 343 338 338 339 341 344 348 350 352 352 352 354 357 359 360 360 359 359 358 356 356 356 358 358 359 360 359 359 356 356 355 352 353 349 348 347 346 345 343
346 346 348 346 341 341 340 342 342 350 350 352 353 354 354 358 358 360 360 359 359 358 357 355 356 356 356 357 358 358 357 356 355 359 354 353 351 351 351 349 348 348
346 346 345 346 343 342 341 341 342 349 351 353 354 354 355 358 357 358 360 359 358 358 358 356 356 355 356 356 357 358 356 355 355 357 356 353 354 351 351 353 351 348
347 347 345 346 346 345 343 341 341 344 352 352 354 356 356 358 357 356 358 364 358 357 358 357 357 357 355 357 356 356 356 356 356 356 356 356 356 354 353 353 355 350
347 347 347 346 347 348 347 343 341 340 347 352 354 355 356 356 355 355 356 359 358 357 357 358 356 357 357 357 356 354 356 356 356 355 355 355 356 356 355 355 354 353
349 348 348 347 345 347 348 345 343 342 342 349 352 355 355 355 354 355 354 357 358 358 357 358 357 357 358 358 357 354 355 355 356 355 354 354 355 356 357 356 354 353
349 348 347 348 346 345 348 348 346 345 342 344 350 352 354 354 354 353 354 356 357 357 357 357 357 356 357 357 357 355 355 356 355 355 355 355 355 355 356 355 355 353
349 349 348 348 346 345 345 349 349 348 346 345 345 349 353 353 353 353 354 355 357 357 357 357 357 357 357 356 357 356 355 357 356 354 353 354 355 355 355 355 354 353
349 349 349 347 346 345 344 345 349 350 350 347 346 346 350 352 352 353 353 354 356 357 356 357 357 357 358 357 357 357 355 356 357 355 353 352 353 355 355 355 353 353
349 349 348 347 346 346 344 344 345 350 352 350 349 348 347 351 352 353 353 353 355 356 356 356 357 357 357 357 357 357 357 356 356 356 355 354 353 353 354 354 354 353
349 349 348 347 346 346 345 345 344 345 351 352 351 349 348 348 351 353 352 353 354 355 356 356 356 357 357 357 357 358 357 356 356 356 356 355 354 353 358 353 353 353
349 348 348 347 347 347 346 345 345 344 346 351 352 351 349 347 348 352 353 352 353 354 356 356 356 357 357 357 357 357 357 357 356 356 356 356 355 354 354 354 353 353
349 349 349 348 348 348 347 346 346 345 345 347 352 352 350 348 347 349 353 353 353 353 354 356 356 356 356 356 357 357 357 356 356 355 355 356 357 356 356 356 356 355
351 351 350 349 349 349 348 347 347 346 346 346 349 350 350 349 347 347 351 354 354 353 354 355 355 355 356 356 356 357 357 356 356 356 355 355 356 356 357 357 358 357
353 353 352 351 350 349 349 348 347 347 347 347 348 349 351 350 349 348 349 351 354 354 354 355 354 355 356 356 355 355 356 356 356 356 355 355 355 355 356 357 358 358
355 354 353 352 350 349 349 349 348 348 348 347 347 349 349 350 349 348 348 350 351 353 354 355 355 355 353 344 347 356 355 356 356 356 355 355 355 354 355 356 357 357
355 355 354 352 351 351 350 350 349 349 349 348 348 349 349 349 350 348 348 348 350 352 353 354 355 355 343 336 337 342 353 355 355 355 355 355 354 354 353 354 355 356
356 355 354 354 353 351 351 350 350 349 349 349 349 349 349 349 349 348 348 349 349 350 351 353 354 348 335 333 335 335 343 356 355 355 355 354 355 354 354 354 354 354
357 355 355 354 353 353 352 351 350 350 349 349 349 350 350 349 348 348 349 349 349 349 350 352 353 343 333 330 332 333 334 347 354 354 353 354 354 354 354 354 353 353
357 356 355 354 354 354 353 352 351 350 350 350 351 350 349 349 348 348 348 349 350 350 350 352 352 343 332 328 328 329 331 338 354 354 353 354 353 354 354 354 353 352
357 356 355 355 355 354 353 352 351 351 351 351 351 350 349 348 348 347 348 349 350 351 351 351 353 339 329 326 325 325 327 333 352 354 354 353 354 354 353 354 353 354
357 356 356 355 355 354 353 352 352 351 351 351 351 351 351 350 349 349 348 349 350 351 351 351 353 335 328 325 324 323 326 339 348 351 352 352 353 353 354 354 354 353
358 357 356 355 355 354 353 353 352 352 352 352 351 350 350 350 349 349 349 349 350 351 350 351 352 339 326 323 322 322 326 342 346 349 351 351 351 352 354 355 355 354
359 358 357 356 355 354 353 353 354 353 353 354 351 350 350 351 351 350 350 349 349 350 351 351 351 342 323 321 320 320 330 344 347 348 350 351 351 352 353 353 356 364
359 359 358 357 356 355 355 354 353 353 354 354 353 352 351 352 353 351 350 350 350 351 353 351 352 344 322 322 319 318 329 347 349 349 350 351 352 352 353 353 353 360
360 359 358 358 357 356 356 355 355 355 354 353 353 353 352 351 352 352 351 351 351 351 352 353 352 353 339 319 319 317 321 347 351 350 350 351 352 353 353 353 353 353

ECMWFNIL_sfc_thetae_099.txt.gz
Theta_e
343 342 341 341 338 338 338 340 342 345 346 348 349 350 350 352 355 356 356 356 357 356 355 355 356 356 357 356 357 356 356 353 353 350 348 348 345 343 344 340 338 338
343 343 345 343 341 340 338 341 341 344 346 348 349 350 350 352 354 357 356 356 357 356 355 354 355 355 355 355 355 355 354 353 352 355 350 348 347 345 345 342 343 342
342 343 343 342 341 338 336 340 341 343 346 348 350 351 351 354 354 356 357 356 356 356 355 353 353 353 354 354 354 355 355 352 352 354 352 349 348 348 347 347 345 344
342 343 343 343 343 340 337 338 340 344 346 347 349 351 352 354 355 355 356 361 356 356 356 354 353 353 353 353 353 354 355 354 353 353 353 350 351 349 348 346 349 348
343 343 343 343 344 342 338 337 338 342 346 347 349 351 353 352 354 354 355 357 356 355 355 355 353 353 353 352 352 353 354 353 352 352 352 351 351 351 350 347 346 347
345 344 344 343 343 343 339 337 338 339 345 348 349 351 352 352 353 354 354 355 357 356 355 355 355 354 353 352 352 352 353 353 353 352 351 351 351 353 354 350 347 347
345 344 344 344 343 343 342 340 338 340 341 348 350 350 352 352 352 353 353 355 356 356 355 355 355 354 354 353 352 351 351 353 352 352 351 351 351 351 352 350 350 349
345 345 345 344 343 343 344 343 341 340 339 343 348 350 352 352 352 353 353 353 355 355 355 355 355 354 354 353 353 351 350 353 352 352 351 351 350 350 351 353 351 349
346 346 345 344 343 343 343 344 345 343 341 339 343 348 351 352 352 352 352 352 353 354 355 354 354 354 354 353 353 352 351 352 353 351 351 351 350 351 351 351 350 350
346 346 346 345 344 344 343 343 344 345 346 341 340 342 347 351 351 351 351 351 351 352 353 354 354 354 354 354 353 353 353 352 352 352 351 351 351 352 352 352 351 350
346 347 346 345 344 344 344 343 343 345 347 345 343 340 342 346 350 350 350 350 350 351 352 353 354 354 354 354 354 354 354 354 353 352 352 351 351 351 357 352 352 351
346 346 346 346 345 345 344 344 343 343 345 347 347 344 342 342 345 348 350 349 350 350 352 353 354 354 354 354 354 354 354 354 354 353 353 352 352 351 351 352 353 352
347 347 347 347 347 346 346 345 344 343 343 345 348 347 345 343 343 345 348 349 349 350 351 352 353 354 354 354 355 355 354 354 354 354 353 353 353 353 352 352 352 352
347 348 348 347 347 347 346 345 345 344 343 343 346 348 348 346 345 344 345 348 348 349 350 352 352 353 354 354 355 355 355 354 354 354 354 353 353 354 354 353 353 352
348 348 348 348 348 347 346 346 345 344 344 343 343 345 348 348 348 346 344 345 348 349 349 351 352 353 354 354 354 354 355 354 354 354 354 353 353 353 354 355 355 354
349 349 349 348 348 347 346 346 346 345 344 343 342 342 344 347 348 348 346 344 345 348 349 350 351 352 351 343 345 354 354 355 355 354 354 353 353 352 352 353 355 355
349 349 349 348 348 347 347 347 346 345 344 343 343 342 342 344 347 346 346 346 345 346 348 350 351 351 341 334 335 340 352 354 354 353 354 354 353 352 352 352 353 354
351 350 350 349 348 348 347 347 347 346 345 344 343 342 343 343 344 345 346 346 346 345 346 349 350 344 334 332 333 333 340 355 354 353 353 353 353 353 353 353 352 353
352 351 351 350 350 349 349 348 347 346 345 345 344 344 344 343 343 344 345 346 345 344 345 347 349 340 332 330 331 331 332 344 354 353 352 353 353 353 353 352 352 352
353 352 351 351 351 351 350 349 348 347 347 346 346 346 344 344 344 343 344 345 345 345 345 346 347 340 331 328 327 328 330 335 352 353 353 353 353 353 353 353 352 352
353 353 352 352 352 352 351 350 349 348 348 347 347 346 345 344 344 344 344 345 345 346 345 345 347 335 328 326 324 324 326 331 349 353 353 352 353 353 353 353 353 353
354 354 353 353 353 352 351 350 350 349 348 348 348 347 347 347 347 346 345 345 346 346 346 345 347 331 326 324 323 323 325 338 345 349 351 352 352 352 352 353 353 353
356 355 354 354 354 353 352 352 351 350 350 350 349 348 347 347 347 347 347 346 346 346 346 346 347 336 324 321 321 321 324 340 344 347 349 350 351 351 352 352 353 353
357 356 355 355 354 353 353 353 353 353 352 352 349 348 348 348 348 348 348 348 347 346 346 346 347 339 323 319 319 319 329 341 344 345 347 349 350 351 351 352 353 361
357 357 357 356 355 355 355 354 353 353 353 353 352 351 350 349 349 348 348 348 348 348 350 347 347 341 323 319 318 317 327 342 345 345 345 346 348 349 350 351 350 357
353 356 357 357 356 356 356 355 355 355 354 353 352 352 350 350 350 349 348 348 348 348 348 348 348 348 340 318 317 315 320 342 345 345 345 345 347 347 348 348 349 350

ECMWFNIL_sfc_thetae_102.txt.gz
Theta_e
344 343 342 342 341 342 342 345 348 349 350 351 353 354 354 356 358 358 359 360 360 360 359 359 361 361 361 361 361 360 360 358 357 355 353 352 350 348 346 346 344 346
344 344 345 343 342 344 342 344 346 349 349 350 352 354 355 356 356 358 358 359 360 360 360 359 359 360 360 360 360 359 359 359 357 357 354 353 353 350 349 348 345 346
344 344 344 342 341 341 340 342 345 347 348 349 351 353 354 356 355 357 358 359 359 359 359 359 358 359 359 359 359 359 358 358 357 358 357 355 353 353 353 350 349 349
344 344 344 343 343 341 340 341 342 344 346 348 349 352 353 354 355 356 357 361 359 359 359 359 358 358 358 358 359 358 359 359 358 358 358 357 356 354 354 353 355 354
344 344 344 344 344 344 341 339 340 342 343 346 348 351 354 354 355 355 357 359 359 358 359 359 358 357 358 357 358 358 357 357 358 358 357 357 357 356 355 354 354 354
345 345 345 344 345 344 340 339 340 341 343 344 347 351 352 353 354 355 356 357 358 358 358 358 358 357 356 357 357 357 357 357 357 357 356 356 356 357 356 357 355 354
344 344 343 344 344 344 342 340 340 342 342 345 348 349 352 352 353 355 356 357 358 358 358 358 358 358 357 357 356 356 356 357 357 356 356 356 357 356 357 357 357 355
345 344 344 344 343 344 344 341 340 340 342 346 347 348 351 352 353 354 355 356 357 358 359 358 358 359 357 357 356 355 354 355 356 356 356 355 356 356 356 357 357 356
345 345 344 343 342 343 343 343 341 340 341 343 346 348 352 352 352 353 354 355 356 357 358 358 358 358 358 357 357 356 355 354 356 356 356 355 354 355 355 356 356 356
345 346 345 343 342 342 342 343 343 342 342 341 343 347 350 352 353 353 354 354 354 356 357 357 357 357 357 357 357 357 356 355 356 356 356 356 356 356 356 356 355 355
345 345 345 344 343 343 343 343 344 344 343 341 341 343 348 351 353 354 353 353 353 354 355 356 357 357 357 357 357 357 357 356 356 356 356 356 356 357 358 357 356 356
345 345 345 345 344 344 344 343 344 344 345 345 342 341 343 347 351 352 352 352 353 353 354 355 357 357 357 357 357 357 357 357 357 356 356 356 356 355 356 357 357 357
345 345 346 346 346 345 345 345 344 344 344 345 346 343 341 342 346 349 352 352 352 353 353 354 355 356 357 357 357 357 357 357 356 356 356 356 357 356 356 356 356 356
346 346 346 347 347 347 346 345 345 344 344 345 347 346 344 342 342 344 348 351 352 352 353 354 354 355 356 356 357 357 357 356 356 356 356 356 357 357 357 356 356 356
347 348 348 348 348 348 347 346 346 345 345 345 345 346 347 346 345 343 343 346 349 351 351 352 352 353 354 355 356 357 357 356 356 356 356 356 356 356 357 358 357 357
348 349 348 348 348 348 348 347 347 346 345 344 344 345 346 348 348 347 345 344 344 347 349 350 351 352 350 342 344 355 357 356 357 357 357 357 356 356 356 357 357 358
348 348 349 348 348 348 348 348 348 347 346 346 345 344 344 347 348 347 346 346 344 344 346 348 349 350 340 334 335 339 353 356 356 356 357 357 356 356 355 355 356 357
347 348 348 348 349 348 349 349 348 348 347 346 345 344 344 345 345 346 347 347 346 346 345 346 348 343 333 332 333 333 339 356 356 356 356 356 356 356 356 356 356 356
348 348 348 348 349 349 349 349 349 348 347 346 345 346 345 344 344 344 345 347 347 346 345 346 347 338 331 330 330 331 331 344 356 356 355 355 356 356 356 357 357 357
348 348 348 349 349 349 349 349 348 348 347 347 347 347 346 344 344 344 344 345 346 347 347 347 347 338 329 327 327 327 329 335 354 355 355 355 356 356 356 357 357 356
349 349 348 349 350 350 350 349 349 348 348 348 348 347 346 345 344 344 344 345 345 346 346 346 347 334 326 324 324 324 326 330 351 354 355 355 356 356 356 357 357 357
350 350 350 350 350 350 350 349 349 349 348 349 349 348 348 347 347 346 345 344 345 345 345 345 347 330 325 323 322 322 324 339 348 352 353 354 355 355 356 357 358 358
352 352 351 351 352 351 350 350 350 350 350 351 349 349 348 347 347 346 347 346 345 345 345 345 346 335 323 321 320 320 324 342 347 350 352 353 353 355 356 357 357 357
355 354 353 353 353 352 352 352 352 352 351 352 350 349 348 348 348 348 348 348 346 346 345 345 345 338 321 318 318 319 329 343 346 347 349 351 352 354 355 356 357 359
356 357 355 354 354 354 354 353 353 353 353 354 352 351 350 351 351 349 349 349 348 347 348 346 347 340 322 318 317 316 327 345 347 347 348 349 350 352 354 355 355 358
353 355 358 357 356 356 356 355 356 355 355 354 353 353 352 352 351 351 349 349 350 349 349 348 347 348 341 318 316 314 319 344 348 347 347 348 349 350 351 352 354 355

ECMWFNIL_sfc_thetae_105.txt.gz
Theta_e
357 357 355 355 356 357 359 358 359 360 362 361 361 364 364 367 369 369 369 369 368 367 367 369 370 372 371 372 373 370 369 367 365 365 366 364 361 358 354 356 358 357
357 357 358 356 358 359 360 360 361 361 363 364 363 365 368 368 368 369 369 369 369 368 370 370 371 372 372 370 372 369 368 369 367 363 365 365 363 362 356 357 355 358
356 356 355 354 352 354 352 357 360 361 361 361 363 365 365 367 367 369 370 369 368 366 370 371 371 371 371 371 372 370 366 369 367 364 366 365 363 363 362 357 357 357
357 356 354 353 353 353 354 355 357 360 360 361 361 362 363 363 366 366 368 368 369 368 369 369 369 369 370 370 371 367 368 369 367 369 367 366 365 363 362 362 359 358
356 356 355 355 354 356 356 354 352 354 356 358 360 363 364 365 366 364 366 367 369 368 369 369 369 368 370 370 371 367 366 366 368 370 367 366 367 366 362 362 361 358
356 357 357 355 356 356 353 353 353 352 354 355 357 359 360 363 363 363 364 364 364 364 364 365 367 367 368 369 369 368 365 363 364 369 367 366 364 364 361 363 362 360
354 355 355 355 354 354 354 353 354 355 353 354 357 357 359 359 361 362 363 363 362 365 364 365 368 367 367 368 368 368 367 367 366 369 367 365 366 365 363 365 365 363
353 354 354 354 353 353 353 353 353 353 355 355 354 356 358 357 359 359 362 362 361 364 366 366 369 369 366 367 367 366 366 364 366 368 367 366 366 365 365 365 366 365
353 353 353 353 352 352 351 351 351 353 354 354 351 352 357 357 358 357 362 364 363 364 368 367 369 368 367 366 366 367 366 364 363 365 365 364 364 365 364 366 364 365
353 353 351 351 350 351 351 351 351 351 353 352 352 352 353 357 358 358 362 364 362 365 367 367 368 367 367 367 367 367 366 366 366 366 365 364 363 363 362 364 363 363
351 351 351 350 350 350 350 350 351 350 351 351 351 350 352 356 359 360 361 363 359 361 364 366 366 366 367 365 366 367 366 365 366 367 366 365 364 364 363 364 363 362
352 351 350 350 350 350 350 350 351 351 351 350 350 350 352 353 357 358 359 361 361 361 363 366 367 367 368 367 365 366 366 365 366 366 365 366 365 364 364 364 363 364
351 351 351 350 351 350 351 351 350 350 350 350 350 350 350 350 353 356 359 359 361 361 360 363 365 365 367 368 366 366 366 366 363 364 364 365 365 364 363 363 363 363
352 353 352 353 353 354 353 351 350 351 352 352 352 350 349 349 350 352 356 357 359 359 361 362 365 364 367 368 367 366 365 365 364 363 362 363 363 364 363 363 363 363
355 354 354 354 354 355 354 353 352 352 352 352 353 351 349 349 349 350 353 355 357 359 359 360 360 362 363 365 366 366 365 363 364 363 362 362 362 361 362 362 363 363
356 356 355 356 355 355 355 354 353 353 351 352 352 352 352 352 352 351 350 352 355 358 359 358 359 360 357 347 350 364 365 361 363 364 363 361 362 361 360 361 361 362
357 356 356 356 356 355 356 355 354 353 353 353 352 352 353 355 353 351 350 349 350 352 355 356 357 357 344 336 337 341 358 363 362 364 364 363 361 362 361 359 360 362
355 356 356 356 356 356 356 356 355 354 354 354 353 352 354 354 353 352 352 351 349 350 350 352 355 346 334 332 333 333 341 360 360 360 360 361 360 359 360 360 360 361
357 357 357 356 357 357 358 358 357 355 354 354 352 353 353 353 353 352 353 353 351 351 349 350 352 340 331 330 330 330 331 345 356 359 357 358 358 359 359 361 362 362
358 357 356 357 358 358 358 357 356 356 354 354 353 354 354 353 352 353 353 355 353 353 353 352 352 341 329 327 327 327 328 335 356 355 358 357 358 359 358 360 362 362
357 357 357 358 358 358 358 357 356 357 355 354 353 353 354 354 352 352 352 354 353 353 353 353 352 336 326 324 323 323 325 329 354 353 354 357 358 359 362 361 363 362
355 356 357 358 358 358 357 357 357 358 357 356 355 354 355 354 355 353 353 352 352 352 351 351 353 332 325 323 322 322 323 343 353 355 354 355 358 361 361 363 363 363
354 354 356 356 357 356 356 356 357 358 358 358 356 354 353 353 354 353 355 353 352 352 351 352 353 338 323 320 320 320 325 348 353 356 356 356 357 361 362 362 362 363
356 357 357 356 357 356 356 356 356 357 357 358 356 354 352 353 355 355 355 355 353 352 352 352 352 342 321 318 317 318 330 350 354 355 356 358 358 360 361 361 362 359
348 358 359 356 356 356 355 356 356 357 357 358 356 356 355 356 356 355 355 356 354 353 349 350 352 345 322 318 316 316 329 352 354 355 355 356 357 358 360 361 363 360
341 349 359 359 358 358 358 358 359 358 358 357 357 356 356 356 356 356 355 355 356 355 354 352 352 354 349 317 315 314 318 349 355 353 353 354 357 356 358 361 361 363

ECMWFNIL_sfc_thetae_108.txt.gz
Theta_e
361 363 360 361 360 360 360 360 359 359 360 358 357 360 360 364 366 367 367 369 368 368 371 376 375 375 373 374 376 371 371 370 367 363 364 362 358 356 352 353 355 354
361 362 362 361 361 362 362 361 362 360 362 362 361 362 365 365 366 366 366 366 369 367 370 371 374 374 375 371 374 369 369 368 367 363 364 364 362 359 354 356 353 355
361 360 359 359 357 360 358 361 362 361 359 360 360 363 364 365 365 367 368 367 366 364 367 370 372 372 372 373 376 372 368 368 365 365 364 364 362 362 360 355 355 354
363 360 357 355 355 356 359 358 360 361 359 359 359 359 360 358 363 366 367 367 366 366 365 367 368 369 370 372 374 368 368 370 367 369 367 366 364 362 360 359 356 356
363 361 358 357 355 357 359 358 356 358 358 357 359 361 363 363 364 363 365 367 367 366 366 367 368 367 369 370 372 369 366 367 367 370 369 366 366 363 359 358 358 355
364 364 362 359 359 358 357 358 358 356 357 354 358 358 361 364 362 360 361 362 362 361 362 363 365 365 365 368 370 369 367 364 364 368 367 366 365 364 359 360 359 358
362 363 361 360 359 359 359 359 359 359 355 356 359 358 359 360 360 360 361 360 358 360 359 362 365 364 365 368 369 368 367 367 367 369 368 365 365 364 362 361 362 360
362 362 363 361 358 357 359 358 358 359 358 358 355 359 359 357 360 359 361 360 357 358 361 361 365 367 363 365 367 367 367 364 364 366 367 365 364 364 364 362 363 363
361 361 362 360 357 356 355 354 356 358 359 358 355 354 359 358 356 356 359 362 361 360 363 362 365 366 365 364 364 365 365 363 362 364 365 364 361 363 362 364 362 363
361 360 359 359 356 355 354 354 353 355 358 358 356 353 353 359 357 356 358 364 363 362 364 365 364 365 364 362 363 364 365 365 364 364 365 364 362 361 360 360 360 362
359 358 358 358 356 354 354 353 352 352 355 357 356 353 352 354 359 359 359 363 359 359 361 364 363 364 363 359 359 361 362 361 362 364 364 364 363 363 363 362 361 360
358 358 356 357 356 355 354 354 353 352 352 355 356 354 353 352 356 358 357 361 362 358 359 363 365 365 366 365 359 359 361 360 360 362 361 363 364 363 363 363 362 363
357 358 357 356 357 357 355 355 354 353 352 353 356 355 352 351 352 358 358 358 362 359 356 360 364 363 365 367 364 361 359 362 356 357 360 361 362 361 361 362 362 361
357 359 358 358 358 360 358 356 355 355 355 355 356 356 353 351 350 352 357 358 358 358 357 358 363 364 365 367 366 361 358 360 362 358 355 357 358 360 359 358 359 360
360 360 360 360 359 360 359 358 357 357 357 357 358 357 354 353 351 350 353 356 358 358 357 356 355 361 362 364 365 365 360 357 360 361 357 355 356 356 356 357 356 357
361 362 362 362 360 360 361 360 358 358 356 357 357 357 358 358 357 354 351 352 356 358 358 356 354 356 360 349 353 363 363 355 356 361 361 358 356 355 353 353 354 354
362 362 363 362 362 361 361 361 359 358 358 359 359 359 359 361 358 355 353 352 352 356 357 356 355 354 347 338 338 344 359 362 359 359 363 362 358 357 356 352 351 353
362 364 363 362 363 362 362 363 360 359 359 360 358 358 361 359 358 357 357 354 352 354 355 357 357 347 335 334 336 336 346 359 358 358 357 359 359 355 354 354 353 350
362 360 362 362 363 363 363 363 362 360 359 358 357 359 359 360 360 358 358 357 355 354 353 355 357 343 331 331 333 333 334 347 352 355 354 354 356 357 356 355 356 355
360 358 357 360 362 363 363 362 361 361 358 357 358 359 359 359 359 359 359 361 359 357 357 356 356 345 329 328 329 329 331 339 355 350 351 352 354 355 355 357 357 357
360 359 357 357 360 362 363 362 361 361 360 358 356 357 358 359 359 359 359 360 359 358 357 356 355 337 326 325 324 325 327 333 356 352 349 350 352 355 359 358 360 358
356 357 358 359 360 361 361 361 361 362 361 360 358 356 358 359 360 360 359 359 359 359 357 357 357 334 325 322 322 322 325 348 357 355 353 352 352 354 357 361 362 361
352 354 359 359 357 358 359 360 360 361 362 362 359 357 355 356 359 359 361 359 359 359 358 358 358 342 323 320 319 320 327 352 356 356 356 355 354 356 357 360 361 364
347 351 354 358 360 357 357 358 359 360 359 362 360 358 355 356 358 359 361 361 359 358 358 358 359 345 320 319 318 317 333 354 355 355 356 356 356 357 357 359 362 361
341 347 351 353 357 357 356 357 357 359 360 361 361 360 359 359 359 358 359 361 360 359 354 356 359 348 319 319 317 316 333 356 356 356 356 357 357 357 359 359 361 362
340 342 346 349 351 352 355 356 357 357 359 360 361 361 361 360 359 359 358 359 361 360 359 358 358 361 347 317 316 314 320 355 357 355 356 357 359 358 359 361 360 362

ECMWFNIL_sfc_thetae_111.txt.gz
Theta_e
361 362 359 359 358 357 357 356 356 358 361 359 359 362 361 364 367 365 364 366 363 369 373 376 374 371 373 374 372 369 369 367 364 360 362 361 359 356 351 353 355 354
360 362 363 359 360 360 359 357 358 356 359 361 359 359 361 362 362 365 365 366 366 364 373 372 375 373 372 371 372 367 368 368 364 360 361 362 360 356 353 354 353 355
360 360 359 358 355 358 355 358 359 357 355 357 359 362 360 362 363 365 365 364 365 362 365 372 374 372 373 372 376 369 369 369 364 361 363 361 358 358 358 352 353 354
363 360 356 356 354 355 356 356 356 359 355 356 356 358 360 357 361 362 365 365 366 365 364 365 367 367 370 371 377 367 368 371 367 367 364 363 362 359 357 357 355 354
363 360 357 356 355 357 357 355 353 354 354 354 355 357 361 362 362 360 363 365 366 364 365 364 365 367 371 370 375 368 365 365 366 369 369 365 365 361 358 357 357 354
365 364 361 357 356 356 353 354 354 352 353 351 354 354 356 359 360 359 360 361 361 360 358 360 362 363 361 368 373 367 365 363 365 366 366 366 364 363 355 356 357 356
364 364 361 357 355 355 354 355 355 356 353 352 355 354 355 356 359 359 360 359 358 359 357 360 362 362 363 366 367 367 367 365 366 367 365 365 365 364 360 359 359 358
362 364 363 359 355 354 354 353 355 356 356 355 352 355 356 354 359 358 359 358 357 358 360 357 362 365 360 361 364 365 365 361 363 368 369 365 364 364 364 361 361 361
362 362 363 360 355 353 351 351 353 357 357 355 352 352 356 356 355 356 359 360 359 359 361 360 363 362 362 361 362 364 365 362 359 361 363 362 362 363 363 364 361 361
363 360 358 357 355 352 351 351 350 353 357 355 352 350 351 356 356 355 356 361 359 359 360 361 361 361 362 362 361 362 364 364 364 363 361 360 360 360 359 360 360 361
361 359 355 356 354 351 350 350 349 348 353 354 353 349 348 353 355 357 359 359 356 358 359 360 360 361 362 360 360 361 363 362 363 363 363 362 362 361 360 360 359 359
361 359 356 355 354 352 349 348 348 347 347 352 353 350 348 347 353 353 353 356 358 360 360 361 363 363 364 363 359 359 360 360 360 360 359 360 360 360 360 360 358 360
359 361 358 355 355 354 351 348 348 348 346 346 351 352 348 346 347 353 354 353 357 358 357 358 361 362 365 365 362 359 358 358 354 355 355 356 358 357 357 358 358 358
360 362 361 360 357 360 357 352 348 347 349 348 349 350 350 347 345 346 352 353 353 356 357 356 359 361 363 365 364 360 356 355 355 353 352 354 354 355 355 354 355 356
362 361 362 362 361 361 359 357 353 352 353 351 350 348 348 349 348 345 348 353 354 355 356 353 351 356 359 361 363 363 359 354 354 355 353 352 352 351 353 353 353 353
365 366 365 364 362 361 363 361 359 356 351 350 349 349 352 353 352 349 347 349 353 355 355 352 349 350 357 348 352 362 362 354 353 357 357 354 353 352 350 349 350 350
363 363 364 364 365 363 362 363 362 359 357 360 356 353 357 359 355 350 347 347 349 353 355 353 351 348 345 337 338 344 359 359 353 355 358 357 353 354 352 348 349 350
359 364 365 364 364 365 364 364 363 362 362 361 357 355 361 355 353 354 355 349 346 348 351 355 354 346 333 333 335 336 346 361 354 350 350 354 354 352 352 351 348 347
356 359 362 363 364 364 365 365 365 363 361 360 356 358 358 361 362 356 356 356 352 351 347 349 354 343 330 330 333 333 334 349 351 350 346 346 351 353 353 352 351 349
357 356 358 362 364 363 364 363 363 363 361 360 359 359 360 359 359 361 360 363 359 356 356 351 354 346 329 327 329 330 332 340 355 346 347 347 349 349 350 352 352 350
353 355 355 357 358 360 363 362 361 361 361 362 357 357 358 359 359 360 361 361 360 358 357 354 353 338 326 325 325 326 329 335 357 348 343 344 347 349 355 351 358 352
350 350 353 356 357 357 358 360 359 362 361 361 361 357 358 359 361 361 360 360 361 360 357 356 355 334 324 323 323 324 327 350 362 356 349 345 345 350 351 357 356 355
345 349 352 354 355 356 356 354 355 355 359 361 360 360 360 361 357 357 363 362 361 361 360 360 358 343 322 320 320 322 330 356 362 360 357 354 351 353 352 350 351 357
345 347 349 350 352 353 352 351 352 354 352 351 355 355 352 355 356 353 354 354 357 357 356 361 359 348 318 317 318 319 335 358 360 360 359 358 357 357 354 352 356 356
347 347 346 346 348 349 350 351 349 352 355 356 356 356 357 357 358 355 355 358 358 357 352 355 359 352 316 317 316 317 335 360 361 360 358 359 359 358 359 358 360 360
344 344 345 343 346 347 351 354 356 353 353 353 354 355 355 357 359 357 356 356 357 355 353 357 355 356 349 313 315 314 321 360 361 358 356 357 360 359 360 361 360 360

ECMWFNIL_sfc_thetae_117.txt.gz
Theta_e
356 360 356 357 358 360 358 359 359 359 359 358 359 359 356 359 360 359 362 363 364 366 364 365 366 366 368 367 367 365 360 357 357 359 356 357 355 354 354 351 351 356
356 359 360 358 359 361 359 359 358 359 359 357 360 358 358 360 360 359 361 362 364 364 365 367 366 366 366 366 365 362 363 360 357 362 358 356 355 353 352 352 350 352
357 357 357 355 357 358 360 358 358 359 359 360 359 358 361 361 362 360 361 361 362 362 364 367 366 365 365 365 365 363 361 361 357 355 356 355 357 355 354 351 349 351
357 357 356 355 354 356 354 356 356 357 358 357 357 360 361 361 359 359 359 366 360 360 366 366 365 365 364 365 365 362 362 362 361 358 355 356 356 354 353 352 354 350
356 356 356 355 354 354 354 352 354 354 353 355 356 357 357 356 357 360 361 361 358 361 365 364 364 363 364 363 365 361 361 361 362 361 358 355 356 357 355 353 350 351
355 355 356 355 354 354 352 352 351 353 352 354 354 358 354 361 356 357 361 360 360 361 363 363 362 364 364 363 366 363 361 361 361 361 360 358 358 356 356 355 351 349
354 354 354 355 354 354 353 351 352 353 351 351 353 352 354 360 356 356 358 358 358 358 358 360 361 362 363 363 364 363 363 360 359 360 358 360 359 358 355 353 354 351
355 355 355 354 353 351 353 352 351 351 351 350 351 351 352 353 355 356 357 357 356 356 355 356 359 359 361 362 362 363 363 365 361 359 359 359 359 357 359 362 359 351
357 357 356 354 352 350 349 350 351 350 353 350 350 351 352 351 354 354 356 357 356 356 355 356 357 358 359 360 362 363 362 361 360 359 360 359 359 358 358 358 357 357
356 357 357 355 352 350 348 347 348 350 351 351 350 348 350 352 353 353 355 356 355 355 355 354 357 357 357 358 360 361 360 359 357 358 360 359 359 359 359 358 356 355
353 357 357 356 353 351 348 347 346 346 349 349 349 348 347 349 353 353 353 355 355 354 357 354 358 357 355 356 358 360 360 359 358 358 358 359 359 359 364 357 357 356
358 355 352 352 351 352 351 347 346 345 346 349 348 347 346 347 350 353 354 354 354 354 356 356 355 357 356 355 356 358 360 360 359 357 359 359 359 359 360 359 358 357
355 354 356 353 352 352 351 352 352 349 344 347 349 347 347 345 347 350 354 355 354 353 354 356 355 355 356 358 357 355 356 357 358 358 357 358 359 359 359 358 358 357
354 354 353 352 354 354 354 352 352 350 347 347 347 347 346 346 344 347 350 354 354 353 353 355 356 355 354 356 358 357 356 355 355 356 357 357 356 357 357 356 356 356
354 355 354 354 354 353 351 349 348 348 349 348 346 346 348 345 345 345 347 350 354 353 352 353 356 356 355 356 356 356 357 355 354 354 354 354 354 354 355 354 355 355
353 352 350 350 350 350 349 349 349 349 350 350 350 349 347 347 346 346 345 347 349 352 352 353 354 357 358 351 354 357 355 355 355 354 353 352 352 351 351 352 353 352
354 352 351 350 351 351 350 351 350 351 349 349 351 350 348 348 349 346 347 344 347 349 351 351 352 355 350 339 340 347 358 355 354 353 352 351 350 349 348 348 348 349
350 352 350 350 351 350 350 351 352 350 348 348 350 352 349 349 347 347 348 349 347 346 348 350 351 352 338 335 337 337 348 358 356 355 354 351 350 348 348 349 348 347
347 349 350 351 352 354 355 356 354 353 353 353 353 354 353 349 346 346 348 352 354 345 345 348 350 343 334 332 333 334 335 351 356 356 354 352 350 349 348 348 347 347
345 346 347 348 349 350 353 353 353 353 356 358 357 354 351 351 350 347 348 349 352 352 351 351 350 344 330 327 328 329 331 338 355 355 354 353 350 349 349 348 348 347
343 342 344 346 348 347 349 350 351 350 353 355 356 355 351 349 352 352 352 354 354 353 352 352 352 333 329 326 323 321 325 332 351 354 354 353 352 350 347 347 348 348
343 341 342 345 346 347 348 348 349 349 350 353 355 356 356 354 355 354 353 353 353 353 353 349 351 333 333 328 323 322 324 333 340 349 351 351 350 349 347 346 346 347
343 344 342 342 345 345 345 348 348 348 349 353 353 354 355 354 354 356 355 356 355 354 352 350 352 340 329 328 324 320 324 334 337 342 348 349 348 347 346 345 346 345
341 343 342 342 343 344 344 344 348 348 348 349 348 349 350 353 355 355 355 356 355 354 354 352 352 349 335 326 321 319 329 336 337 340 343 348 349 349 347 345 346 357
336 337 336 342 343 346 346 345 344 344 342 340 341 342 345 349 351 350 352 354 357 356 360 356 353 349 335 330 326 315 325 336 339 340 342 344 347 349 349 348 346 352
332 335 336 338 343 344 345 345 345 343 341 341 339 336 339 345 349 350 349 350 351 353 357 358 355 354 350 330 321 317 317 338 339 340 342 344 346 348 348 349 349 349

ECMWFNIL_sfc_thetae_123.txt.gz
Theta_e
349 352 352 351 350 350 348 348 351 350 351 351 351 353 353 355 357 355 356 356 357 356 356 355 356 355 358 356 356 354 354 351 351 349 347 348 347 347 349 347 346 345
350 352 355 353 353 354 350 350 352 352 351 351 352 353 354 356 356 357 355 356 357 357 357 357 357 357 356 356 355 354 352 351 350 356 350 347 346 346 348 347 347 345
350 352 353 352 352 353 351 351 354 354 352 352 353 354 355 357 356 356 356 356 356 357 358 357 357 358 358 357 356 356 355 351 351 351 351 349 347 346 347 348 346 347
348 352 353 353 353 353 353 351 353 355 354 353 354 355 356 357 356 356 355 362 356 357 358 359 358 359 359 359 358 356 355 353 353 351 350 350 351 348 348 346 349 349
348 350 353 353 353 354 354 353 353 354 354 354 355 356 357 355 355 355 355 356 357 356 357 359 359 359 359 358 358 356 355 354 353 352 350 349 350 349 351 348 346 346
349 349 352 352 353 353 353 354 353 354 355 354 354 356 356 356 355 355 355 355 357 357 357 357 359 360 359 358 358 357 357 356 354 353 351 350 350 350 352 350 347 346
349 349 350 352 352 353 353 353 354 355 355 356 355 355 356 355 355 355 355 355 356 357 357 357 357 359 359 358 357 357 356 355 354 353 353 353 353 352 352 350 349 347
350 350 350 351 351 351 352 352 353 353 354 354 354 354 355 355 355 355 355 355 355 355 356 357 357 357 359 358 357 356 356 358 356 354 353 353 351 352 353 352 350 347
351 351 351 351 350 350 350 351 352 352 353 352 352 353 353 354 354 355 355 355 354 355 355 356 357 357 358 358 357 357 356 357 358 356 354 353 352 353 353 352 350 350
350 351 351 351 350 350 349 350 350 350 352 351 351 351 350 352 353 354 354 354 354 354 354 354 356 357 357 358 358 357 357 356 357 357 357 355 354 354 354 353 352 350
348 349 350 351 351 351 350 350 350 350 349 350 350 349 349 349 351 352 352 353 354 354 353 353 354 356 356 357 358 358 357 357 357 357 357 356 356 355 359 354 353 352
346 347 349 350 350 351 351 351 350 349 349 349 349 348 348 348 348 350 352 351 353 354 353 353 353 354 355 356 357 357 357 358 358 357 357 356 356 355 355 355 355 354
345 346 347 349 350 350 351 350 349 348 347 347 349 349 348 347 347 348 351 351 352 353 353 353 352 353 353 354 355 355 356 356 357 356 356 355 355 355 355 355 355 355
346 346 347 347 348 349 349 349 348 346 345 344 346 346 347 346 346 346 348 351 352 352 352 353 352 351 351 352 353 353 354 354 355 355 355 355 355 355 355 355 355 355
346 346 347 348 351 349 348 347 347 346 345 344 343 344 346 346 345 345 346 347 349 351 351 352 352 352 352 352 351 351 352 352 353 354 354 353 353 353 354 355 355 356
348 349 347 348 348 346 344 345 346 346 345 344 344 345 345 344 343 343 343 345 346 348 349 351 351 352 355 348 350 353 351 352 352 352 353 353 352 352 352 353 354 355
348 347 346 345 345 344 343 344 345 346 345 343 343 344 345 347 347 342 341 342 345 346 347 349 350 352 347 337 337 341 353 351 350 350 351 352 352 351 350 351 352 353
347 347 346 347 347 345 344 344 345 344 343 343 344 344 346 349 347 344 342 343 344 343 345 348 349 349 337 334 334 334 342 353 351 350 350 350 351 350 351 351 351 351
344 344 344 345 346 348 346 346 345 345 345 346 347 348 349 346 346 347 346 343 344 344 343 344 346 343 334 331 331 330 331 341 351 350 349 350 350 350 349 349 349 349
343 344 344 344 345 346 347 346 345 346 348 350 351 350 349 349 349 348 348 345 344 344 345 347 346 345 333 328 326 326 327 332 344 347 348 348 348 349 349 349 348 348
342 343 343 344 345 345 345 345 345 345 343 345 345 344 346 347 348 345 345 350 350 349 347 349 351 337 330 329 325 321 323 328 339 344 347 348 349 349 348 348 348 348
342 341 342 342 341 341 340 340 341 341 340 342 340 340 341 344 346 348 347 345 346 350 348 347 351 337 334 331 325 322 322 332 336 339 342 345 347 349 350 350 349 349
331 337 342 342 341 339 339 340 340 339 340 342 338 337 340 341 342 345 345 345 345 346 347 346 349 343 332 327 325 323 326 333 334 337 339 341 343 346 348 349 350 350
330 330 333 342 341 338 338 339 341 341 339 341 337 337 338 339 343 343 344 344 345 344 349 348 348 344 324 321 318 319 328 334 335 334 334 336 338 340 342 344 347 356
328 329 329 331 338 340 342 340 339 340 341 340 339 337 338 339 345 343 344 344 344 345 347 347 347 342 326 319 319 316 327 337 338 337 336 336 337 338 339 341 342 349
327 329 329 329 332 335 336 337 339 340 341 340 339 337 339 341 343 343 340 339 340 340 340 340 340 340 339 320 316 318 317 334 339 339 339 339 339 341 342 342 343 343

ECMWFNIL_sfc_thetae_126.txt.gz
Theta_e
351 352 352 352 351 351 350 350 351 352 353 353 353 354 355 356 358 357 358 359 359 359 359 359 361 362 363 362 363 360 360 357 358 355 355 355 355 353 353 354 352 354
350 353 356 354 354 355 352 351 351 352 352 353 354 355 356 358 358 358 357 358 360 360 359 359 360 361 360 360 360 360 358 359 357 358 356 355 355 353 352 353 353 352
350 352 354 353 352 353 352 352 353 353 353 354 354 356 356 359 358 359 358 358 358 359 360 360 360 361 361 361 360 361 360 358 357 357 359 357 355 355 354 352 352 353
350 352 353 354 354 354 354 352 353 355 355 354 354 356 357 359 359 359 358 362 359 359 360 361 361 361 362 361 361 360 360 360 359 358 357 358 357 355 355 354 355 355
350 351 353 354 355 356 355 353 352 354 355 355 355 357 359 359 359 358 358 359 360 359 359 361 361 361 362 362 362 361 360 360 359 358 357 356 357 357 356 356 355 354
350 352 354 354 354 355 355 354 353 354 356 355 356 358 358 357 358 358 358 357 358 359 359 359 361 362 362 362 361 362 361 360 360 359 357 356 356 356 356 357 355 354
349 349 352 354 354 354 355 355 355 356 356 357 358 357 358 357 357 358 358 358 358 359 359 360 360 361 362 362 361 361 361 361 361 359 358 358 358 357 356 356 356 355
349 349 351 353 353 354 355 355 355 356 357 358 356 357 358 357 358 358 358 358 357 358 359 359 360 361 361 362 361 360 360 360 360 359 358 358 358 358 359 357 357 356
350 350 350 351 352 352 353 354 355 356 357 357 356 357 358 358 358 358 358 358 358 358 358 359 360 359 360 361 361 360 360 360 361 360 359 358 357 357 358 359 357 356
351 351 351 351 351 351 351 353 354 354 356 356 356 356 356 357 358 358 358 358 357 358 358 358 358 359 360 360 360 360 360 360 361 361 360 359 358 358 358 358 357 357
351 352 351 351 351 351 351 352 353 353 354 354 354 354 354 355 356 357 357 357 356 357 357 357 358 358 359 359 360 361 361 360 360 360 360 360 360 360 360 360 358 357
351 351 351 351 352 352 352 352 352 352 351 353 353 353 353 353 353 354 355 356 357 358 358 358 358 358 359 359 359 360 360 360 361 361 360 360 360 360 360 360 359 359
350 350 352 351 352 352 352 352 352 351 351 351 353 352 351 350 350 352 354 355 356 356 357 357 358 357 358 359 359 360 360 360 359 360 360 360 360 360 360 360 359 359
350 350 351 350 351 352 352 352 351 351 351 351 352 351 351 350 350 349 350 353 354 355 356 357 357 357 357 358 358 358 358 359 359 359 359 359 359 360 360 359 359 359
348 349 351 354 352 350 351 350 350 349 348 348 349 349 348 348 349 349 349 350 352 354 355 355 355 355 356 356 356 357 358 357 358 358 358 358 358 358 358 359 359 359
349 350 350 350 349 348 348 348 348 349 348 346 347 348 349 351 349 348 347 347 349 351 353 353 354 355 356 348 350 357 356 356 356 357 357 357 357 357 356 357 357 358
348 348 348 347 346 346 346 346 346 348 347 346 345 346 348 351 350 348 346 345 345 347 349 350 353 354 347 337 336 340 355 356 355 356 356 356 356 356 356 356 356 356
347 347 347 346 345 345 346 347 348 347 347 347 348 347 349 350 349 350 349 348 347 347 346 348 351 350 337 334 334 332 341 355 355 355 354 354 354 355 355 355 355 355
346 346 346 347 347 346 346 346 346 347 348 349 349 351 350 350 350 350 351 351 349 348 349 349 349 343 333 332 330 329 330 342 352 355 354 353 354 354 354 355 356 356
345 346 346 346 347 347 346 347 347 346 346 347 348 349 348 349 348 348 350 351 352 352 352 352 353 342 327 326 324 323 325 332 345 349 352 353 354 354 353 354 354 354
344 344 344 343 343 343 343 341 341 341 341 343 343 343 343 345 346 346 348 348 348 351 352 351 349 330 327 325 322 320 321 329 341 344 346 349 351 353 354 354 355 353
340 340 339 339 339 340 340 340 340 340 340 343 342 342 344 346 346 347 346 346 348 347 347 347 344 325 323 322 321 320 325 339 340 341 342 344 347 350 352 355 354 353
336 340 340 339 340 340 340 340 340 340 342 342 340 341 342 343 344 345 346 347 347 347 347 346 343 330 320 318 319 320 331 340 341 342 343 343 344 345 347 348 349 353
332 334 338 341 340 339 339 340 342 341 341 342 341 341 341 342 343 342 342 343 343 343 345 342 341 333 318 316 317 319 332 341 342 342 341 342 343 343 344 345 346 349
332 333 333 334 335 337 339 339 341 341 342 342 341 342 342 342 340 337 337 338 340 340 343 341 340 336 318 316 315 317 333 343 344 345 345 345 345 346 347 348 348 349
332 334 333 332 332 333 335 336 339 338 338 338 338 337 337 338 338 336 334 335 337 337 337 340 340 336 326 314 313 315 320 342 341 341 341 343 345 347 347 348 349 350